[[{"header":{"parameterUnit":"m.s-1","parameterCategory":1,"la1":30.6,"la2":29.2853,"lo1":-89.7004,"lo2":-87.6739,"dy":0.0162,"dx":0.0183,"nx":112,"ny":82,"refTime":"2024-06-27T06:00:00:Z","depth":0,"parameterNumber":2,"parameterNumberName":"U-component_of_WINDS"},"data":[0.0,0.0,0.0,0.0,0.0,0.0,0.0,0.0,0.0,0.0,0.0,0.0,0.0,0.0,0.0,0.0,0.0,0.0,0.0,0.0,0.0,0.0,0.0,0.0,0.0,0.0,0.0,0.0,0.0,0.0,0.0,0.0,0.0,0.0,0.0,0.0,0.0,0.0,0.0,0.0,0.0,0.0,0.0,0.0,0.0,0.0,0.0,0.0,0.0,0.0,0.0,0.0,0.0,0.0,0.0,0.0,0.0,0.0,0.0,0.0,0.0,0.0,0.0,0.0,0.0,0.0,0.0,0.0,0.0,0.0,0.0,0.0,0.0,0.0,0.0,0.0,0.0,0.0,0.0,0.0,0.0,0.0,0.0,0.0,0.0,0.0,0.0,0.0,0.0,0.0,-2.7575,-2.9919,-3.1913,-3.288,-3.239,-3.219,-3.1052,-2.8534,0.0,0.0,0.0,0.0,0.0,0.0,0.0,0.0,0.0,0.0,0.0,0.0,0.0,0.0,0.0,0.0,0.0,0.0,0.0,0.0,0.0,0.0,0.0,0.0,0.0,0.0,0.0,0.0,0.0,0.0,0.0,0.0,0.0,0.0,0.0,0.0,0.0,0.0,0.0,0.0,0.0,0.0,0.0,0.0,0.0,0.0,0.0,0.0,0.0,0.0,0.0,0.0,0.0,0.0,0.0,0.0,0.0,0.0,0.0,0.0,0.0,0.0,0.0,0.0,0.0,0.0,0.0,0.0,0.0,0.0,0.0,0.0,0.0,0.0,0.0,0.0,0.0,0.0,0.0,0.0,0.0,0.0,0.0,0.0,0.0,0.0,0.0,0.0,0.0,0.0,0.0,0.0,0.0,0.0,0.0,0.0,0.0,0.0,0.0,0.0,0.0,0.0,0.0,0.0,-2.7877,-3.1449,-3.2579,-3.3043,-3.2955,-3.2064,-3.0574,-2.8268,0.0,0.0,0.0,0.0,0.0,0.0,0.0,0.0,0.0,0.0,0.0,0.0,0.0,0.0,0.0,0.0,0.0,0.0,0.0,0.0,0.0,0.0,0.0,0.0,0.0,0.0,0.0,0.0,0.0,0.0,0.0,0.0,0.0,0.0,0.0,0.0,0.0,0.0,0.0,0.0,0.0,0.0,0.0,0.0,0.0,0.0,0.0,0.0,0.0,0.0,0.0,0.0,0.0,0.0,0.0,0.0,0.0,0.0,0.0,0.0,0.0,0.0,0.0,0.0,0.0,0.0,0.0,0.0,0.0,0.0,0.0,0.0,0.0,0.0,0.0,0.0,0.0,0.0,0.0,0.0,0.0,0.0,0.0,0.0,0.0,0.0,0.0,0.0,0.0,0.0,0.0,0.0,0.0,0.0,0.0,0.0,0.0,0.0,0.0,0.0,0.0,0.0,0.0,-2.7716,-2.9277,-3.1926,-3.2729,-3.3081,-3.3081,-3.2039,-3.0444,-2.8247,-2.7459,0.0,0.0,0.0,0.0,0.0,0.0,0.0,0.0,0.0,0.0,0.0,0.0,0.0,0.0,0.0,0.0,0.0,0.0,0.0,0.0,0.0,0.0,0.0,0.0,0.0,0.0,0.0,0.0,0.0,0.0,0.0,0.0,0.0,0.0,0.0,0.0,0.0,0.0,0.0,0.0,0.0,0.0,0.0,0.0,0.0,0.0,0.0,0.0,0.0,0.0,0.0,0.0,0.0,0.0,0.0,0.0,0.0,0.0,0.0,0.0,0.0,0.0,0.0,0.0,0.0,0.0,0.0,0.0,0.0,0.0,0.0,0.0,0.0,0.0,0.0,0.0,0.0,0.0,0.0,0.0,0.0,0.0,0.0,0.0,0.0,0.0,0.0,0.0,0.0,0.0,0.0,0.0,0.0,0.0,0.0,0.0,0.0,0.0,0.0,0.0,0.0,0.0,-2.9859,-3.0972,-3.2252,-3.2805,-3.3081,-3.3081,-3.1813,-3.0181,-2.8235,-2.6843,0.0,0.0,0.0,0.0,0.0,0.0,0.0,0.0,0.0,0.0,0.0,0.0,0.0,0.0,0.0,0.0,0.0,0.0,0.0,0.0,0.0,0.0,0.0,0.0,0.0,0.0,0.0,0.0,0.0,0.0,0.0,0.0,0.0,0.0,0.0,0.0,0.0,0.0,0.0,0.0,0.0,0.0,0.0,0.0,0.0,0.0,0.0,0.0,0.0,0.0,0.0,0.0,0.0,0.0,0.0,0.0,0.0,0.0,0.0,0.0,0.0,0.0,0.0,0.0,0.0,0.0,0.0,0.0,0.0,0.0,0.0,0.0,0.0,0.0,0.0,0.0,0.0,0.0,0.0,0.0,0.0,0.0,0.0,0.0,0.0,0.0,0.0,0.0,0.0,0.0,0.0,0.0,0.0,0.0,0.0,0.0,0.0,0.0,0.0,0.0,0.0,0.0,-3.113,-3.272,-3.2965,-3.3056,-3.3081,-3.3081,-3.1135,-2.939,-2.8185,-2.5716,0.0,0.0,0.0,0.0,0.0,0.0,0.0,0.0,0.0,0.0,0.0,0.0,0.0,0.0,0.0,0.0,0.0,0.0,0.0,0.0,0.0,0.0,0.0,0.0,0.0,0.0,0.0,0.0,0.0,0.0,0.0,0.0,0.0,0.0,0.0,0.0,0.0,0.0,0.0,0.0,0.0,0.0,0.0,0.0,0.0,0.0,0.0,0.0,0.0,0.0,0.0,0.0,0.0,0.0,0.0,0.0,0.0,0.0,0.0,0.0,0.0,0.0,0.0,0.0,0.0,0.0,0.0,0.0,0.0,0.0,0.0,0.0,0.0,0.0,0.0,0.0,0.0,0.0,0.0,0.0,0.0,0.0,0.0,0.0,0.0,0.0,0.0,0.0,0.0,0.0,0.0,0.0,0.0,0.0,0.0,0.0,0.0,0.0,0.0,0.0,0.0,0.0,-3.0703,-3.2111,-3.3051,-3.3081,-3.3081,-3.3081,-3.1675,-3.0018,-2.821,0.0,0.0,0.0,0.0,0.0,0.0,0.0,0.0,0.0,0.0,0.0,0.0,0.0,0.0,0.0,0.0,0.0,0.0,0.0,0.0,0.0,0.0,0.0,0.0,0.0,0.0,0.0,0.0,0.0,0.0,0.0,0.0,0.0,0.0,0.0,0.0,0.0,0.0,0.0,0.0,0.0,0.0,0.0,0.0,0.0,0.0,0.0,0.0,0.0,0.0,0.0,0.0,0.0,0.0,0.0,0.0,0.0,0.0,0.0,0.0,0.0,0.0,0.0,0.0,0.0,0.0,0.0,0.0,0.0,0.0,0.0,0.0,0.0,0.0,0.0,0.0,0.0,0.0,0.0,0.0,0.0,0.0,0.0,0.0,0.0,0.0,0.0,0.0,0.0,0.0,0.0,0.0,0.0,0.0,0.0,0.0,0.0,0.0,0.0,0.0,0.0,0.0,-2.918,-3.0564,-3.1744,-3.2953,-3.3081,-3.3081,-3.3081,-3.1725,-3.008,-2.8222,0.0,0.0,0.0,0.0,0.0,0.0,0.0,0.0,0.0,0.0,0.0,0.0,0.0,0.0,0.0,0.0,0.0,0.0,0.0,0.0,0.0,0.0,0.0,0.0,0.0,0.0,0.0,0.0,0.0,0.0,0.0,0.0,0.0,0.0,0.0,0.0,0.0,0.0,0.0,0.0,0.0,0.0,0.0,0.0,0.0,0.0,0.0,0.0,0.0,0.0,0.0,0.0,0.0,0.0,0.0,0.0,0.0,0.0,0.0,0.0,0.0,0.0,0.0,0.0,0.0,0.0,0.0,0.0,0.0,0.0,0.0,0.0,0.0,0.0,0.0,0.0,0.0,0.0,0.0,0.0,0.0,0.0,0.0,0.0,0.0,0.0,0.0,0.0,0.0,0.0,0.0,0.0,0.0,0.0,0.0,0.0,0.0,0.0,0.0,0.0,0.0,0.0,-2.9889,-3.0981,-3.1825,-3.2968,-3.3081,-3.3081,-3.3081,-3.1072,-2.9327,0.0,0.0,0.0,0.0,0.0,0.0,0.0,0.0,0.0,0.0,0.0,0.0,0.0,0.0,0.0,0.0,0.0,0.0,0.0,0.0,0.0,0.0,0.0,0.0,0.0,0.0,0.0,0.0,0.0,0.0,0.0,0.0,0.0,0.0,0.0,0.0,0.0,0.0,0.0,0.0,0.0,0.0,0.0,0.0,0.0,0.0,0.0,0.0,0.0,0.0,0.0,0.0,0.0,0.0,0.0,0.0,0.0,0.0,0.0,0.0,0.0,0.0,0.0,0.0,0.0,0.0,0.0,0.0,0.0,0.0,0.0,0.0,0.0,0.0,0.0,0.0,0.0,0.0,0.0,0.0,0.0,0.0,0.0,0.0,0.0,0.0,0.0,0.0,0.0,0.0,0.0,0.0,0.0,0.0,0.0,0.0,0.0,0.0,0.0,0.0,0.0,0.0,0.0,-3.0025,-3.1915,-3.3212,-3.362,-3.3658,-3.3658,-3.3658,-3.1282,-2.904,-2.7284,0.0,0.0,0.0,0.0,0.0,0.0,0.0,0.0,0.0,0.0,0.0,0.0,0.0,0.0,0.0,0.0,0.0,0.0,0.0,0.0,0.0,0.0,0.0,0.0,0.0,0.0,0.0,0.0,0.0,0.0,0.0,0.0,0.0,0.0,0.0,0.0,0.0,0.0,0.0,0.0,0.0,0.0,0.0,0.0,0.0,0.0,0.0,0.0,0.0,0.0,0.0,0.0,0.0,0.0,0.0,0.0,0.0,0.0,0.0,0.0,0.0,0.0,0.0,0.0,0.0,0.0,0.0,0.0,0.0,0.0,0.0,0.0,0.0,0.0,0.0,0.0,0.0,0.0,0.0,0.0,0.0,0.0,0.0,0.0,0.0,0.0,0.0,0.0,0.0,0.0,0.0,0.0,0.0,0.0,0.0,0.0,0.0,0.0,0.0,0.0,0.0,0.0,-2.9617,-3.1782,-3.311,-3.3116,-3.3334,-3.3088,-3.2406,-3.0496,-2.85,-2.6426,0.0,0.0,0.0,0.0,0.0,0.0,0.0,0.0,0.0,0.0,0.0,0.0,0.0,0.0,0.0,0.0,0.0,0.0,0.0,0.0,0.0,0.0,0.0,0.0,0.0,0.0,0.0,0.0,0.0,0.0,0.0,0.0,0.0,0.0,0.0,0.0,0.0,0.0,0.0,0.0,0.0,0.0,0.0,0.0,0.0,0.0,0.0,0.0,0.0,0.0,0.0,0.0,0.0,0.0,0.0,0.0,0.0,0.0,0.0,0.0,0.0,0.0,0.0,0.0,0.0,0.0,0.0,0.0,0.0,0.0,0.0,0.0,0.0,0.0,0.0,0.0,0.0,0.0,0.0,0.0,0.0,0.0,0.0,0.0,0.0,0.0,0.0,0.0,0.0,0.0,0.0,0.0,0.0,0.0,0.0,0.0,0.0,0.0,0.0,0.0,0.0,0.0,-2.8898,-3.0846,-3.1982,-3.1861,-3.23,-3.189,-3.0092,-2.894,-2.7447,-2.5365,0.0,0.0,0.0,0.0,0.0,0.0,0.0,0.0,0.0,0.0,0.0,0.0,0.0,0.0,0.0,0.0,0.0,0.0,0.0,0.0,0.0,0.0,0.0,0.0,0.0,0.0,0.0,0.0,0.0,0.0,0.0,0.0,0.0,0.0,0.0,0.0,0.0,0.0,0.0,0.0,0.0,0.0,0.0,0.0,0.0,0.0,0.0,0.0,0.0,0.0,0.0,0.0,0.0,0.0,0.0,0.0,0.0,0.0,0.0,0.0,-1.9253,0.0,0.0,0.0,0.0,0.0,0.0,0.0,0.0,0.0,0.0,0.0,0.0,0.0,0.0,0.0,0.0,0.0,0.0,0.0,0.0,0.0,0.0,0.0,0.0,0.0,0.0,0.0,0.0,0.0,0.0,0.0,0.0,0.0,0.0,0.0,0.0,0.0,0.0,0.0,0.0,0.0,-2.8661,-2.9815,-3.0753,-3.1468,-3.1671,-3.1149,-2.9551,-2.7421,-2.5056,-2.264,-2.0819,0.0,0.0,0.0,0.0,0.0,0.0,0.0,0.0,0.0,0.0,0.0,0.0,0.0,0.0,0.0,0.0,0.0,0.0,0.0,0.0,0.0,0.0,0.0,0.0,0.0,0.0,0.0,0.0,0.0,0.0,0.0,0.0,0.0,0.0,0.0,0.0,0.0,0.0,0.0,0.0,0.0,0.0,0.0,0.0,0.0,0.0,0.0,0.0,0.0,0.0,0.0,0.0,0.0,0.0,0.0,0.0,0.0,0.0,0.0,0.0,-2.0443,0.0,0.0,0.0,0.0,0.0,0.0,0.0,0.0,0.0,0.0,0.0,0.0,0.0,0.0,0.0,0.0,0.0,0.0,0.0,0.0,0.0,0.0,0.0,0.0,0.0,0.0,0.0,0.0,0.0,0.0,0.0,0.0,0.0,0.0,0.0,0.0,0.0,0.0,0.0,0.0,-2.845,-2.9435,-3.0123,-3.0513,-3.0157,-2.9219,-2.7545,-2.5321,-2.3249,-2.1302,-1.9995,0.0,0.0,0.0,0.0,0.0,0.0,0.0,0.0,0.0,0.0,0.0,0.0,0.0,0.0,0.0,0.0,0.0,0.0,0.0,0.0,0.0,0.0,0.0,0.0,0.0,0.0,0.0,0.0,0.0,0.0,0.0,0.0,0.0,0.0,0.0,0.0,0.0,0.0,0.0,0.0,0.0,0.0,0.0,0.0,0.0,0.0,0.0,0.0,0.0,0.0,0.0,0.0,0.0,-2.3475,-2.405,-2.4373,-2.4863,-2.5252,-2.5538,-2.3401,-2.2462,-2.24,-2.1081,0.0,0.0,0.0,0.0,0.0,0.0,0.0,0.0,0.0,0.0,0.0,0.0,0.0,0.0,0.0,0.0,0.0,0.0,0.0,0.0,0.0,0.0,0.0,0.0,-2.6458,-2.6178,-2.3588,0.0,0.0,0.0,0.0,0.0,0.0,0.0,0.0,0.0,0.0,0.0,-2.7946,-2.8774,-2.9147,-2.8922,-2.8015,-2.6556,-2.4447,-2.2797,-2.1235,-1.9687,-1.8867,-1.7385,0.0,0.0,0.0,0.0,0.0,0.0,0.0,0.0,0.0,0.0,0.0,0.0,0.0,0.0,0.0,0.0,0.0,0.0,0.0,0.0,0.0,0.0,0.0,0.0,0.0,0.0,0.0,0.0,0.0,0.0,0.0,0.0,-1.4766,-1.5625,0.0,0.0,0.0,0.0,0.0,0.0,0.0,0.0,0.0,0.0,0.0,0.0,0.0,-2.2501,-2.3305,-2.4544,-2.4928,-2.4733,-2.6337,-2.6933,-2.6645,-2.7468,-2.7855,-2.7876,-2.7521,0.0,-2.4632,-2.3653,0.0,0.0,0.0,0.0,0.0,0.0,0.0,0.0,0.0,0.0,0.0,0.0,0.0,0.0,0.0,0.0,0.0,0.0,0.0,0.0,0.0,0.0,-2.7246,-2.6921,-2.7516,-2.7898,0.0,-2.6218,-2.5125,-2.3799,-2.3308,0.0,0.0,0.0,0.0,0.0,0.0,0.0,-2.663,-2.6289,-2.6185,-2.6559,-2.5208,-2.3191,-2.0295,-1.9569,-1.8006,-1.4787,-1.4302,-1.372,-1.2687,-1.2167,0.0,0.0,0.0,0.0,0.0,0.0,0.0,0.0,0.0,0.0,0.0,0.0,0.0,0.0,0.0,0.0,0.0,0.0,0.0,0.0,0.0,0.0,0.0,0.0,0.0,0.0,0.0,0.0,0.0,-1.4795,-1.6016,-1.6396,-1.6661,-1.6757,0.0,0.0,0.0,0.0,0.0,0.0,0.0,0.0,0.0,-2.3324,-2.4206,-2.5065,-2.5946,-2.6763,-2.7178,-2.7197,-2.8055,-2.8454,-2.8452,-2.8886,-2.904,-2.9007,-2.9041,-2.8492,-2.7511,-2.6208,-2.5039,-2.4215,0.0,0.0,0.0,0.0,-2.383,-2.415,-2.5081,-2.5458,-2.529,-2.4785,0.0,0.0,0.0,0.0,0.0,0.0,0.0,0.0,0.0,0.0,-2.8105,-2.835,-2.8718,-2.9,-2.885,-2.8143,-2.7172,0.0,-2.5387,-2.4909,-2.383,0.0,0.0,0.0,0.0,-2.5655,-2.6336,-2.5778,-2.5272,-2.4896,-2.2654,-2.0708,-1.9334,-1.7499,-1.5721,-1.4119,-1.3898,-1.316,-1.1778,-1.1822,-1.126,0.0,0.0,0.0,0.0,0.0,0.0,0.0,0.0,0.0,0.0,0.0,0.0,0.0,0.0,0.0,0.0,0.0,0.0,0.0,0.0,0.0,0.0,0.0,0.0,0.0,0.0,0.0,0.0,-1.613,-1.7344,-1.7676,-1.8368,-1.8677,0.0,0.0,0.0,0.0,0.0,0.0,-2.2787,-2.363,-2.4691,-2.5867,-2.6626,-2.7402,-2.8172,-2.8532,-2.8797,-2.9094,-2.9233,-2.9468,-2.9792,-2.9821,-2.992,-2.9932,-2.9969,-2.9957,-2.9852,-2.8163,-2.7072,-2.6362,-2.5902,-2.5431,-2.5139,-2.597,-2.6226,-2.6464,-2.7605,-2.7985,-2.7912,-2.7135,-2.6717,-2.6229,-2.4914,0.0,0.0,0.0,0.0,-2.6674,-2.8234,-2.8678,-2.8978,-2.9651,-2.9821,-2.9957,-2.9957,-2.9521,-2.8842,0.0,-2.7359,-2.6804,-2.576,0.0,0.0,0.0,0.0,-2.6044,-2.598,-2.5358,-2.4502,-2.3343,-2.0501,-1.8416,-1.8062,-1.5515,-1.3703,-1.3071,-1.3057,-1.2414,-1.0912,-1.1362,-1.1002,-0.9295,0.0,0.0,0.0,0.0,0.0,0.0,0.0,0.0,0.0,0.0,0.0,0.0,0.0,0.0,0.0,0.0,0.0,0.0,0.0,0.0,0.0,0.0,0.0,0.0,0.0,0.0,0.0,0.0,0.0,-2.0225,-2.0762,0.0,0.0,0.0,0.0,-2.2216,-2.3099,-2.4161,-2.5428,-2.6303,-2.7191,-2.8147,-2.8521,-2.8972,-2.9492,-2.9565,-2.9534,-2.9534,-2.9977,-3.018,-3.0131,-3.0587,-3.0859,-3.083,-3.0859,-3.0869,-3.0723,-2.9408,-2.8575,-2.8122,-2.7698,-2.7225,-2.6949,-2.7465,-2.7792,-2.8281,-2.8695,-2.883,-2.8965,-2.9785,-2.9422,-2.8655,-2.8134,-2.7467,0.0,0.0,-2.817,-2.8333,-2.9244,-2.9833,-3.0151,-3.0112,-3.0558,-3.0869,-3.0869,-3.0432,-2.9757,0.0,-2.7912,-2.7332,-2.6496,0.0,-2.6153,-2.5751,-2.6427,-2.6477,-2.5063,-2.4339,-2.3351,-2.1919,-1.8925,-1.6486,-1.4955,-1.3287,-1.1623,-1.0079,-1.0061,-0.9926,-0.9648,-0.9453,-0.9074,-0.8371,-0.8038,0.0,0.0,0.0,0.0,0.0,0.0,0.0,0.0,0.0,0.0,0.0,0.0,0.0,0.0,0.0,0.0,0.0,0.0,0.0,0.0,0.0,0.0,0.0,0.0,0.0,0.0,0.0,0.0,-2.1328,-2.2487,0.0,-2.2658,-2.3294,-2.4117,-2.4955,-2.552,-2.6814,-2.9023,-2.8542,-2.9032,-3.086,-3.1054,-3.1423,-3.1902,-3.2817,-3.3289,-3.3289,-3.3434,-3.2955,-3.2109,-3.3203,-3.2654,-3.0908,-3.1846,-3.1816,-3.0879,-3.0412,-2.9947,-2.9483,-2.9325,-2.9049,-2.8744,-2.9193,-2.9392,-2.9638,-2.9976,-3.0131,-3.0209,-3.0228,-2.986,-2.935,-2.9191,-2.8924,-2.8776,-2.9363,-2.9499,-2.9657,-3.0276,-3.0568,-3.0597,-3.0597,-3.0743,-3.0889,-3.0889,-3.0743,-3.0538,-3.0078,-2.9366,-2.8597,-2.7803,-2.7842,-2.7871,-2.7441,-2.7871,-2.7441,-2.5113,-2.47,-2.3029,-1.9338,-1.6958,-1.4991,-1.3181,-1.1519,-1.0281,-0.9696,-0.9598,-0.9493,-0.9398,-0.9239,-0.8964,-0.856,-0.8258,-0.7736,0.0,0.0,0.0,0.0,0.0,0.0,0.0,0.0,0.0,0.0,0.0,0.0,0.0,0.0,0.0,0.0,0.0,0.0,0.0,0.0,0.0,0.0,0.0,0.0,0.0,0.0,-2.21,-2.2676,-2.4094,-2.498,-2.466,-2.5465,-2.6285,-2.7191,-2.7496,-2.8574,-3.066,-3.0378,-3.0824,-3.2591,-3.3097,-3.3548,-3.3879,-3.4854,-3.5342,-3.5339,-3.5339,-3.488,-3.4177,-3.4988,-3.4354,-3.2661,-3.3073,-3.271,-3.181,-3.1446,-3.1161,-3.0827,-3.0538,-3.0267,-3.0102,-3.0286,-3.0432,-3.0441,-3.0743,-3.0889,-3.084,-3.0537,-3.0227,-3.0015,-3.0015,-2.9988,-3.0112,-3.0412,-3.0432,-3.0558,-3.0869,-3.0889,-3.0889,-3.0889,-3.0889,-3.0889,-3.0889,-3.0889,-3.0889,-3.0889,-3.0422,-2.9857,-2.9092,-2.917,-2.9209,-2.8789,-2.8965,-2.8089,-2.5219,-2.4903,-2.327,-1.8829,-1.631,-1.4503,-1.3282,-1.1025,-0.987,-1.0644,-1.0307,-1.0532,-1.136,-1.0763,-1.0135,-0.9374,-0.9157,-0.8943,-0.8706,0.0,0.0,0.0,0.0,0.0,0.0,0.0,0.0,0.0,0.0,0.0,0.0,0.0,0.0,0.0,0.0,0.0,0.0,0.0,0.0,0.0,0.0,0.0,-2.123,-2.2412,-2.3535,-2.4375,-2.5644,-2.6484,-2.6462,-2.7246,-2.8057,-2.8906,-2.8993,-2.9329,-3.0257,-3.165,-3.2631,-3.3213,-3.4599,-3.5384,-3.5385,-3.5511,-3.5504,-3.5489,-3.5489,-3.5781,-3.622,-3.5725,-3.567,-3.6036,-3.4519,-3.376,-3.3687,-3.2673,-3.2168,-3.209,-3.124,-3.0908,-3.0908,-3.0898,-3.0889,-3.0889,-3.0889,-3.0889,-3.0889,-3.0889,-3.0889,-3.0889,-3.0889,-3.0889,-3.0889,-3.0889,-3.0889,-3.0889,-3.0889,-3.0889,-3.0889,-3.0889,-3.0889,-3.0889,-3.0889,-3.0889,-3.0889,-3.0889,-3.0889,-3.0752,-3.0293,-3.0215,-3.0078,-2.9678,-2.9609,0.0,-2.5402,-2.4936,-2.3764,-2.0597,-1.7161,-1.5069,-1.5064,-1.1811,-1.0632,-1.2617,-1.1991,-1.2703,-1.5199,-1.3778,-1.2326,-1.0781,-1.0606,-1.1001,-1.2003,0.0,0.0,0.0,0.0,0.0,0.0,0.0,0.0,0.0,0.0,0.0,0.0,0.0,0.0,0.0,0.0,0.0,0.0,0.0,0.0,0.0,-2.169,-2.248,-2.2617,-2.374,-2.4863,-2.5742,-2.6982,-2.7773,-2.7803,-2.8524,-2.9307,-2.9823,-2.9795,-3.0522,-3.2256,-3.2737,-3.3412,-3.4662,-3.6511,-3.7475,-3.7441,-3.8899,-3.9695,-3.9597,-3.9597,-3.9177,-3.8337,-3.92,-3.8539,-3.6641,-3.6151,-3.5316,-3.4136,-3.2841,-3.2168,-3.2119,-3.1562,-3.1348,-3.1309,-3.1006,-3.0889,-3.0889,-3.0889,-3.0889,-3.0889,-3.0889,-3.0889,-3.0889,-3.0889,-3.0889,-3.0889,-3.0889,-3.0889,-3.0889,-3.0889,-3.0889,-3.0889,-3.0889,-3.0889,-3.0889,-3.0889,-3.0889,-3.0889,-3.0889,-3.0889,-3.085,-3.0723,-3.0703,-3.0664,-3.0547,-3.0527,0.0,-2.773,-2.6406,-2.4354,-2.0944,-1.8661,-1.6836,-1.5432,-1.4159,-1.3523,-1.3913,-1.3373,-1.3359,-1.4059,-1.3693,-1.3342,-1.3004,-1.2785,-1.3288,0.0,0.0,0.0,0.0,0.0,0.0,0.0,0.0,0.0,0.0,0.0,0.0,0.0,0.0,0.0,0.0,0.0,0.0,0.0,0.0,0.0,0.0,-2.3424,-2.4355,-2.4727,-2.541,-2.6211,-2.708,-2.7998,-2.8691,-2.9053,-2.9541,-2.999,-3.0496,-3.0512,-3.1267,-3.3053,-3.3916,-3.4986,-3.6546,-3.8546,-3.9521,-3.9516,-4.0669,-4.1322,-4.1342,-4.1342,-4.1003,-4.0413,-4.104,-4.0525,-3.9041,-3.8336,-3.7082,-3.5625,-3.4255,-3.3337,0.0,0.0,0.0,0.0,0.0,-3.1309,-3.1152,-3.1152,-3.1035,-3.0889,-3.0889,-3.0889,-3.0889,-3.0889,-3.0889,-3.0889,-3.0889,-3.0889,-3.0889,-3.0889,-3.0889,-3.0889,-3.0889,-3.0889,-3.0889,-3.0889,-3.0889,-3.0889,-3.0889,-3.0889,0.0,-3.1777,-3.1334,-3.0889,-3.0889,-3.0889,-3.0274,-2.8664,-2.6953,-2.4905,-2.2248,-1.9786,-1.7804,-1.6783,-1.5592,0.0,0.0,0.0,-1.5127,-1.5476,-1.5132,0.0,0.0,0.0,0.0,0.0,0.0,0.0,0.0,-2.2067,-2.3471,0.0,0.0,0.0,0.0,0.0,0.0,0.0,0.0,0.0,0.0,0.0,0.0,0.0,0.0,0.0,0.0,-2.4903,-2.6241,-2.7045,-2.7231,-2.7584,-2.8271,-2.8779,-2.9355,-3.0107,-3.0244,-3.0459,-3.1151,-3.1191,-3.1826,-3.341,0.0,0.0,0.0,0.0,-4.138,-4.1422,-4.1421,-4.1476,-4.1517,-4.1517,-4.1751,-4.2277,-4.1739,-4.1726,-4.2202,-4.0374,-3.8826,-3.7335,-3.6059,-3.4639,-3.334,-3.2549,-3.2207,-3.2168,-3.2168,-3.1924,-3.1592,-3.1592,0.0,0.0,-3.0957,-3.0928,-3.0889,-3.0889,-3.0889,-3.0889,-3.0889,-3.0889,-3.0889,-3.0889,-3.0889,-3.0889,-3.0889,-3.0889,-3.0889,-3.0889,-3.0889,-3.0889,-3.0889,-3.0889,-3.1334,-3.2644,-3.1767,-3.1005,-3.1112,-3.1005,-3.0392,-2.8911,-2.7323,-2.5741,-2.4301,0.0,0.0,-1.8906,-1.6965,-1.6321,-1.7637,-1.7283,-1.7371,-1.8127,-1.7372,-1.6942,-1.694,-1.764,-1.8132,-1.8508,-2.1811,-2.4006,-2.5219,-2.3712,-2.4611,0.0,0.0,0.0,0.0,0.0,0.0,0.0,0.0,0.0,0.0,0.0,0.0,0.0,0.0,0.0,-2.5595,-2.6668,-2.7492,-2.7933,-2.8605,-2.8963,-2.876,-2.9473,-2.998,-3.0201,-3.0498,-3.1268,-3.2611,-3.2641,-3.3451,-3.5412,-3.7043,-3.8191,-3.8871,-4.1004,-4.199,-4.2028,-4.245,-4.2698,-4.266,0.0,0.0,-4.2846,-4.2685,-4.2748,-4.2737,-3.9798,-3.828,-3.7827,-3.5057,-3.3623,-3.3369,-3.2871,-3.2471,-3.2168,-3.2168,-3.2119,-3.2041,-3.2041,-3.1758,-3.1396,-3.1396,-3.1162,-3.0889,-3.0889,-3.0889,0.0,-3.0889,-3.0889,-3.0889,-3.0889,-3.0889,-3.0889,-3.0889,-3.0889,-3.0889,-3.0889,-3.0889,-3.0889,-3.0889,-3.0889,-3.0995,-3.1334,-3.1112,-3.1334,-3.253,-3.1662,-3.0762,-3.0518,-2.892,-2.7811,-2.7452,-2.4585,-2.2594,-2.2594,-2.0785,-1.9646,-1.9663,-1.9331,-1.9331,-1.9459,-1.949,-1.9429,-1.9481,-2.0949,-2.1864,-2.2119,-2.41,-2.6041,-2.77,-2.7328,-2.8086,0.0,0.0,0.0,0.0,0.0,0.0,0.0,0.0,0.0,0.0,0.0,-2.2263,-2.3679,0.0,-2.5584,-2.718,-2.7774,-2.8236,-2.8864,-2.9519,-2.9759,-2.9528,-2.9921,-3.0325,-3.0564,-3.0732,-3.1513,-3.2957,-3.341,-3.4583,-3.7105,-3.8453,-3.9637,-4.067,-4.1867,-4.2588,-4.2588,-4.2924,-4.2974,-4.2974,-4.2974,-4.2974,-4.2974,-4.2974,-4.2974,-4.2924,-4.0398,-3.8987,-3.7963,-3.4736,-3.3418,-3.3398,-3.3193,-3.2978,-3.2793,-3.2793,-3.2666,-3.248,-3.248,-3.2197,-3.1807,-3.1592,-3.1377,-3.1162,-3.0957,-3.0889,-3.0889,-3.0889,-3.0889,-3.0889,-3.0889,-3.0889,-3.0889,-3.0889,-3.0889,-3.0889,-3.0889,-3.0889,-3.0889,-3.0889,-3.0889,-3.1112,-3.1872,-3.1441,-3.1112,-3.1872,-3.1988,-3.1767,-3.0995,-2.9403,-2.8417,-2.8417,-2.6236,-2.4778,-2.4778,-2.3022,-2.1456,-2.0461,-2.1004,-2.1306,-2.1306,-2.2296,-2.2939,-2.2939,-2.3813,-2.4466,-2.4519,-2.6201,-2.7498,-2.8426,-2.9489,-3.0211,0.0,0.0,0.0,0.0,0.0,0.0,0.0,0.0,-2.001,-2.1486,-2.3039,-2.4384,-2.5057,-2.6095,-2.7143,-2.8086,-2.8554,-2.8866,-2.959,-3.0108,-3.029,-3.029,-3.029,-3.0537,-3.083,-3.1191,-3.1983,-3.3589,-3.44,-3.5949,-3.8885,-3.9968,-4.1064,-4.2364,-4.2774,-4.2999,-4.3148,-4.2999,-4.2999,-4.3148,-4.2999,-4.2974,-4.2974,-4.3136,-4.3161,-4.3024,-4.11,-3.9243,-3.7234,-3.4462,-3.3418,-3.3418,-3.3418,-3.3418,-3.3418,-3.3418,-3.3203,-3.292,-3.292,-3.2637,-3.2236,-3.1885,-3.1709,-3.1562,-3.1143,-3.1016,-3.0996,-3.0918,-3.0889,-3.0889,-3.0889,-3.0889,-3.0889,-3.0889,-3.0889,-3.0889,-3.0889,-3.0889,-3.0889,-3.0889,-3.0889,-3.1334,-3.2416,-3.1872,-3.1334,-3.1334,-3.2092,-3.2197,-3.0995,-2.9776,-2.8911,-2.8911,-2.7443,-2.634,-2.5976,-2.4519,-2.3163,-2.1842,-2.2682,-2.3365,-2.3365,-2.4803,-2.5666,-2.5666,-2.6198,-2.6574,-2.6919,-2.85,-2.9502,-2.9922,-3.1633,-3.2195,-1.1176,-1.1683,-1.2573,-1.4258,-1.5628,-1.7122,0.0,0.0,-2.2436,-2.3787,-2.4766,-2.5523,-2.5648,-2.6963,-2.8166,-2.8261,-2.925,-3.0055,-3.017,-3.0568,-3.0878,-3.0878,-3.0878,-3.0791,-3.0879,-3.2129,-3.3609,-3.5594,-3.7049,-3.898,-4.1582,-4.1892,-4.2227,-4.2936,-4.2961,-4.3186,-4.3723,-4.3186,-4.3186,-4.3711,-4.3186,-4.2974,-4.2986,-4.351,-4.3723,-4.3538,-4.0462,-3.7463,-3.4462,-3.3759,-3.3418,-3.3418,-3.3418,-3.3418,-3.3418,-3.3418,-3.3389,-3.335,-3.335,-3.3076,-3.2715,-3.2666,-3.2402,-3.2012,-3.1582,-3.1445,-3.1367,-3.0996,-3.0889,-3.0889,-3.0889,-3.0889,-3.0889,-3.0889,-3.0889,-3.0889,-3.0889,-3.0889,-3.0889,-3.0889,-3.0889,-3.1005,-3.1112,-3.2092,-3.2861,-3.2861,-3.1872,-3.1112,-3.0889,-3.0762,-3.0635,-3.0635,-2.9157,-2.7563,-2.6098,-2.5822,-2.5554,-2.5432,-2.5521,-2.5618,-2.5618,-2.5902,-2.5918,-2.5918,-2.7417,-2.8728,-3.0064,-3.1761,-3.3483,-3.5241,-3.5431,-3.4897,-1.374,-1.4345,-1.483,0.0,-1.8271,-1.9706,-2.0666,-2.2274,-2.3797,-2.4655,-2.5648,-2.651,-2.6448,-2.7653,-2.8694,0.0,-2.9646,-3.0344,-3.0616,-3.0743,-3.0752,-3.0568,-3.1503,-3.1836,-3.1025,-3.2286,-3.3936,-3.5904,-3.7772,-3.9795,-4.2128,-4.255,-4.2936,-4.3498,-4.351,-4.3723,-4.4288,-4.4051,-4.4051,-4.4288,-4.4087,-4.3924,-4.3924,-4.4138,-4.3262,-4.1293,-3.9653,-3.7177,-3.409,-3.3593,-3.3418,-3.3418,-3.3418,-3.3418,-3.3418,-3.3418,-3.3418,-3.3418,-3.3418,-3.331,-3.3115,-3.2871,-3.2676,-3.2402,-3.1719,-3.1514,-3.1435,-3.1006,-3.0889,-3.0889,-3.0889,-3.0889,-3.0889,-3.0889,-3.0889,-3.0889,-3.0889,-3.0889,-3.0889,-3.0889,-3.0889,-3.0889,-3.0889,-3.1441,-3.1767,-3.1767,-3.1988,-3.1872,-3.1005,-3.0889,-3.0889,-3.0889,-3.0274,-2.9166,-2.7563,-2.7443,-2.6953,-2.6098,-2.6832,-2.7443,-2.7443,-2.9183,-3.0112,-3.0112,-3.1616,-3.2757,-3.3311,-3.4047,-3.499,-3.6151,-3.6308,-3.6827,-1.5749,0.0,0.0,-1.8616,-2.0114,-2.1383,-2.1699,-2.3176,-2.4539,-2.5154,-2.6074,-2.6913,-2.6997,-2.8019,-2.9015,-2.9536,-3.0102,-3.0558,-3.0879,-3.0743,-3.0743,-3.1025,-3.2164,-3.2727,-3.221,-3.3477,-3.5073,-3.6841,-3.8659,-4.0522,-4.2364,-4.2774,-4.331,-4.3749,-4.3778,-4.4105,-4.4852,-4.4699,-4.4699,-4.4865,-4.4675,-4.4637,-4.4649,-4.4827,-4.318,-4.0106,-3.9558,-3.7544,-3.4432,-3.3778,-3.3593,-3.3593,-3.3437,-3.3418,-3.3418,-3.3418,-3.3418,-3.3418,-3.3418,-3.3418,-3.3369,-3.3066,-3.2969,-3.2832,-3.209,-3.1787,-3.1611,-3.1182,-3.0986,-3.0889,-3.0889,-3.0889,-3.0889,-3.0889,-3.0889,-3.0889,-3.0889,-3.0889,-3.0889,-3.0889,-3.0889,-3.0889,-3.0889,-3.0889,-3.0889,-3.0889,-3.1767,-3.2092,-3.0995,-3.0889,-3.0889,-3.0889,-3.0889,-3.0616,-2.971,-2.97,-2.931,-2.8664,-2.9644,-3.0247,-3.0247,-3.2458,-3.3744,-3.3744,-3.4736,-3.5508,-3.5945,-3.5945,-3.6495,-3.7583,-3.7831,-3.9042,0.0,0.0,-1.8554,-1.968,-2.0595,-2.1509,-2.2405,-2.3555,-2.4676,-2.546,-2.6112,-2.6537,-2.6882,-2.8019,-2.9015,-2.9536,-3.0286,-3.0889,-3.0889,-3.0558,-3.0898,-3.2789,-3.2611,-3.3153,-3.504,-3.6475,-3.7802,-3.8914,-4.0424,-4.1793,-4.2936,-4.2974,-4.331,-4.3749,-4.3857,-4.4375,-4.5432,-4.4873,-4.4873,-4.5432,-4.4836,-4.4605,-4.4605,-4.52,-4.3868,-4.108,-4.0672,-3.8486,-3.5306,-3.4442,-3.41,-3.409,-3.3593,-3.3418,-3.3418,-3.3418,-3.3418,-3.3418,-3.3418,-3.3418,-3.3418,-3.3408,-3.3408,-3.332,-3.2891,-3.2471,-3.206,-3.1621,-3.1201,-3.0889,-3.0889,-3.0889,-3.0889,-3.0889,-3.0889,-3.0889,-3.0889,-3.0889,-3.0889,-3.0889,-3.0889,-3.0889,-3.0889,-3.0889,-3.0889,-3.0889,-3.0889,-3.1005,-3.0898,-3.0889,-3.0889,-3.0889,-3.0889,-3.1441,-3.2851,-3.2954,-3.3508,-3.4947,-3.5057,-3.5068,-3.5068,-3.5178,-3.5189,-3.5189,-3.53,-3.6054,-3.7465,-3.7465,-3.8669,-4.1089,-4.1101,-4.1798,-1.874,0.0,-2.081,-2.2152,-2.2929,-2.3509,-2.4145,-2.4571,-2.4915,-2.5237,-2.5625,-2.5937,-2.6106,-2.7243,-2.8295,-2.9066,-2.9821,-3.0568,-3.0879,-3.0743,-3.0743,-3.1181,-3.305,0.0,-3.4843,0.0,0.0,-3.8984,-4.0489,-4.1818,-4.2949,-4.3379,-4.3789,-4.4364,-4.4722,-4.5287,-4.608,-4.5872,-4.5872,-4.608,-4.5872,-4.5714,-4.5714,-4.5922,-4.4291,-4.1213,-4.0683,-3.8605,-3.5392,-3.4428,-3.41,-3.409,-3.3593,-3.3418,-3.3418,-3.3418,-3.3418,-3.3418,-3.3418,-3.3418,-3.3418,-3.3418,-3.3418,-3.334,-3.292,-3.25,-3.208,-3.1641,-3.1211,-3.0957,-3.123,-3.1103,-3.0957,-3.124,-3.1094,-3.0889,-3.0889,-3.0889,-3.0889,-3.0889,-3.0889,-3.0889,-3.0889,-3.0889,-3.0889,-3.0889,-3.0889,-3.0889,-3.0889,-3.1767,-3.2311,-3.2311,-3.3201,-3.3979,-3.4526,-3.4515,-3.4736,-3.5288,-3.5288,-3.5288,-3.5288,-3.6271,-3.6703,-3.6703,-3.7701,-3.8648,-3.9451,-3.9451,-4.0339,-4.1882,-4.1882,-4.2271,-2.0321,-2.1493,-2.2349,-2.368,-2.4202,-2.4506,-2.4992,-2.4987,-2.4923,-2.5054,-2.5217,-2.5295,-2.5446,-2.6339,-2.7381,-2.8501,-2.9268,-2.9976,-3.0743,-3.0743,-3.0752,-3.12,-3.369,-3.5548,0.0,0.0,0.0,-3.9782,-4.0917,-4.2016,-4.2961,-4.3523,-4.4081,-4.4522,-4.5142,-4.5727,-4.6301,-4.6313,-4.6313,-4.6313,-4.6313,-4.6313,-4.6313,-4.6313,-4.4451,-4.1158,-4.0821,-3.8801,-3.5578,-3.4824,-3.4497,-3.4276,-3.3778,-3.3583,-3.3418,-3.3418,-3.3418,-3.3418,-3.3418,-3.3019,-3.2619,-3.3155,-3.3019,-3.2581,-3.2836,-3.2617,-3.2148,-3.2012,-3.1455,-3.1025,-3.1601,-3.1328,-3.0996,-3.1416,-3.1201,-3.0889,-3.0889,-3.0889,-3.0889,-3.0889,-3.0889,-3.0889,-3.0889,-3.0889,-3.0889,-3.0889,-3.1325,-3.1662,-3.1662,-3.253,-3.3293,-3.3856,-3.4736,-3.5508,-3.6054,-3.6054,-3.6271,-3.6823,-3.6834,-3.6834,-3.6834,-3.7808,-3.8243,-3.8243,-3.9432,-4.0162,-4.0513,-4.0714,-4.1279,-4.2158,-4.2359,-4.2635,-2.1271,-2.2353,-2.3379,-2.4256,-2.4443,-2.4552,-2.5043,-2.4746,-2.4594,-2.4938,-2.4657,-2.4488,-2.491,0.0,-2.6271,-2.8032,-2.8614,-2.9367,-3.0723,-3.0568,-3.0918,0.0,0.0,0.0,0.0,0.0,0.0,-4.0947,0.0,-4.2351,-4.2849,-4.3497,-4.4147,-4.4655,-4.5275,-4.5739,-4.6313,-4.6313,-4.6313,-4.6313,-4.6313,-4.6313,-4.6313,-4.6218,-4.4385,-4.119,-4.1087,-3.9166,-3.6016,-3.5617,-3.5171,-3.4699,-3.4306,-3.3808,-3.3447,-3.3428,-3.3292,-3.3292,-3.3292,-3.2228,-3.1038,-3.2629,-3.2091,-3.1166,-3.2756,-3.2718,-3.2285,-3.2685,-3.1904,-3.1143,-3.1982,-3.1582,-3.1064,-3.1484,-3.124,-3.0928,-3.0928,-3.0908,-3.0889,-3.0889,-3.0889,-3.0889,-3.1005,-3.1005,-3.1005,-3.1112,-3.2227,-3.3098,-3.3077,-3.318,-3.3856,-3.5288,-3.5508,-3.6054,-3.7465,-3.7571,-3.8243,-3.9581,-3.9697,-3.9697,-3.9697,-3.9697,-3.971,-3.9735,-4.0249,-4.0538,-4.0601,-4.1128,-4.1656,-4.2208,-4.276,-4.2999,-2.2312,-2.3634,-2.4657,-2.4842,-2.5184,-2.5322,-2.514,-2.5025,-2.4727,-2.4281,-2.4085,-2.4029,-2.4075,-2.4972,0.0,-2.7579,-2.8774,0.0,-3.0743,-3.1044,0.0,-3.1907,0.0,-3.4825,-3.5385,-3.6827,0.0,0.0,-3.9702,-4.0795,-4.1797,-4.3437,-4.4662,-4.5262,-4.5872,-4.613,-4.6313,-4.6313,-4.6313,-4.6313,-4.6313,-4.6313,-4.6205,-4.4969,-4.3159,-4.112,-3.9831,-3.8041,-3.5986,-3.5566,-3.5309,-3.5179,-3.4438,-3.4064,-3.3867,-3.3545,-3.2629,-3.1433,-3.1433,-3.1166,-3.0642,-2.9744,-3.0125,-3.09,-3.1304,-3.2005,-3.2656,-3.2764,-3.2334,-3.1963,-3.25,-3.2236,-3.1953,-3.2363,-3.1904,-3.1357,-3.1357,-3.1113,-3.0889,-3.0889,-3.0889,-3.1218,-3.2311,-3.1662,-3.1662,-3.3866,-3.393,-3.357,-3.3119,-3.5057,-3.6476,-3.6918,-3.7926,-3.8699,-3.9141,-3.9129,-3.9245,-3.9697,-3.9697,-3.9697,-3.9697,-3.9697,-3.9885,-4.03,-4.0438,-4.0927,-4.1743,-4.1882,-4.2233,-4.2785,-4.3338,-4.3376,-2.3595,-2.4512,-2.5149,-2.5352,-2.5381,-2.5353,-2.4859,-2.4526,-2.4111,-2.3382,-2.3233,0.0,-2.3036,-2.3977,0.0,0.0,0.0,0.0,-3.0422,-3.1069,-3.1503,0.0,-3.3397,0.0,-3.4777,-3.5983,-3.6731,0.0,-3.9082,-4.0715,-4.1425,-4.3678,-4.5135,-4.5522,-4.6005,-4.6313,-4.6313,-4.6313,-4.6313,-4.6313,-4.5502,-4.5122,-4.5045,-4.3425,-4.1607,-3.9994,0.0,-3.7581,-3.5996,-3.5693,-3.5603,-3.5367,-3.46,-3.4238,-3.4014,-3.2654,-3.1698,-3.0642,-2.9057,-2.841,-2.841,-2.8295,-2.8821,-2.9865,-3.0513,-3.1682,-3.2832,-3.3018,-3.2637,-3.2305,-3.291,-3.2627,-3.2275,-3.2695,-3.2139,-3.1514,-3.1514,-3.1182,-3.0947,-3.1133,-3.1878,-3.2789,-3.356,-3.356,-3.4136,-3.5804,-3.6151,-3.6105,-3.5725,-3.6951,-3.8059,-3.8384,-3.9245,-3.9798,-4.0036,-4.0061,-4.0162,-4.04,-4.0413,-4.0413,-4.0413,-4.0413,-4.0563,-4.0877,-4.1116,-4.1543,-4.2158,-4.2396,-4.2798,-4.335,-4.3903,-4.4003,-2.4692,-2.5149,-2.5251,-2.5615,-2.5373,-2.4927,-2.4439,-2.3702,-2.3044,-2.2562,0.0,-2.2516,-2.209,-2.3124,-2.4445,-2.5962,0.0,-2.8468,-3.0267,-3.1142,-3.1588,-3.1605,-3.3589,-3.4921,-3.5008,-3.5271,-3.5531,-3.5531,-3.8938,-4.1057,-4.1236,-4.3668,-4.5141,-4.4953,-4.5557,-4.5926,-4.5926,-4.5926,-4.5926,-4.5926,-4.417,-4.339,-4.331,-4.1663,-4.0028,-3.8615,-3.8418,0.0,-3.6016,-3.6016,-3.5801,-3.542,-3.4628,-3.4202,-3.3556,-3.134,-3.0245,-2.9717,-2.6565,-2.5383,-2.5383,-2.698,-2.7776,-2.8435,-2.9995,-3.1593,-3.2949,-3.332,-3.29,-3.25,-3.3232,-3.2881,-3.2422,-3.2793,-3.2266,-3.1689,-3.1689,-3.1357,-3.1172,-3.1533,-3.315,-3.4549,-3.4774,-3.5917,-3.7053,-3.7406,-3.8501,-3.9217,-3.9378,-3.8911,-3.8885,-3.9844,-3.9848,-4.0023,-4.0576,-4.0626,-4.0827,-4.1304,-4.1342,-4.1342,-4.1342,-4.1342,-4.1379,-4.1442,-4.1907,-4.2195,-4.2258,-4.2748,-4.3225,-4.3714,-4.433,-4.4581,-2.4653,-2.5307,-2.5615,-2.5713,-2.5373,-2.4871,-2.4065,-2.352,0.0,0.0,-2.2618,-2.3,-2.249,-2.3887,-2.5809,-2.8215,0.0,0.0,0.0,0.0,-3.207,0.0,0.0,0.0,0.0,0.0,0.0,0.0,0.0,-3.8991,-4.0059,-4.2225,-4.2902,-4.1937,-4.3434,-4.4115,-4.4115,-4.4115,-4.4115,-4.4115,-4.2489,-4.1644,-4.1572,-3.9801,-3.8914,-3.8479,-3.7099,0.0,-3.6016,-3.6016,-3.5976,-3.5685,-3.3382,-3.2496,-3.2208,-2.9602,-2.7759,-2.6306,-2.5644,-2.4588,-2.3393,-2.3659,-2.5786,-2.8303,-2.8558,-3.0873,-3.333,-3.3398,-3.332,-3.3242,-3.3379,-3.331,-3.3223,-3.3301,-3.2939,-3.2568,-3.2568,-3.2246,-3.1973,-3.2041,-3.3363,-3.4901,-3.6159,-3.6608,-3.7756,-4.0184,-4.0108,-4.0117,-4.0827,-4.0401,-4.0321,-4.1015,-4.0651,-4.0601,-4.1153,-4.1204,-4.1241,-4.1329,-4.1342,-4.1342,-4.1342,-4.1342,-4.1543,-4.1995,-4.2108,-4.2384,-4.2836,-4.2924,-4.3024,-4.3137,-4.4154,-4.438,-2.5039,-2.5555,-2.5742,-2.5742,-2.5227,-2.4526,-2.3663,0.0,0.0,0.0,-2.2907,-2.3686,-2.3466,0.0,0.0,0.0,0.0,0.0,0.0,0.0,0.0,0.0,0.0,0.0,0.0,0.0,0.0,0.0,0.0,-3.8187,-3.8825,-4.092,-4.1822,-4.117,-4.1947,-4.2454,-4.2454,-4.2454,-4.2454,-4.2328,-4.0655,-3.9899,-3.9769,-3.8088,-3.7183,-3.7183,-3.6413,0.0,-3.6016,-3.6016,-3.5451,-3.4387,-3.2938,-3.1611,-3.0266,-2.7971,-2.6468,-2.5383,-2.4452,-2.3665,-2.2859,-2.2859,-2.5256,-2.8172,-2.8172,-3.066,-3.3418,-3.3418,-3.3418,-3.3418,-3.3418,-3.3418,-3.3418,-3.3418,-3.3105,-3.2734,-3.2519,-3.248,-3.249,-3.249,-3.4658,-3.6684,-3.7401,-3.8907,-4.0531,-4.1951,-4.183,-4.1669,-4.2111,-4.1706,-4.1354,-4.1342,-4.1103,-4.1166,-4.1718,-4.1769,-4.1894,-4.2183,-4.2195,-4.2195,-4.2195,-4.2195,-4.2308,-4.2572,-4.2585,-4.271,-4.2974,-4.2974,-4.3275,-4.3853,-4.438,-4.4794,-2.5276,-2.5625,-2.5742,-2.5742,-2.4994,-2.4164,-2.3318,-2.3248,0.0,0.0,-2.3297,-2.4403,-2.4469,0.0,-2.6597,0.0,-2.8184,0.0,0.0,0.0,0.0,0.0,0.0,0.0,0.0,0.0,0.0,0.0,0.0,0.0,-3.8052,-3.9693,-4.0408,-4.0148,-4.0408,-4.0666,-4.0666,-4.0234,-4.0083,-3.9953,-3.7852,-3.6804,-3.6804,-3.5383,-3.4737,-3.4737,-3.4737,0.0,0.0,-3.4737,-3.3872,-3.2551,-3.16,-3.024,-2.8365,-2.6268,-2.5271,-2.4723,-2.3393,-2.2859,-2.2996,-2.34,-2.5651,-2.8172,-2.8172,-3.066,-3.3418,-3.3418,-3.3418,-3.3418,-3.3418,-3.3418,-3.3418,-3.3418,-3.3174,-3.2842,-3.251,-3.2695,-3.293,-3.293,-3.5818,-3.8223,-3.8223,-4.0834,-4.2974,-4.2974,-4.2974,-4.2974,-4.2974,-4.2597,-4.217,-4.1731,-4.158,-4.1731,-4.2283,-4.2333,-4.2522,-4.2949,-4.2974,-4.2974,-4.2974,-4.2974,-4.2974,-4.2974,-4.2974,-4.2974,-4.2974,-4.2974,-4.3489,-4.4455,-4.4568,-4.5171,-2.4707,-2.5373,-2.5742,-2.5742,-2.4994,-2.4164,-2.3417,0.0,0.0,-2.2165,-2.3584,-2.4948,-2.4966,-2.5811,-2.6995,-2.8515,0.0,-2.8806,0.0,0.0,0.0,0.0,0.0,0.0,0.0,0.0,0.0,0.0,0.0,0.0,-3.8402,-3.8708,-3.8088,-3.6539,-3.7955,-3.8861,-3.8861,-3.7135,-3.6271,-3.6137,-3.2767,-3.1,-3.1,-3.0876,-3.0876,-3.0876,-3.0876,-3.0876,0.0,-3.0876,-3.0734,-3.0418,-2.8365,-2.7188,-2.6591,-2.4379,-2.3397,-2.3133,-2.2996,-2.2859,-2.3126,-2.4723,-2.6581,-2.8172,-2.8172,-3.066,-3.3418,-3.3418,-3.3418,-3.3418,-3.3418,-3.3418,-3.3418,-3.3418,-3.3389,-3.335,-3.331,-3.334,-3.3359,-3.3359,-3.5918,-3.8223,-3.8223,-4.0834,-4.2974,-4.2974,-4.2974,-4.2974,-4.2974,-4.2936,-4.2886,-4.2836,-4.2384,-4.2308,-4.2848,-4.2898,-4.2924,-4.2974,-4.2974,-4.2974,-4.2974,-4.2974,-4.2974,-4.2974,-4.2974,-4.2974,-4.2974,-4.2974,-4.3288,-4.389,-4.4392,-4.4957,-2.4775,-2.5373,-2.5742,-2.5742,-2.4994,-2.4164,-2.3417,0.0,-2.3939,-2.3085,-2.4731,-2.6308,-2.5965,-2.6456,-2.7132,-2.7375,-2.7247,-2.7536,-2.8672,0.0,0.0,0.0,0.0,0.0,0.0,0.0,0.0,0.0,0.0,0.0,-3.3624,-3.3624,-3.3237,-3.2586,-3.3237,-3.3624,-3.3624,-3.2905,-3.248,-3.248,-3.0983,-3.031,-3.031,-3.031,-3.031,-3.031,-3.031,-2.9542,0.0,-2.8473,-2.716,-2.482,-2.3997,-2.3536,-2.3177,-2.2069,-2.2384,-2.3113,-2.2926,-2.2859,-2.3126,-2.4986,-2.6714,-2.8435,-2.9474,-3.1442,-3.3418,-3.3418,-3.3418,-3.3418,-3.3418,-3.3418,-3.3418,-3.3418,-3.3418,-3.3418,-3.3418,-3.3418,-3.3418,-3.3418,-3.5939,-3.8223,-3.8223,-4.0834,-4.2974,-4.2974,-4.2974,-4.2974,-4.2974,-4.2974,-4.2974,-4.2974,-4.2785,-4.2735,-4.2961,-4.2974,-4.2974,-4.2974,-4.2974,-4.2974,-4.2974,-4.2974,-4.2974,-4.2974,-4.2974,-4.3137,-4.3476,-4.3476,-4.3928,-4.4819,-4.5045,-4.5447,-2.4694,-2.517,-2.5499,-2.5499,-2.4975,-2.4164,0.0,-2.3815,-2.4158,-2.3607,-2.5034,-2.6377,-2.6245,-2.6576,-2.6645,0.0,-2.6322,-2.67,-2.7061,-2.8211,0.0,0.0,0.0,0.0,0.0,0.0,0.0,0.0,0.0,0.0,-3.031,-2.9179,-2.9179,-3.031,-3.031,-3.031,-3.031,-2.9749,-2.9464,-2.9464,-2.89,-2.8613,-2.8613,-2.8613,-2.8303,-2.7697,-2.7697,0.0,0.0,-2.4668,-2.3062,-2.0579,-2.0579,-2.0478,-2.0303,-2.0717,-2.1515,-2.2544,-2.2961,-2.3399,-2.405,-2.5816,-2.7503,-2.9344,-3.1038,-3.2492,-3.3418,-3.3418,-3.3418,-3.3418,-3.3418,-3.3418,-3.3418,-3.3418,-3.3418,-3.3418,-3.3418,-3.3418,-3.3418,-3.3418,-3.5939,-3.8223,-3.8223,-4.0834,-4.2974,-4.2974,-4.2974,-4.2974,-4.2974,-4.2974,-4.2974,-4.2974,-4.2974,-4.2974,-4.2974,-4.2974,-4.2974,-4.2974,-4.2974,-4.2974,-4.2974,-4.2974,-4.2974,-4.2974,-4.3137,-4.3413,-4.3802,-4.3966,-4.4543,-4.5485,-4.5485,-4.5786,-2.4199,-2.4716,-2.5111,-2.5111,-2.4733,-2.4164,0.0,-2.3248,-2.3275,-2.3305,-2.3824,-2.4472,-2.5417,-2.5611,-2.5403,-2.4908,-2.5889,-2.6649,-2.6431,-2.8264,0.0,0.0,0.0,0.0,0.0,0.0,0.0,0.0,0.0,0.0,-3.031,-2.6772,-2.6342,-3.0168,-3.031,-3.031,-3.031,-2.8485,-2.7505,-2.7505,-2.5639,-2.4636,-2.4636,-2.4636,-2.3568,-2.1745,0.0,0.0,0.0,-1.8718,-1.8718,-1.8572,-1.8572,-1.8436,-1.8387,-2.0467,-2.1049,-2.0935,-2.2698,-2.4531,-2.6224,-2.7757,-2.9344,-3.1038,-3.2892,-3.3428,-3.3418,-3.3418,-3.3418,-3.3418,-3.3418,-3.3418,-3.3418,-3.3418,-3.3418,-3.3418,-3.3418,-3.3418,-3.3418,-3.3418,-3.5939,-3.8223,-3.8223,-4.0834,-4.2974,-4.2974,-4.2974,-4.2974,-4.2974,-4.2974,-4.2974,-4.2974,-4.2974,-4.2974,-4.2974,-4.2974,-4.2974,-4.2974,-4.2974,-4.2974,-4.2974,-4.2974,-4.2974,-4.2974,-4.3514,-4.379,-4.3802,-4.4355,-4.492,-4.5485,-4.5485,-4.5786,-2.3015,-2.3644,-2.4105,-2.3846,-2.3627,-2.3352,-2.2813,-2.3292,-2.366,-2.334,-2.4257,-2.5027,-2.463,-2.4781,-2.5057,-2.5047,-2.5315,0.0,0.0,0.0,0.0,0.0,0.0,0.0,0.0,0.0,0.0,0.0,0.0,0.0,-2.8477,-2.5925,-2.5205,-2.6342,-2.6342,-2.6342,-2.6342,-2.5779,-2.5499,-2.5499,-2.4924,-2.4636,-2.4636,-2.4636,-2.4179,0.0,0.0,0.0,0.0,-1.7056,-1.5693,-1.4479,-1.4479,-1.5201,-1.6491,-1.8443,-1.9975,-2.1329,-2.2775,-2.4538,-2.6224,-2.7757,-2.9344,-3.1166,-3.2892,-3.3418,-3.3418,-3.3418,-3.3418,-3.3418,-3.3418,-3.3418,-3.3418,-3.3418,-3.3418,-3.3418,-3.3418,-3.3418,-3.3786,-3.485,-3.6781,-3.858,-3.9639,-4.1545,-4.2974,-4.2974,-4.2974,-4.2974,-4.2974,-4.2974,-4.2974,-4.2974,-4.2974,-4.2974,-4.2974,-4.2974,-4.2974,-4.2974,-4.2974,-4.2974,-4.2974,-4.2974,-4.2974,-4.2974,-4.3526,-4.3991,-4.4367,-4.4932,-4.5497,-4.605,-4.605,-4.615,0.0,-2.2882,-2.3304,-2.3194,-2.3095,-2.3028,-2.2776,-2.3047,-2.3411,-2.3217,-2.3883,-2.423,-2.374,-2.3964,-2.421,-2.4328,-2.4785,0.0,0.0,0.0,0.0,0.0,0.0,0.0,0.0,0.0,0.0,0.0,0.0,0.0,-2.8613,-2.6779,-2.5352,-2.4636,-2.4636,-2.4636,-2.4636,-2.4636,-2.4636,-2.4636,-2.4636,-2.4576,-2.4476,-2.4476,-2.4022,0.0,0.0,0.0,0.0,-1.5238,-1.3564,-1.2501,-1.2501,-1.3718,-1.5675,-1.7665,-1.9564,-2.1585,-2.3782,-2.5732,-2.7642,-2.8759,-3.049,-3.2197,-3.327,-3.3555,-3.3418,-3.3418,-3.3418,-3.3418,-3.3418,-3.3418,-3.3418,-3.3418,-3.3418,-3.3418,-3.3418,-3.3902,-3.4612,-3.556,-3.7604,-3.9405,-4.0476,-4.1899,-4.2974,-4.2974,-4.2974,-4.2974,-4.2974,-4.2974,-4.2974,-4.2974,-4.2974,-4.2974,-4.2974,-4.2974,-4.2974,-4.2974,-4.2974,-4.2974,-4.2974,-4.2974,-4.3074,-4.3288,-4.3827,-4.4392,-4.4945,-4.5522,-4.5974,-4.6313,-4.6313,-4.6313,0.0,-2.2381,-2.247,-2.2808,-2.2903,-2.3005,-2.3014,-2.2795,0.0,-2.3028,-2.2804,-2.2658,-2.3113,-2.3095,-2.3164,-2.335,-2.4432,0.0,0.0,0.0,0.0,0.0,0.0,0.0,0.0,0.0,0.0,0.0,0.0,0.0,-3.0543,-2.8613,-2.6634,-2.4743,-2.4623,-2.4636,-2.4636,-2.4636,-2.4636,-2.4636,-2.4616,-2.4462,-2.4202,-2.4182,-2.3139,0.0,0.0,0.0,0.0,-1.3718,-1.2958,-1.2958,-1.2958,-1.4022,-1.5994,-1.8113,-2.008,-2.2256,-2.5321,-2.7974,-3.0023,-3.0829,-3.2448,-3.4111,-3.4082,-3.3789,-3.3457,-3.3428,-3.3418,-3.3418,-3.3418,-3.3447,-3.3457,-3.3428,-3.3447,-3.3457,-3.3544,-3.4736,-3.5918,-3.604,-3.8557,-4.0592,-4.0707,-4.2024,-4.2986,-4.3024,-4.3037,-4.3037,-4.3037,-4.3074,-4.3062,-4.2986,-4.3011,-4.3024,-4.2974,-4.2974,-4.2999,-4.3037,-4.2999,-4.3011,-4.3087,-4.3062,-4.33,-4.3853,-4.4405,-4.497,-4.5547,-4.6062,-4.618,-4.618,-4.618,-4.618,-2.1007,0.0,-2.1484,-2.1268,-2.1442,-2.1741,0.0,-2.2339,0.0,0.0,0.0,-2.3229,-2.3971,-2.3561,-2.3732,-2.5745,0.0,0.0,0.0,0.0,0.0,0.0,0.0,0.0,0.0,0.0,0.0,0.0,0.0,-3.2887,-3.2023,-2.9194,-2.7097,-2.6257,-2.5222,-2.4636,-2.4636,-2.4636,-2.4636,-2.4636,-2.4409,-2.4269,-2.4195,-2.3975,-2.37,0.0,0.0,0.0,-2.008,-1.7962,-1.7208,-1.7208,-1.7208,-1.7512,-1.8113,-2.0085,-2.215,-2.3989,-2.612,-2.9002,-3.2058,-3.3379,-3.4192,-3.4492,-3.417,-3.4004,-3.3848,-3.3516,-3.3418,-3.3418,-3.3418,-3.3672,-3.3838,-3.3496,-3.3672,-3.4191,-3.5046,-3.556,-3.6517,-3.903,-4.0117,-4.0949,-4.2263,-4.2737,-4.3124,-4.3539,-4.3601,-4.3601,-4.3601,-4.3978,-4.3915,-4.3074,-4.3363,-4.3438,-4.3011,-4.2974,-4.3162,-4.3576,-4.3212,-4.3363,-4.4204,-4.3827,-4.3865,-4.4418,-4.4995,-4.556,-4.6125,-4.625,-4.5659,-4.4362,-4.5659,-4.5537,-2.0566,-2.1073,-2.1504,-2.1494,-2.1763,-2.2224,-2.2688,0.0,0.0,0.0,0.0,0.0,-2.3699,0.0,0.0,0.0,0.0,0.0,0.0,0.0,0.0,0.0,0.0,0.0,0.0,0.0,0.0,0.0,0.0,-3.3992,-3.2854,-3.0912,-2.9284,-2.8099,-2.7154,-2.5912,-2.4636,-2.4636,-2.4569,-2.4436,-2.4282,-2.448,-2.5038,-2.501,-2.5639,0.0,0.0,0.0,-2.4009,-2.2054,-2.0728,-2.0009,-2.0871,-2.1181,-2.1519,-2.3427,-2.5472,-2.7333,-2.9031,-3.133,-3.3697,-3.4968,-3.5176,-3.4941,-3.4492,-3.4512,-3.4502,-3.3662,-3.3418,-3.3418,-3.3418,-3.375,-3.4014,-3.3779,-3.4664,-3.5779,-3.6373,-3.7664,-3.9247,-4.1082,-4.1926,-4.2762,-4.3601,-4.3727,-4.3827,-4.4129,-4.4179,-4.4091,-4.3827,-4.4279,-4.4292,-4.3451,-4.3627,-4.3777,-4.374,-4.3501,-4.3476,-4.3777,-4.3526,-4.374,-4.4593,-4.433,-4.4443,-4.5008,-4.5585,-4.6012,-4.6313,-4.6313,-4.5793,-4.489,-4.5013,-4.5013,-2.0732,-2.142,-2.2145,-2.2269,-2.27,-2.3193,0.0,0.0,0.0,0.0,0.0,0.0,0.0,0.0,0.0,0.0,0.0,0.0,0.0,0.0,0.0,0.0,0.0,0.0,0.0,0.0,0.0,0.0,0.0,-3.5275,-3.3651,-3.2956,-3.1771,-3.0123,-2.9501,-2.8006,-2.5416,-2.5375,-2.5229,-2.4973,-2.4925,-2.5483,-2.6497,-2.6855,-2.7838,-2.919,0.0,0.0,-2.7568,-2.5919,-2.4183,-2.2903,-2.4613,-2.5236,-2.5465,-2.716,-2.9067,-3.0975,-3.2498,-3.3829,-3.5029,-3.5781,-3.5781,-3.54,-3.4941,-3.5078,-3.5146,-3.3955,-3.3623,-3.3623,-3.3623,-3.3945,-3.4377,-3.4556,-3.5973,-3.753,-3.7952,-4.0307,-4.2317,-4.2556,-4.3647,-4.4618,-4.4618,-4.4618,-4.4656,-4.4744,-4.4756,-4.4581,-4.4116,-4.4543,-4.4631,-4.4003,-4.4003,-4.4217,-4.4593,-4.4192,-4.3966,-4.4053,-4.3978,-4.4179,-4.4731,-4.4832,-4.5108,-4.5598,-4.6075,-4.6313,-4.6313,-4.6313,-4.618,-4.5926,-4.4374,-4.441,-2.1475,-2.2294,-2.2656,-2.1667,-2.2017,-2.2609,0.0,0.0,0.0,0.0,0.0,0.0,0.0,0.0,0.0,0.0,0.0,0.0,0.0,0.0,0.0,0.0,0.0,0.0,0.0,0.0,0.0,0.0,0.0,-3.5724,-3.5085,-3.3779,-3.2627,-3.1549,-3.0561,-2.9772,-2.8882,-2.8587,-2.8273,-2.8217,-2.806,-2.8157,-2.8736,-2.8492,-2.8976,-2.9829,0.0,-2.9525,-2.9851,-2.9542,-2.925,-2.8964,-2.925,-2.9408,-2.9424,-2.9709,-3.1141,-3.3013,-3.4798,-3.5588,-3.584,-3.5976,-3.5976,-3.584,-3.542,-3.5332,-3.5273,-3.4668,-3.4502,-3.4502,-3.4502,-3.4844,-3.5475,-3.6562,-3.7325,-3.8445,-4.1034,-4.1933,-4.2675,-4.4011,-4.4386,-4.4618,-4.4618,-4.4618,-4.4782,-4.5284,-4.5359,-4.5321,-4.5246,-4.5711,-4.5648,-4.4606,-4.4932,-4.5058,-4.4656,-4.4543,-4.4706,-4.5196,-4.4769,-4.4756,-4.5334,-4.5799,-4.6087,-4.6188,-4.6276,-4.6313,-4.6313,-4.6313,-4.5537,-4.4115,-4.3843,-4.3318,-2.1064,-2.1991,-2.2673,-2.2067,-2.3063,-2.4278,0.0,0.0,0.0,0.0,0.0,0.0,0.0,0.0,0.0,0.0,0.0,0.0,0.0,0.0,0.0,0.0,0.0,0.0,0.0,0.0,0.0,0.0,0.0,0.0,-3.54,-3.4728,-3.4237,-3.385,-3.3136,-3.2557,-3.2376,-3.2195,-3.1243,-2.9525,-2.9162,-2.9623,-3.075,-3.0911,-3.1673,-3.2866,0.0,-3.3275,-3.3448,-3.3448,-3.2735,-3.2018,-3.3013,-3.2735,-3.2018,-3.3022,-3.4011,-3.4874,-3.5733,-3.6016,-3.6016,-3.6016,-3.6016,-3.5937,-3.5517,-3.5557,-3.5635,-3.5195,-3.4892,-3.4697,-3.4697,-3.5659,-3.684,-3.7503,-3.9322,-4.1399,-4.2808,-4.3784,-4.4664,-4.5404,-4.5535,-4.5535,-4.5535,-4.5535,-4.5623,-4.5886,-4.5937,-4.5824,-4.5535,-4.5974,-4.5999,-4.5171,-4.5334,-4.5497,-4.5535,-4.5259,-4.5196,-4.5472,-4.5522,-4.5648,-4.5924,-4.6175,-4.6313,-4.6313,-4.6313,-4.6313,-4.6313,-4.6313,-4.5926,-4.5135,-4.4115,-4.4004,-2.082,-2.168,-2.2559,-2.2764,0.0,0.0,0.0,0.0,0.0,0.0,0.0,0.0,0.0,0.0,0.0,0.0,0.0,0.0,0.0,0.0,0.0,0.0,0.0,0.0,0.0,0.0,0.0,0.0,0.0,0.0,-3.5234,-3.5332,-3.5342,-3.5234,-3.5088,-3.4961,-3.4863,-3.4863,-3.3594,-3.1029,-3.0599,-3.1334,-3.2832,-3.3136,-3.4171,-3.5557,-3.5879,-3.6016,-3.6016,-3.6016,-3.5158,-3.402,-3.5451,-3.5158,-3.402,-3.5451,-3.6016,-3.6016,-3.6016,-3.6016,-3.6016,-3.6016,-3.6016,-3.5957,-3.5635,-3.5762,-3.5957,-3.5635,-3.554,-3.5639,-3.5639,-3.6779,-3.8322,-3.9077,-4.1513,-4.3855,-4.4239,-4.5403,-4.6313,-4.6313,-4.6313,-4.6313,-4.6313,-4.6313,-4.6313,-4.6313,-4.6313,-4.615,-4.5736,-4.605,-4.615,-4.5723,-4.5686,-4.5849,-4.6276,-4.5924,-4.5686,-4.5686,-4.6075,-4.6313,-4.6313,-4.6313,-4.6059,-4.5671,-4.6047,-4.6059,-4.5659,-4.6184,-4.6502,-4.6502,-4.4812,-4.5025,-2.1572,-2.2139,-2.2705,-2.3496,0.0,0.0,0.0,0.0,0.0,0.0,0.0,0.0,0.0,0.0,0.0,0.0,0.0,0.0,0.0,0.0,0.0,0.0,0.0,0.0,0.0,0.0,0.0,0.0,0.0,0.0,-3.4746,-3.5156,-3.5195,-3.4766,-3.5517,-3.5742,-3.5342,-3.5342,-3.5004,-3.4332,-3.4303,-3.4648,-3.5208,-3.5237,-3.5461,-3.5976,-3.6006,-3.6016,-3.6016,-3.6016,-3.5879,-3.5879,-3.6016,-3.5879,-3.5879,-3.6016,-3.6016,-3.6016,-3.6016,-3.6016,-3.6016,-3.6016,-3.6016,-3.6016,-3.5986,-3.5996,-3.6016,-3.5986,-3.7112,-3.8371,-3.8371,-3.8392,-3.9323,-4.2511,-4.3446,-4.4115,-4.5793,-4.618,-4.6313,-4.6313,-4.6313,-4.6313,-4.6313,-4.6313,-4.6313,-4.6313,-4.6313,-4.6301,-4.625,-4.6288,-4.6301,-4.625,-4.625,-4.6276,-4.6313,-4.6276,-4.625,-4.625,-4.6288,-4.6313,-4.6313,-4.6313,-4.5537,-4.3979,-4.5537,-4.5525,-4.3855,-4.6032,-4.7079,-4.6957,-4.5857,-4.5584,-2.0977,-2.1973,0.0,0.0,0.0,0.0,0.0,0.0,0.0,0.0,0.0,0.0,0.0,0.0,0.0,0.0,0.0,0.0,0.0,0.0,0.0,0.0,0.0,0.0,0.0,0.0,0.0,0.0,0.0,0.0,-3.4316,-3.4726,-3.4883,-3.4707,-3.5303,-3.5557,-3.5391,-3.5654,-3.5693,-3.5517,-3.5254,-3.5361,-3.5781,-3.5781,-3.5869,-3.6016,-3.6016,-3.6016,-3.6016,-3.6016,-3.6016,-3.6016,-3.6016,-3.6016,-3.6016,-3.6016,-3.6016,-3.6016,-3.6016,-3.6016,-3.6016,-3.6016,-3.6016,-3.6016,-3.6016,-3.6016,-3.6278,-3.7317,-3.8088,-3.8608,-3.8608,-4.0148,-4.2063,-4.3345,-4.4497,-4.5537,-4.618,-4.6313,-4.6313,-4.6313,-4.6313,-4.6313,-4.6313,-4.6313,-4.6313,-4.6313,-4.6313,-4.6313,-4.6313,-4.6313,-4.6313,-4.6313,-4.6313,-4.6313,-4.6313,-4.6313,-4.6313,-4.6313,-4.6313,-4.6313,-4.6313,-4.5269,-4.4362,-4.3719,-4.4374,-4.4362,-4.3731,-4.5946,-4.7129,-4.7154,-4.7009,-4.7289,-2.0781,-2.1846,-2.2949,0.0,0.0,0.0,0.0,0.0,0.0,0.0,0.0,0.0,0.0,0.0,0.0,0.0,0.0,0.0,0.0,0.0,0.0,0.0,0.0,0.0,0.0,0.0,0.0,0.0,0.0,0.0,0.0,-3.4267,-3.4502,-3.4502,-3.4941,-3.5176,-3.5176,-3.5605,-3.582,-3.582,-3.5664,-3.5742,-3.6016,-3.6016,-3.6016,-3.6016,-3.6016,-3.6016,-3.6016,-3.6016,-3.6016,-3.6016,-3.6016,-3.6016,-3.6016,-3.6016,-3.6016,-3.6016,-3.6016,-3.6016,-3.6016,-3.6016,-3.6016,-3.6016,-3.6016,-3.6403,-3.7059,-3.821,-3.9376,-4.0267,-4.0267,-4.1936,-4.3855,-4.4374,-4.5403,-4.6313,-4.6313,-4.6313,-4.6313,-4.6313,-4.6313,-4.6313,-4.6313,-4.6313,-4.6313,-4.6313,-4.6313,-4.6313,-4.6313,-4.6313,-4.6313,-4.6313,-4.6313,-4.6313,-4.6313,-4.6313,-4.6313,-4.6313,-4.5793,-4.5537,-4.5537,-4.4362,-4.3208,-4.2063,-4.3208,-4.347,-4.2969,-4.5699,-4.7217,-4.7393,-4.792,-4.8485,-2.123,-2.1865,0.0,0.0,0.0,0.0,0.0,0.0,0.0,0.0,0.0,0.0,0.0,0.0,0.0,0.0,0.0,0.0,0.0,0.0,0.0,0.0,0.0,0.0,0.0,0.0,0.0,0.0,0.0,0.0,0.0,-3.3828,-3.4062,-3.4062,-3.4473,-3.4687,-3.4687,-3.5156,-3.5391,-3.54,-3.582,-3.6016,-3.6016,-3.6016,-3.6016,-3.6016,-3.6016,-3.6016,-3.6016,-3.6016,-3.6016,-3.6016,-3.6016,-3.6016,-3.6016,-3.6016,-3.6016,-3.6016,-3.6016,-3.6016,-3.6016,-3.6016,-3.6016,-3.6016,-3.6025,-3.7183,-3.8608,-3.8597,-4.103,-4.3719,-4.3731,-4.3719,-4.4115,-4.5914,-4.6313,-4.6313,-4.6313,-4.6313,-4.6313,-4.6313,-4.6313,-4.6313,-4.6313,-4.6313,-4.6313,-4.6313,-4.6313,-4.6313,-4.6313,-4.6313,-4.6313,-4.6313,-4.6313,-4.6313,-4.6313,-4.6313,-4.6313,-4.6313,-4.4632,-4.3719,-4.3719,-4.3719,-4.2063,-3.8729,-4.1936,-4.2832,-4.1181,-4.5178,-4.7393,-4.792,-4.8498,-4.9063,-2.1318,-2.251,0.0,0.0,0.0,0.0,0.0,0.0,0.0,0.0,0.0,0.0,0.0,0.0,0.0,0.0,0.0,0.0,0.0,0.0,0.0,0.0,0.0,0.0,0.0,0.0,0.0,0.0,0.0,0.0,0.0,-3.3545,-3.3613,-3.3613,-3.4033,-3.4258,-3.4258,-3.501,-3.5391,-3.54,-3.582,-3.6016,-3.6016,-3.6016,-3.6016,-3.6016,-3.6016,-3.6016,-3.6016,-3.6016,-3.6016,-3.6016,-3.6016,-3.6016,-3.6016,-3.6016,-3.6016,-3.6016,-3.6016,-3.6016,-3.6016,-3.6016,-3.6016,-3.6278,-3.7441,-3.8221,-3.9114,-4.1554,-4.2958,-4.3979,-4.5269,-4.5537,-4.5659,-4.618,-4.6313,-4.6313,-4.6313,-4.6313,-4.6313,-4.6313,-4.6313,-4.6313,-4.6313,-4.6313,-4.6313,-4.6313,-4.6313,-4.6313,-4.6313,-4.6313,-4.6313,-4.6313,-4.6313,-4.6313,-4.6313,-4.5147,-4.4497,-4.4497,-4.2844,-4.2454,-4.3595,-4.1426,-3.9627,-3.8608,-3.9627,-4.0526,-4.1181,-4.4014,-4.6042,-4.738,-4.8335,-4.8862,-2.2139,0.0,0.0,0.0,0.0,0.0,0.0,0.0,0.0,0.0,0.0,0.0,0.0,0.0,0.0,0.0,0.0,0.0,0.0,0.0,0.0,0.0,0.0,0.0,0.0,0.0,0.0,0.0,0.0,0.0,0.0,-3.3418,-3.3418,-3.3418,-3.3672,-3.3809,-3.3809,-3.4521,-3.4951,-3.5127,-3.5566,-3.5859,-3.6016,-3.6016,-3.6016,-3.6016,-3.6016,-3.6016,-3.6016,-3.6016,-3.6016,-3.6016,-3.6799,-3.7048,-3.7048,-3.7048,-3.7048,-3.6924,-3.6278,-3.6016,-3.6016,-3.6016,-3.6403,-3.7183,-3.821,-3.9497,-4.1041,-4.3083,-4.4239,-4.5013,-4.6047,-4.6313,-4.6313,-4.6313,-4.6313,-4.6313,-4.6313,-4.6313,-4.6313,-4.6313,-4.6313,-4.6313,-4.6313,-4.6313,-4.6313,-4.6313,-4.6313,-4.6313,-4.6313,-4.6313,-4.6313,-4.6313,-4.5659,-4.5281,-4.5281,-4.3731,-4.2706,-4.2706,-4.1041,-4.0666,-4.1681,-3.9627,-3.8221,-3.7575,-3.821,-3.9507,-4.1181,-4.3285,-4.5227,-4.7154,-4.7807,-4.836,0.0,0.0,0.0,0.0,0.0,0.0,0.0,0.0,0.0,0.0,0.0,0.0,0.0,0.0,0.0,0.0,0.0,0.0,0.0,0.0,0.0,0.0,0.0,0.0,0.0,0.0,0.0,0.0,0.0,0.0,0.0,-3.3418,-3.3418,-3.3418,-3.3418,-3.3418,-3.3418,-3.3857,-3.4267,-3.4648,-3.5107,-3.5527,-3.5908,-3.5986,-3.6016,-3.6016,-3.6016,-3.6016,-3.6016,-3.6142,-3.6258,-3.6354,-3.82,-3.884,-3.8798,-3.8851,-3.8861,-3.8608,-3.7059,-3.6403,-3.6403,-3.6403,-3.7575,-3.8861,-3.8993,-4.1298,-4.3731,-4.3855,-4.5025,-4.6313,-4.6313,-4.6313,-4.6313,-4.6313,-4.6313,-4.6313,-4.6313,-4.6313,-4.6313,-4.6313,-4.6313,-4.6313,-4.6313,-4.6313,-4.6313,-4.6313,-4.6313,-4.6313,-4.6313,-4.6313,-4.618,-4.6047,-4.4632,-4.3595,-4.347,-4.2074,-4.1181,-4.1181,-3.9507,-3.8729,-3.8861,-3.8476,-3.7698,-3.6278,-3.7832,-3.9507,-4.1437,-4.2958,-4.4875,-4.7067,-4.7117,-4.7694,0.0,0.0,0.0,0.0,0.0,0.0,0.0,0.0,0.0,0.0,0.0,0.0,0.0,0.0,0.0,0.0,0.0,0.0,0.0,0.0,0.0,0.0,0.0,0.0,0.0,0.0,0.0,0.0,0.0,0.0,-3.3418,-3.3418,-3.3418,-3.3418,-3.3418,-3.3418,-3.3418,-3.3857,-3.4121,0.0,-3.4639,-3.4892,-3.501,-3.5703,-3.6016,-3.6016,-3.6016,-3.6016,-3.6152,-3.7441,-3.7749,-3.7591,-3.9747,-4.0294,-3.9997,-4.0522,-4.0666,-4.0537,-4.0148,-4.0018,-4.0018,-4.0018,-4.0278,-4.0924,-4.219,-4.3083,-4.3979,-4.5403,-4.6047,-4.6313,-4.6313,-4.6313,-4.6313,-4.6313,-4.6313,-4.6313,-4.6313,-4.6313,-4.6313,-4.6313,-4.6313,-4.6313,-4.6313,-4.6313,-4.6313,-4.6313,-4.6313,-4.6313,-4.6313,-4.6313,-4.5793,-4.4374,-4.3979,-4.3208,-4.182,-4.1437,-4.1181,-4.1181,-3.9507,-3.9256,-4.0537,-3.7955,-3.7059,-3.7955,-3.8343,-4.0148,-4.322,-4.347,-4.4681,-4.6502,-4.6928,-4.7481,0.0,0.0,0.0,0.0,0.0,0.0,0.0,0.0,0.0,0.0,0.0,0.0,0.0,0.0,0.0,0.0,0.0,0.0,0.0,0.0,0.0,0.0,0.0,0.0,0.0,0.0,0.0,0.0,0.0,-3.3418,-3.3418,-3.3418,-3.3418,-3.3418,-3.3418,-3.3418,-3.3418,-3.3643,-3.3867,-3.4072,-3.4297,-3.4502,-3.4717,-3.5176,-3.5508,-3.5703,-3.5488,-3.5517,-3.5838,-3.6505,-3.703,-3.7611,-3.9743,-4.0955,-4.1591,-4.1867,-4.212,-4.2328,-4.1437,-4.1181,-4.1181,-4.1181,-4.1693,-4.258,-4.347,-4.4239,-4.5147,-4.6047,-4.6313,-4.6313,-4.6313,-4.6313,-4.6313,-4.6313,-4.6313,-4.6313,-4.6313,-4.6313,-4.6313,-4.6313,-4.6313,-4.6313,-4.6313,-4.6313,-4.6313,-4.6313,-4.6313,-4.6313,-4.6313,-4.6313,-4.5926,-4.5013,-4.347,-4.2454,-4.2454,-4.0924,-4.0278,-4.1181,-4.0408,-4.0278,-4.1181,-3.9507,-3.8861,-3.9899,-3.9888,-4.117,-4.3719,-4.3719,-4.4632,-4.6326,-4.6602,-4.7154,0.0,0.0,0.0,0.0,0.0,0.0,0.0,0.0,0.0,0.0,0.0,0.0,0.0,0.0,0.0,0.0,0.0,0.0,0.0,0.0,0.0,0.0,0.0,0.0,0.0,0.0,0.0,0.0,0.0,-3.3418,-3.3418,-3.3418,-3.3418,-3.3418,-3.3418,-3.3418,-3.3418,-3.3418,-3.3603,-3.3965,-3.3965,-3.4141,-3.4482,-3.4482,-3.4766,-3.5254,-3.4863,-3.4922,-3.5244,-3.549,-3.6285,-3.7603,-3.9657,-4.1626,-4.3072,-4.3264,-4.3599,-4.386,-4.2557,-4.2074,-4.2074,-4.2074,-4.2969,-4.4115,-4.4115,-4.5147,-4.6313,-4.6313,-4.6313,-4.6313,-4.6313,-4.6313,-4.6313,-4.6313,-4.6313,-4.6313,-4.6313,-4.6313,-4.6313,-4.6313,-4.6313,-4.6313,-4.6313,-4.6313,-4.6313,-4.6313,-4.6313,-4.6313,-4.6313,-4.6313,-4.618,-4.5914,-4.3357,-4.2074,-4.322,-4.0913,-4.0148,-4.1565,-4.1693,-4.182,-4.2074,-4.182,-4.182,-4.2074,-4.182,-4.2454,-4.4115,-4.4115,-4.489,-4.6313,-4.6313,-4.6841,0.0,0.0,0.0,0.0,0.0,0.0,0.0,0.0,0.0,0.0,0.0,0.0,0.0,0.0,0.0,0.0,0.0,0.0,0.0,0.0,0.0,0.0,0.0,0.0,0.0,0.0,0.0,0.0,-3.3418,-3.3418,-3.3418,-3.3418,-3.3418,-3.3418,-3.3418,-3.3418,-3.3418,-3.3418,-3.3447,-3.3506,-3.3506,-3.3535,-3.3594,-3.3594,-3.4033,-3.4785,-3.4726,-3.4736,-3.5038,-3.7858,-3.8839,-3.8986,-4.2589,-4.3879,-4.3771,-4.4743,-4.5154,-4.5278,-4.551,-4.5659,-4.5659,-4.5659,-4.5793,-4.5926,-4.5926,-4.618,-4.6313,-4.6313,-4.6313,-4.6313,-4.6313,-4.6313,-4.6313,-4.6313,-4.6313,-4.6313,-4.6313,-4.6313,-4.6313,-4.6313,-4.6313,-4.6313,-4.6313,-4.6313,-4.6313,-4.6313,-4.6313,-4.6313,-4.6313,-4.6313,-4.5671,-4.4239,-4.3606,-4.2832,-4.1693,-4.2454,-4.3083,-4.3345,-4.3345,-4.3991,-4.5537,-4.4115,-4.4115,-4.5537,-4.4115,-4.4251,-4.5926,-4.5926,-4.6059,-4.6313,-4.6313,-4.664,0.0,0.0,0.0,0.0,0.0,0.0,0.0,0.0,0.0,0.0,0.0,0.0,0.0,0.0,0.0,0.0,0.0,0.0,0.0,0.0,0.0,0.0,0.0,0.0,0.0,0.0,0.0,0.0,-3.3418,-3.3418,-3.3418,-3.3418,-3.3418,-3.3418,-3.3418,-3.3418,-3.3418,-3.3418,-3.3418,-3.3418,-3.3418,-3.3418,-3.3418,-3.3418,-3.376,-3.4336,-3.4092,-3.4121,-3.4575,-3.6655,-3.7889,-3.8811,-4.1315,-4.2889,-4.3903,-4.4706,-4.5208,-4.5573,-4.6125,-4.6313,-4.6313,-4.6313,-4.6313,-4.6313,-4.6313,-4.6313,-4.6313,-4.6313,-4.6313,-4.6313,-4.6313,-4.6313,-4.6313,-4.6313,-4.6313,-4.6313,-4.6313,-4.6313,-4.6313,-4.6313,-4.6313,-4.6313,-4.6313,-4.6313,-4.6313,-4.6313,-4.6313,-4.6313,-4.6313,-4.6313,-4.6047,-4.5269,-4.4239,-4.3855,-4.4003,-4.3867,-4.4115,-4.5147,-4.5147,-4.5525,-4.6313,-4.5537,-4.5537,-4.6313,-4.5537,-4.5537,-4.6313,-4.6313,-4.6313,-4.6313,-4.6313,-4.6602,0.0,0.0,0.0,0.0,0.0,0.0,0.0,0.0,0.0,0.0,0.0,0.0,0.0,0.0,0.0,0.0,0.0,0.0,0.0,0.0,0.0,0.0,0.0,0.0,0.0,0.0,0.0,0.0,-3.3418,-3.3418,-3.3418,-3.3418,-3.3418,-3.3418,-3.3418,-3.3418,-3.3418,-3.3418,-3.3418,-3.3418,-3.3418,-3.3418,-3.3418,-3.3418,-3.3603,-3.3887,-3.3564,-3.3603,-3.4005,-3.5717,-3.7133,-3.8461,-4.0476,-4.223,-4.3865,-4.4418,-4.4982,-4.5573,-4.6125,-4.6313,-4.6313,-4.6313,-4.6313,-4.6313,-4.6313,-4.6313,-4.6313,-4.6313,-4.6313,-4.6313,-4.6313,-4.6313,-4.6313,-4.6313,-4.6313,-4.6313,-4.6313,-4.6313,-4.6313,-4.6313,-4.6313,-4.6313,-4.6313,-4.6313,-4.6313,-4.6313,-4.5926,-4.5659,-4.5659,-4.5659,-4.5659,-4.5659,-4.489,-4.489,-4.618,-4.5147,-4.489,-4.6193,-4.6313,-4.6313,-4.6313,-4.6313,-4.6313,-4.6313,-4.6313,-4.6313,-4.6313,-4.6313,-4.6313,-4.6313,-4.6313,-4.6527,0.0,0.0,0.0,0.0,0.0,0.0,0.0,0.0,0.0,0.0,0.0,0.0,0.0,0.0,0.0,0.0,0.0,0.0,0.0,0.0,0.0,0.0,0.0,0.0,0.0,0.0,0.0,0.0,-3.3418,-3.3418,-3.3418,-3.3418,-3.3418,-3.3418,-3.3418,-3.3418,-3.3418,-3.3418,-3.3418,-3.3418,-3.3418,-3.3418,-3.3418,-3.3418,-3.3428,-3.3457,-3.3428,-3.3428,-3.37,-3.6792,-3.8104,-3.8461,-4.1672,-4.32,-4.3865,-4.4418,-4.4982,-4.5573,-4.6125,-4.6313,-4.6313,-4.6313,-4.6313,-4.6313,-4.6313,-4.6313,-4.6313,-4.6313,-4.6313,-4.6313,-4.6313,-4.6313,-4.6313,-4.6313,-4.6313,-4.6313,-4.6313,-4.6313,-4.6313,-4.6313,-4.6313,-4.6313,-4.6313,-4.6313,-4.6313,-4.6313,-4.4878,-4.3855,-4.3855,-4.3855,-4.3855,-4.3855,-4.5269,-4.618,-4.6313,-4.6193,-4.618,-4.6301,-4.6313,-4.6313,-4.6313,-4.6313,-4.6313,-4.6313,-4.6313,-4.6313,-4.6313,-4.6313,-4.6313,-4.6313,-4.6313,-4.6326,0.0,0.0,0.0,0.0,0.0,0.0,0.0,0.0,0.0,0.0,0.0,0.0,0.0,0.0,0.0,0.0,0.0,0.0,0.0,0.0,0.0,0.0,0.0,0.0,0.0,0.0,0.0,0.0,0.0,-3.3418,-3.3418,-3.3418,-3.3418,-3.3418,-3.3418,-3.3418,-3.3418,-3.3418,-3.3418,-3.3418,-3.3418,-3.3418,-3.3418,-3.3418,-3.3418,-3.3418,-3.3418,-3.3418,-3.3534,-3.5816,-3.7254,-3.8461,-4.0604,-4.2261,-4.3376,-4.4292,-4.4756,-4.507,-4.5987,-4.6313,-4.618,-4.5013,-4.4632,-4.4632,-4.4632,-4.4632,-4.4878,-4.5926,-4.6313,-4.6313,-4.6313,-4.6313,-4.6313,-4.6313,-4.6313,-4.6313,-4.6313,-4.6313,-4.6313,-4.6313,-4.6313,-4.6313,-4.6313,-4.6313,-4.5926,-4.4755,-4.4115,-4.3345,-4.2201,-4.2074,-4.2454,-4.3595,-4.4239,-4.5135,-4.618,-4.6313,-4.6313,-4.6313,-4.6313,-4.6313,-4.6313,-4.6313,-4.6313,-4.6313,-4.6313,-4.6313,-4.6313,-4.6313,-4.6313,-4.6313,-4.6313,-4.6313,0.0,0.0,0.0,0.0,0.0,0.0,0.0,0.0,0.0,0.0,0.0,0.0,0.0,0.0,0.0,0.0,0.0,0.0,0.0,0.0,0.0,0.0,0.0,0.0,0.0,0.0,0.0,0.0,0.0,0.0,-3.3418,-3.3418,-3.3418,-3.3418,-3.3418,-3.3418,-3.3418,-3.3418,-3.3418,-3.3418,-3.3418,-3.3418,-3.3418,-3.3418,-3.3418,-3.3418,-3.3418,-3.3418,-3.3534,-3.5694,-3.7254,-3.8461,-4.0592,-4.2135,-4.3363,-4.4279,-4.4744,-4.4916,-4.5349,-4.5403,-4.5147,-4.347,-4.2832,-4.2832,-4.2832,-4.2832,-4.322,-4.489,-4.5403,-4.5537,-4.618,-4.6313,-4.6313,-4.6313,-4.6313,-4.6313,-4.6313,-4.6313,-4.6313,-4.6313,-4.6313,-4.6313,-4.6313,-4.5793,-4.5013,-4.3855,-4.2695,-4.1554,-4.0408,-4.0278,-4.0784,-4.1936,-4.2958,-4.4115,-4.5281,-4.5926,-4.6313,-4.6313,-4.6313,-4.6313,-4.6313,-4.6313,-4.6313,-4.6313,-4.6313,-4.6313,-4.6313,-4.6313,-4.6313,-4.6313,-4.6313,-4.6313,0.0,0.0,0.0,0.0,0.0,0.0,0.0,0.0,0.0,0.0,0.0,0.0,0.0,0.0,0.0,0.0,0.0,0.0,0.0,0.0,0.0,0.0,0.0,0.0,0.0,0.0,0.0,0.0,-3.3418,-3.3418,-3.3408,-3.3408,-3.3408,-3.3408,-3.3418,-3.3418,-3.3418,-3.3418,-3.3418,-3.3418,-3.3418,-3.3418,-3.3418,-3.3418,-3.3418,-3.3418,-3.3418,-3.3418,-3.366,-3.6781,-3.8223,-3.858,-4.1659,-4.33,-4.384,-4.4392,-4.4957,-4.526,-4.4034,-4.3707,-4.3446,-4.1681,-4.1181,-4.1181,-4.1181,-4.1181,-4.1565,-4.322,-4.3719,-4.4115,-4.5914,-4.6313,-4.6313,-4.6313,-4.6313,-4.6313,-4.618,-4.618,-4.618,-4.6313,-4.6313,-4.618,-4.618,-4.4755,-4.3595,-4.3595,-4.0784,-3.8608,-3.8476,-3.8476,-3.8608,-3.8597,-4.1542,-4.3595,-4.3719,-4.5281,-4.6218,-4.6338,-4.6351,-4.6363,-4.6363,-4.6338,-4.6338,-4.6338,-4.6326,-4.6313,-4.6313,-4.6313,-4.6313,-4.6313,-4.6313,-4.6313,-1.9824,0.0,0.0,0.0,0.0,0.0,0.0,0.0,0.0,0.0,0.0,0.0,0.0,0.0,0.0,0.0,0.0,0.0,0.0,0.0,0.0,0.0,0.0,0.0,0.0,0.0,0.0,0.0,-3.3418,-3.3291,-3.2978,-3.2969,-3.2969,-3.2969,-3.3262,-3.3418,-3.3418,-3.3418,-3.3418,-3.3418,-3.3418,-3.3418,-3.3418,-3.3418,-3.3418,-3.3418,-3.4612,-3.5088,-3.5211,-3.6051,-3.7843,-4.0001,-4.0949,-4.211,-4.3275,-4.3827,-4.4129,-4.4161,-4.3349,-4.316,-4.2715,-4.0157,-3.9376,-3.9376,-3.9376,-4.0148,-4.1565,-4.322,-4.4632,-4.5659,-4.618,-4.6313,-4.6313,-4.6313,-4.6313,-4.5926,-4.4632,-4.4374,-4.4755,-4.6059,-4.5269,-4.4374,-4.4374,-4.2958,-4.1426,-4.0137,-3.9245,-3.8088,-3.6924,-3.6664,-3.7183,-3.8476,-3.9507,-4.1041,-4.347,-4.4475,-4.5612,-4.6781,-4.7255,-4.7468,-4.7468,-4.7104,-4.6903,-4.6903,-4.6514,-4.6313,-4.6313,-4.6313,-4.6313,-4.6313,-4.6313,-4.6313,-2.0586,-2.0977,-2.1631,0.0,0.0,0.0,0.0,0.0,0.0,0.0,0.0,0.0,0.0,0.0,0.0,0.0,0.0,0.0,0.0,0.0,0.0,0.0,0.0,0.0,0.0,-3.3018,-3.3164,-3.3164,-3.3164,-3.2978,-3.2559,-3.2529,-3.2529,-3.2529,-3.2939,-3.3164,-3.3164,-3.334,-3.3418,-3.3418,-3.3418,-3.3418,-3.3418,-3.3418,-3.3776,-3.4497,-3.5448,-3.6517,-3.7832,-3.7832,-3.8912,-4.0707,-4.1305,-4.2137,-4.3037,-4.3589,-4.3435,-4.2702,-4.1833,-4.1122,-4.0195,-3.8036,-3.7299,-3.734,-3.7514,-3.8729,-4.0408,-4.2201,-4.4386,-4.6313,-4.6313,-4.6313,-4.618,-4.5403,-4.5269,-4.4755,-4.3095,-4.2706,-4.2969,-4.4003,-4.3357,-4.2706,-4.2706,-4.1298,-3.9769,-3.8729,-3.7955,-3.7193,-3.6152,-3.6016,-3.6413,-3.7451,-3.8221,-3.9376,-4.1415,-4.266,-4.4135,-4.5956,-4.6446,-4.7119,-4.7908,-4.7405,-4.7129,-4.7129,-4.6589,-4.6313,-4.6313,-4.6313,-4.6313,-4.6313,-4.6313,-4.6313,-2.1582,-2.1768,-2.2344,-2.3389,-2.3184,0.0,-2.4473,-2.459,0.0,0.0,0.0,0.0,0.0,0.0,0.0,0.0,0.0,0.0,0.0,0.0,0.0,0.0,0.0,0.0,-3.2617,-3.2695,-3.2725,-3.2725,-3.2685,-3.249,-3.2119,-3.21,-3.21,-3.21,-3.25,-3.2725,-3.2725,-3.3096,-3.331,-3.335,-3.335,-3.3379,-3.3418,-3.3418,-3.4258,-3.5806,-3.604,-3.7832,-4.0592,-4.0822,-4.0834,-4.0949,-4.2388,-4.2974,-4.3037,-4.3526,-4.2737,-4.1129,-4.0057,-3.8619,-3.6957,-3.5726,-3.5391,-3.5469,-3.615,-3.7575,-3.9245,-4.1181,-4.3991,-4.6313,-4.6313,-4.618,-4.5659,-4.4103,-4.3595,-4.2958,-4.1309,-4.0924,-4.0795,-4.0666,-4.0795,-4.0924,-4.0924,-3.9507,-3.8343,-3.8343,-3.7059,-3.6016,-3.6016,-3.6016,-3.6016,-3.6016,-3.7441,-3.8343,-3.8608,-4.0497,-4.2368,-4.4194,-4.5005,-4.6098,-4.7608,-4.737,-4.7192,-4.7129,-4.6589,-4.6313,-4.6313,-4.6313,-4.6313,-4.6313,-4.6313,-4.6313,-2.2998,-2.3096,-2.331,-2.2871,-2.3408,0.0,-2.3164,-2.374,0.0,0.0,0.0,0.0,0.0,0.0,0.0,0.0,0.0,0.0,0.0,0.0,0.0,0.0,0.0,0.0,-3.1758,-3.209,-3.2285,-3.2285,-3.1963,-3.1728,-3.165,-3.1641,-3.1641,-3.1641,-3.206,-3.2285,-3.2285,-3.2373,-3.2588,-3.292,-3.292,-3.3096,-3.3418,-3.3418,-3.4258,-3.5918,-3.7133,-3.8805,-4.0719,-4.2024,-4.25,-4.2613,-4.2862,-4.2974,-4.2986,-4.3099,-4.2184,-4.0585,-3.9413,-3.8015,-3.6571,-3.5637,-3.5391,-3.5727,-3.7565,-3.9245,-4.1309,-4.4386,-4.5793,-4.6313,-4.6313,-4.5269,-4.4115,-4.3719,-4.2706,-4.117,-3.9507,-3.9125,-3.874,-3.7317,-3.8088,-3.9125,-3.9125,-3.7698,-3.6539,-3.6539,-3.6278,-3.6016,-3.6016,-3.6016,-3.6016,-3.6016,-3.6278,-3.7059,-3.8476,-3.9767,-4.1169,-4.2877,-4.519,-4.6466,-4.6333,-4.7255,-4.7556,-4.7142,-4.6589,-4.6313,-4.6313,-4.6313,-4.6313,-4.6313,-4.6313,-4.6313,-2.4082,-2.3945,-2.4053,-2.3838,-2.3945,0.0,0.0,-2.3623,-2.3965,0.0,0.0,0.0,0.0,0.0,0.0,0.0,0.0,0.0,0.0,0.0,0.0,0.0,0.0,0.0,-3.1494,-3.1709,-3.1846,-3.1846,-3.1445,-3.1201,-3.1201,-3.1201,-3.1201,-3.1201,-3.1621,-3.1846,-3.1846,-3.206,-3.2275,-3.248,-3.248,-3.2705,-3.3105,-3.3105,-3.4047,-3.5928,-3.7495,-3.8698,-3.9522,-4.1191,-4.1785,-4.1899,-4.2737,-4.2974,-4.2862,-4.2137,-4.0834,-3.9205,-3.7769,-3.6297,-3.5088,-3.5777,-3.6142,-3.6766,-3.8873,-4.084,-4.2832,-4.4509,-4.5013,-4.4767,-4.3991,-4.3095,-4.219,-4.1415,-4.0526,-3.9376,-3.7698,-3.7317,-3.7059,-3.6142,-3.6664,-3.7317,-3.7317,-3.6539,-3.6016,-3.6016,-3.6016,-3.6016,-3.6016,-3.6016,-3.6016,-3.6016,-3.6016,-3.6413,-3.7183,-3.7935,-3.9113,-4.0952,-4.2549,-4.3779,-4.4337,-4.476,-4.5038,-4.5428,-4.5942,-4.6313,-4.6313,-4.6313,-4.6313,-4.6313,-4.6313,-4.6313,-2.5254,-2.498,-2.5049,-2.5068,-2.4736,-2.4365,0.0,0.0,0.0,-2.4512,0.0,0.0,0.0,0.0,0.0,0.0,0.0,0.0,0.0,0.0,0.0,0.0,0.0,0.0,0.0,-3.1113,-3.1123,-3.1377,-3.085,-3.0625,-3.0879,-3.0889,-3.0889,-3.0889,-3.1221,-3.1396,-3.1396,-3.1748,-3.1963,-3.2041,-3.2041,-3.2266,-3.2676,-3.2764,-3.3807,-3.5802,-3.709,-3.7854,-3.8342,-3.9639,-4.0117,-4.0349,-4.1899,-4.25,-4.2375,-4.1076,-3.9405,-3.7495,-3.6284,-3.4974,-3.4087,-3.5904,-3.7391,-3.864,-4.0296,-4.2413,-4.4115,-4.3843,-4.3719,-4.3345,-4.1693,-4.0924,-4.0278,-3.8993,-3.8343,-3.7698,-3.6278,-3.6016,-3.6016,-3.6016,-3.6016,-3.6016,-3.6016,-3.6016,-3.6016,-3.6016,-3.6016,-3.6016,-3.6016,-3.6016,-3.6016,-3.6016,-3.6016,-3.6016,-3.6016,-3.6426,-3.7331,-3.8771,-3.9605,-4.0736,-4.2071,-4.189,-4.223,-4.322,-4.489,-4.5793,-4.5793,-4.618,-4.6313,-4.6313,-4.6313,-4.6313,-2.6963,-2.7002,-2.6934,-2.5439,-2.5859,-2.6055,-2.3799,0.0,-2.4102,-2.3486,0.0,0.0,0.0,0.0,0.0,0.0,0.0,0.0,0.0,0.0,0.0,0.0,0.0,0.0,0.0,-2.9658,-2.9697,-3.0869,-2.9834,-2.9658,-3.083,-3.0889,-3.0889,-3.0889,-3.0937,-3.0957,-3.0957,-3.1016,-3.1221,-3.1592,-3.1592,-3.1816,-3.2256,-3.2627,-3.3759,-3.5349,-3.5871,-3.6892,-3.8223,-3.8461,-3.8461,-3.858,-4.0233,-4.0834,-4.0834,-4.0707,-3.8676,-3.6051,-3.5806,-3.5683,-3.5644,-3.6258,-3.9095,-4.2362,-4.2555,-4.4208,-4.5659,-4.4115,-4.3719,-4.3345,-4.1693,-4.0018,-3.8861,-3.8608,-3.7441,-3.6278,-3.6016,-3.6016,-3.6016,-3.6016,-3.6016,-3.6016,-3.6016,-3.6016,-3.6016,-3.6016,-3.6016,-3.6016,-3.6016,-3.6016,-3.6016,-3.6016,-3.6016,-3.6016,-3.6016,-3.6426,-3.6808,-3.6927,-3.8942,-3.993,-3.9633,-4.0737,-4.1365,-4.1437,-4.3095,-4.3991,-4.3979,-4.5537,-4.6313,-4.6313,-4.6313,-4.6313,-2.7246,-2.7334,-2.7373,-2.6143,-2.6055,-2.5859,-2.4248,-2.3769,-2.3711,0.0,0.0,0.0,0.0,0.0,0.0,0.0,0.0,0.0,0.0,0.0,0.0,0.0,0.0,0.0,0.0,0.0,0.0,0.0,-2.9375,-2.9375,-3.043,-3.0742,-3.0889,-3.0889,-3.0889,-3.0889,-3.0889,-3.0889,-3.0976,-3.1152,-3.1152,-3.1377,-3.1807,-3.2236,-3.2907,-3.3871,-3.525,-3.5694,-3.5458,-3.6417,-3.6771,-3.6892,-3.7604,-3.8439,-3.9053,-3.8201,-3.7002,-3.5683,-3.4736,-3.4964,-3.6247,-3.8553,-4.1386,-4.3921,-4.424,-4.4597,-4.4374,-4.2706,-4.1554,-4.0397,-3.8608,-3.7698,-3.7048,-3.7048,-3.6539,-3.6016,-3.6016,-3.6016,-3.6016,-3.6016,-3.6016,-3.6016,-3.6016,-3.6016,-3.6016,-3.6016,-3.6016,-3.6016,-3.6016,-3.6016,-3.6016,-3.6016,-3.6016,-3.6016,-3.6016,-3.6182,-3.6289,-3.6289,-3.7248,-3.7657,-3.733,-3.8835,-3.9627,-3.9627,-4.1426,-4.2706,-4.3719,-4.4374,-4.5269,-4.6313,-4.6313,-4.6313,-2.7773,0.0,0.0,0.0,0.0,0.0,0.0,0.0,-2.3779,0.0,0.0,0.0,0.0,0.0,-2.3926,-2.3809,0.0,-2.459,0.0,0.0,0.0,0.0,0.0,0.0,0.0,0.0,0.0,0.0,0.0,-2.8799,-3.0127,-3.0518,-3.0762,-3.0889,-3.0889,-3.0889,-3.0889,-3.0889,-3.0889,-3.0889,-3.0889,-3.1055,-3.1357,-3.1787,-3.2226,-3.276,-3.4247,-3.4386,-3.3544,-3.4612,-3.5088,-3.5088,-3.5088,-3.5816,-3.6781,-3.6051,-3.5571,-3.4974,-3.3776,-3.4736,-3.7056,-4.0669,-4.3069,-4.4706,-4.5121,-4.4849,-4.4115,-4.2328,-4.0666,-3.8861,-3.7183,-3.6413,-3.6152,-3.6539,-3.6664,-3.6799,-3.7307,-3.7441,-3.7441,-3.7441,-3.7441,-3.7441,-3.7441,-3.6664,-3.6016,-3.6016,-3.6016,-3.6016,-3.6016,-3.6016,-3.6016,-3.6016,-3.6016,-3.6016,-3.6016,-3.6016,-3.6074,-3.6191,-3.6309,-3.6318,-3.6201,-3.7365,-3.7955,-3.7832,-4.0018,-4.182,-4.2958,-4.3991,-4.5025,-4.6313,-4.6313,-4.6313,0.0,0.0,0.0,-2.6387,0.0,0.0,0.0,0.0,-2.4775,0.0,-2.4795,-2.54,-2.457,-2.4404,-2.4258,-2.3857,-2.415,0.0,0.0,0.0,0.0,0.0,0.0,0.0,0.0,0.0,0.0,0.0,0.0,0.0,-3.0068,-3.0205,-3.043,-3.0879,-3.0889,-3.0889,-3.0889,-3.0889,-3.0889,-3.0889,-3.0889,-3.0898,-3.0928,-3.1348,-3.1777,-3.2207,-3.275,-3.3047,-3.3418,-3.3418,-3.3418,-3.3418,-3.3418,-3.3544,-3.3776,-3.5201,-3.485,-3.3418,-3.3418,-3.5458,-3.8698,-4.1923,-4.374,-4.4618,-4.4644,-4.5422,-4.5793,-4.4115,-4.2454,-4.0666,-3.8993,-3.7307,-3.6413,-3.8088,-3.8476,-3.8993,-4.0666,-4.1052,-4.1052,-4.1052,-4.1052,-4.1052,-4.1052,-3.821,-3.6016,-3.6016,-3.6016,-3.6016,-3.6016,-3.6016,-3.6016,-3.6016,-3.6016,-3.6016,-3.6016,-3.6016,-3.6201,-3.6621,-3.7031,-3.707,-3.666,-3.6789,-3.6583,-3.6025,-3.9507,-4.1181,-4.1309,-4.4632,-4.6313,-4.6313,-4.6313,-4.6313,0.0,0.0,-2.9512,-2.751,0.0,0.0,0.0,0.0,0.0,0.0,0.0,-2.5469,-2.458,-2.4414,-2.4277,-2.3857,-2.3906,-2.3799,0.0,0.0,0.0,0.0,0.0,0.0,0.0,0.0,0.0,0.0,-2.7051,0.0,0.0,-3.0049,-3.041,-3.0879,-3.0889,-3.0889,-3.0889,-3.0889,-3.0889,-3.0889,-3.0889,-3.0889,-3.0908,-3.1328,-3.1758,-3.2187,-3.2617,-3.3037,-3.3418,-3.3418,-3.3418,-3.3418,-3.3418,-3.3418,-3.3418,-3.4017,-3.3902,-3.366,-3.5827,-3.7265,-3.8755,-4.2328,-4.4028,-4.4694,-4.5083,-4.4957,-4.4497,-4.3855,-4.2454,-4.1052,-4.0408,-3.9888,-3.9638,-4.0148,-4.0278,-4.0537,-4.1052,-4.1181,-4.1181,-4.1181,-4.1181,-4.1181,-4.1181,-4.0278,-3.9376,-3.9376,-3.9376,-3.8993,-3.7832,-3.7698,-3.7317,-3.6152,-3.6016,-3.6016,-3.6016,-3.6289,-3.6514,-3.666,-3.706,-3.7236,-3.709,-3.6816,-3.7124,-3.8139,-3.902,-4.0526,-4.2832,-4.3991,-4.5147,-4.6313,-4.6313,-4.6313,-2.9834,-2.999,0.0,-2.8271,-2.7676,0.0,-2.5283,0.0,-2.5752,0.0,0.0,0.0,-2.584,-2.5166,-2.4609,-2.4502,-2.4092,-2.3633,0.0,-2.3135,0.0,0.0,0.0,0.0,0.0,0.0,-2.499,-2.6455,0.0,0.0,0.0,0.0,-3.0185,-3.0635,-3.0801,-3.0889,-3.0889,-3.0889,-3.0889,-3.0889,-3.0889,-3.0889,-3.0898,-3.1172,-3.1611,-3.2187,-3.2451,-3.29,-3.3418,-3.3418,-3.3418,-3.3418,-3.3418,-3.3418,-3.3418,-3.3418,-3.3418,-3.3902,-3.7023,-3.8335,-3.9016,-4.2597,-4.4317,-4.4995,-4.5372,-4.5105,-4.462,-4.462,-4.3345,-4.2074,-4.2074,-4.1693,-4.1309,-4.1947,-4.2074,-4.2201,-4.2844,-4.2969,-4.2969,-4.2969,-4.2969,-4.2969,-4.2969,-4.2969,-4.2592,-4.1437,-4.1181,-4.0795,-3.9638,-3.8993,-3.8221,-3.7059,-3.6403,-3.6016,-3.6016,-3.6426,-3.6738,-3.6885,-3.7285,-3.7451,-3.7305,-3.7858,-3.8427,-3.929,-4.0452,-4.2074,-4.4278,-4.4917,-4.5613,-4.6602,-4.6602,-4.6502]},{"header":{"parameterUnit":"m.s-1","parameterCategory":1,"la1":30.6,"la2":29.2853,"lo1":-89.7004,"lo2":-87.6739,"dy":0.0162,"dx":0.0183,"nx":112,"ny":82,"refTime":"2024-06-27T06:00:00:Z","depth":0,"parameterNumber":3,"parameterNumberName":"V-component_of_WINDS"},"data":[0.0,0.0,0.0,0.0,0.0,0.0,0.0,0.0,0.0,0.0,0.0,0.0,0.0,0.0,0.0,0.0,0.0,0.0,0.0,0.0,0.0,0.0,0.0,0.0,0.0,0.0,0.0,0.0,0.0,0.0,0.0,0.0,0.0,0.0,0.0,0.0,0.0,0.0,0.0,0.0,0.0,0.0,0.0,0.0,0.0,0.0,0.0,0.0,0.0,0.0,0.0,0.0,0.0,0.0,0.0,0.0,0.0,0.0,0.0,0.0,0.0,0.0,0.0,0.0,0.0,0.0,0.0,0.0,0.0,0.0,0.0,0.0,0.0,0.0,0.0,0.0,0.0,0.0,0.0,0.0,0.0,0.0,0.0,0.0,0.0,0.0,0.0,0.0,0.0,0.0,-3.1306,-3.5499,-3.8033,-3.9185,-3.8601,-3.8362,-3.6357,-3.197,0.0,0.0,0.0,0.0,0.0,0.0,0.0,0.0,0.0,0.0,0.0,0.0,0.0,0.0,0.0,0.0,0.0,0.0,0.0,0.0,0.0,0.0,0.0,0.0,0.0,0.0,0.0,0.0,0.0,0.0,0.0,0.0,0.0,0.0,0.0,0.0,0.0,0.0,0.0,0.0,0.0,0.0,0.0,0.0,0.0,0.0,0.0,0.0,0.0,0.0,0.0,0.0,0.0,0.0,0.0,0.0,0.0,0.0,0.0,0.0,0.0,0.0,0.0,0.0,0.0,0.0,0.0,0.0,0.0,0.0,0.0,0.0,0.0,0.0,0.0,0.0,0.0,0.0,0.0,0.0,0.0,0.0,0.0,0.0,0.0,0.0,0.0,0.0,0.0,0.0,0.0,0.0,0.0,0.0,0.0,0.0,0.0,0.0,0.0,0.0,0.0,0.0,0.0,0.0,-3.2929,-3.7479,-3.8826,-3.9379,-3.9275,-3.8212,-3.6276,-3.3391,0.0,0.0,0.0,0.0,0.0,0.0,0.0,0.0,0.0,0.0,0.0,0.0,0.0,0.0,0.0,0.0,0.0,0.0,0.0,0.0,0.0,0.0,0.0,0.0,0.0,0.0,0.0,0.0,0.0,0.0,0.0,0.0,0.0,0.0,0.0,0.0,0.0,0.0,0.0,0.0,0.0,0.0,0.0,0.0,0.0,0.0,0.0,0.0,0.0,0.0,0.0,0.0,0.0,0.0,0.0,0.0,0.0,0.0,0.0,0.0,0.0,0.0,0.0,0.0,0.0,0.0,0.0,0.0,0.0,0.0,0.0,0.0,0.0,0.0,0.0,0.0,0.0,0.0,0.0,0.0,0.0,0.0,0.0,0.0,0.0,0.0,0.0,0.0,0.0,0.0,0.0,0.0,0.0,0.0,0.0,0.0,0.0,0.0,0.0,0.0,0.0,0.0,0.0,-3.2451,-3.4891,-3.8048,-3.9005,-3.9424,-3.9424,-3.8182,-3.6282,-3.3664,-3.0098,0.0,0.0,0.0,0.0,0.0,0.0,0.0,0.0,0.0,0.0,0.0,0.0,0.0,0.0,0.0,0.0,0.0,0.0,0.0,0.0,0.0,0.0,0.0,0.0,0.0,0.0,0.0,0.0,0.0,0.0,0.0,0.0,0.0,0.0,0.0,0.0,0.0,0.0,0.0,0.0,0.0,0.0,0.0,0.0,0.0,0.0,0.0,0.0,0.0,0.0,0.0,0.0,0.0,0.0,0.0,0.0,0.0,0.0,0.0,0.0,0.0,0.0,0.0,0.0,0.0,0.0,0.0,0.0,0.0,0.0,0.0,0.0,0.0,0.0,0.0,0.0,0.0,0.0,0.0,0.0,0.0,0.0,0.0,0.0,0.0,0.0,0.0,0.0,0.0,0.0,0.0,0.0,0.0,0.0,0.0,0.0,0.0,0.0,0.0,0.0,0.0,0.0,-3.4961,-3.6424,-3.8437,-3.9095,-3.9424,-3.9424,-3.7913,-3.5968,-3.3649,-2.9682,0.0,0.0,0.0,0.0,0.0,0.0,0.0,0.0,0.0,0.0,0.0,0.0,0.0,0.0,0.0,0.0,0.0,0.0,0.0,0.0,0.0,0.0,0.0,0.0,0.0,0.0,0.0,0.0,0.0,0.0,0.0,0.0,0.0,0.0,0.0,0.0,0.0,0.0,0.0,0.0,0.0,0.0,0.0,0.0,0.0,0.0,0.0,0.0,0.0,0.0,0.0,0.0,0.0,0.0,0.0,0.0,0.0,0.0,0.0,0.0,0.0,0.0,0.0,0.0,0.0,0.0,0.0,0.0,0.0,0.0,0.0,0.0,0.0,0.0,0.0,0.0,0.0,0.0,0.0,0.0,0.0,0.0,0.0,0.0,0.0,0.0,0.0,0.0,0.0,0.0,0.0,0.0,0.0,0.0,0.0,0.0,0.0,0.0,0.0,0.0,0.0,0.0,-3.4574,-3.6821,-3.9113,-3.9394,-3.9424,-3.9424,-3.7105,-3.5026,-3.3589,-2.9195,0.0,0.0,0.0,0.0,0.0,0.0,0.0,0.0,0.0,0.0,0.0,0.0,0.0,0.0,0.0,0.0,0.0,0.0,0.0,0.0,0.0,0.0,0.0,0.0,0.0,0.0,0.0,0.0,0.0,0.0,0.0,0.0,0.0,0.0,0.0,0.0,0.0,0.0,0.0,0.0,0.0,0.0,0.0,0.0,0.0,0.0,0.0,0.0,0.0,0.0,0.0,0.0,0.0,0.0,0.0,0.0,0.0,0.0,0.0,0.0,0.0,0.0,0.0,0.0,0.0,0.0,0.0,0.0,0.0,0.0,0.0,0.0,0.0,0.0,0.0,0.0,0.0,0.0,0.0,0.0,0.0,0.0,0.0,0.0,0.0,0.0,0.0,0.0,0.0,0.0,0.0,0.0,0.0,0.0,0.0,0.0,0.0,0.0,0.0,0.0,0.0,0.0,-3.3801,-3.5977,-3.9041,-3.9424,-3.9424,-3.9424,-3.7749,-3.5774,-3.3619,0.0,0.0,0.0,0.0,0.0,0.0,0.0,0.0,0.0,0.0,0.0,0.0,0.0,0.0,0.0,0.0,0.0,0.0,0.0,0.0,0.0,0.0,0.0,0.0,0.0,0.0,0.0,0.0,0.0,0.0,0.0,0.0,0.0,0.0,0.0,0.0,0.0,0.0,0.0,0.0,0.0,0.0,0.0,0.0,0.0,0.0,0.0,0.0,0.0,0.0,0.0,0.0,0.0,0.0,0.0,0.0,0.0,0.0,0.0,0.0,0.0,0.0,0.0,0.0,0.0,0.0,0.0,0.0,0.0,0.0,0.0,0.0,0.0,0.0,0.0,0.0,0.0,0.0,0.0,0.0,0.0,0.0,0.0,0.0,0.0,0.0,0.0,0.0,0.0,0.0,0.0,0.0,0.0,0.0,0.0,0.0,0.0,0.0,0.0,0.0,0.0,0.0,-3.1567,-3.3796,-3.6197,-3.9098,-3.9424,-3.9424,-3.9424,-3.7808,-3.5848,-3.3634,0.0,0.0,0.0,0.0,0.0,0.0,0.0,0.0,0.0,0.0,0.0,0.0,0.0,0.0,0.0,0.0,0.0,0.0,0.0,0.0,0.0,0.0,0.0,0.0,0.0,0.0,0.0,0.0,0.0,0.0,0.0,0.0,0.0,0.0,0.0,0.0,0.0,0.0,0.0,0.0,0.0,0.0,0.0,0.0,0.0,0.0,0.0,0.0,0.0,0.0,0.0,0.0,0.0,0.0,0.0,0.0,0.0,0.0,0.0,0.0,0.0,0.0,0.0,0.0,0.0,0.0,0.0,0.0,0.0,0.0,0.0,0.0,0.0,0.0,0.0,0.0,0.0,0.0,0.0,0.0,0.0,0.0,0.0,0.0,0.0,0.0,0.0,0.0,0.0,0.0,0.0,0.0,0.0,0.0,0.0,0.0,0.0,0.0,0.0,0.0,0.0,0.0,-3.1087,-3.4864,-3.7928,-3.929,-3.9424,-3.9424,-3.9424,-3.703,-3.4951,0.0,0.0,0.0,0.0,0.0,0.0,0.0,0.0,0.0,0.0,0.0,0.0,0.0,0.0,0.0,0.0,0.0,0.0,0.0,0.0,0.0,0.0,0.0,0.0,0.0,0.0,0.0,0.0,0.0,0.0,0.0,0.0,0.0,0.0,0.0,0.0,0.0,0.0,0.0,0.0,0.0,0.0,0.0,0.0,0.0,0.0,0.0,0.0,0.0,0.0,0.0,0.0,0.0,0.0,0.0,0.0,0.0,0.0,0.0,0.0,0.0,0.0,0.0,0.0,0.0,0.0,0.0,0.0,0.0,0.0,0.0,0.0,0.0,0.0,0.0,0.0,0.0,0.0,0.0,0.0,0.0,0.0,0.0,0.0,0.0,0.0,0.0,0.0,0.0,0.0,0.0,0.0,0.0,0.0,0.0,0.0,0.0,0.0,0.0,0.0,0.0,0.0,0.0,-3.0956,-3.4677,-3.7871,-3.989,-4.0113,-4.0113,-4.0113,-3.863,-3.6672,-3.43,0.0,0.0,0.0,0.0,0.0,0.0,0.0,0.0,0.0,0.0,0.0,0.0,0.0,0.0,0.0,0.0,0.0,0.0,0.0,0.0,0.0,0.0,0.0,0.0,0.0,0.0,0.0,0.0,0.0,0.0,0.0,0.0,0.0,0.0,0.0,0.0,0.0,0.0,0.0,0.0,0.0,0.0,0.0,0.0,0.0,0.0,0.0,0.0,0.0,0.0,0.0,0.0,0.0,0.0,0.0,0.0,0.0,0.0,0.0,0.0,0.0,0.0,0.0,0.0,0.0,0.0,0.0,0.0,0.0,0.0,0.0,0.0,0.0,0.0,0.0,0.0,0.0,0.0,0.0,0.0,0.0,0.0,0.0,0.0,0.0,0.0,0.0,0.0,0.0,0.0,0.0,0.0,0.0,0.0,0.0,0.0,0.0,0.0,0.0,0.0,0.0,0.0,-3.1346,-3.5143,-3.8426,-4.0713,-4.1164,-4.1412,-4.1478,-4.0286,-3.8341,-3.5551,0.0,0.0,0.0,0.0,0.0,0.0,0.0,0.0,0.0,0.0,0.0,0.0,0.0,0.0,0.0,0.0,0.0,0.0,0.0,0.0,0.0,0.0,0.0,0.0,0.0,0.0,0.0,0.0,0.0,0.0,0.0,0.0,0.0,0.0,0.0,0.0,0.0,0.0,0.0,0.0,0.0,0.0,0.0,0.0,0.0,0.0,0.0,0.0,0.0,0.0,0.0,0.0,0.0,0.0,0.0,0.0,0.0,0.0,0.0,0.0,0.0,0.0,0.0,0.0,0.0,0.0,0.0,0.0,0.0,0.0,0.0,0.0,0.0,0.0,0.0,0.0,0.0,0.0,0.0,0.0,0.0,0.0,0.0,0.0,0.0,0.0,0.0,0.0,0.0,0.0,0.0,0.0,0.0,0.0,0.0,0.0,0.0,0.0,0.0,0.0,0.0,0.0,-3.2378,-3.6276,-3.9671,-4.1899,-4.2669,-4.3097,-4.3377,-4.2108,-4.0123,-3.7429,0.0,0.0,0.0,0.0,0.0,0.0,0.0,0.0,0.0,0.0,0.0,0.0,0.0,0.0,0.0,0.0,0.0,0.0,0.0,0.0,0.0,0.0,0.0,0.0,0.0,0.0,0.0,0.0,0.0,0.0,0.0,0.0,0.0,0.0,0.0,0.0,0.0,0.0,0.0,0.0,0.0,0.0,0.0,0.0,0.0,0.0,0.0,0.0,0.0,0.0,0.0,0.0,0.0,0.0,0.0,0.0,0.0,0.0,0.0,0.0,-3.2362,0.0,0.0,0.0,0.0,0.0,0.0,0.0,0.0,0.0,0.0,0.0,0.0,0.0,0.0,0.0,0.0,0.0,0.0,0.0,0.0,0.0,0.0,0.0,0.0,0.0,0.0,0.0,0.0,0.0,0.0,0.0,0.0,0.0,0.0,0.0,0.0,0.0,0.0,0.0,0.0,0.0,-3.4768,-3.9209,-4.2718,-4.432,-4.4607,-4.4902,-4.5504,-4.4311,-4.2749,-4.0844,-3.8745,0.0,0.0,0.0,0.0,0.0,0.0,0.0,0.0,0.0,0.0,0.0,0.0,0.0,0.0,0.0,0.0,0.0,0.0,0.0,0.0,0.0,0.0,0.0,0.0,0.0,0.0,0.0,0.0,0.0,0.0,0.0,0.0,0.0,0.0,0.0,0.0,0.0,0.0,0.0,0.0,0.0,0.0,0.0,0.0,0.0,0.0,0.0,0.0,0.0,0.0,0.0,0.0,0.0,0.0,0.0,0.0,0.0,0.0,0.0,0.0,-3.6881,0.0,0.0,0.0,0.0,0.0,0.0,0.0,0.0,0.0,0.0,0.0,0.0,0.0,0.0,0.0,0.0,0.0,0.0,0.0,0.0,0.0,0.0,0.0,0.0,0.0,0.0,0.0,0.0,0.0,0.0,0.0,0.0,0.0,0.0,0.0,0.0,0.0,0.0,0.0,0.0,-3.6415,-4.0514,-4.383,-4.5666,-4.6438,-4.6988,-4.747,-4.688,-4.5629,-4.3676,-4.1921,0.0,0.0,0.0,0.0,0.0,0.0,0.0,0.0,0.0,0.0,0.0,0.0,0.0,0.0,0.0,0.0,0.0,0.0,0.0,0.0,0.0,0.0,0.0,0.0,0.0,0.0,0.0,0.0,0.0,0.0,0.0,0.0,0.0,0.0,0.0,0.0,0.0,0.0,0.0,0.0,0.0,0.0,0.0,0.0,0.0,0.0,0.0,0.0,0.0,0.0,0.0,0.0,0.0,-4.2569,-4.4525,-4.9696,-4.7257,-4.6028,-4.5601,-4.31,-4.1587,-4.062,-3.7643,0.0,0.0,0.0,0.0,0.0,0.0,0.0,0.0,0.0,0.0,0.0,0.0,0.0,0.0,0.0,0.0,0.0,0.0,0.0,0.0,0.0,0.0,0.0,0.0,-4.5368,-4.3354,-3.6149,0.0,0.0,0.0,0.0,0.0,0.0,0.0,0.0,0.0,0.0,0.0,-3.8288,-4.1866,-4.4882,-4.6965,-4.8281,-4.9165,-4.9573,-4.9451,-4.8547,-4.6661,-4.5269,-4.33,0.0,0.0,0.0,0.0,0.0,0.0,0.0,0.0,0.0,0.0,0.0,0.0,0.0,0.0,0.0,0.0,0.0,0.0,0.0,0.0,0.0,0.0,0.0,0.0,0.0,0.0,0.0,0.0,0.0,0.0,0.0,0.0,-2.5575,-2.7063,0.0,0.0,0.0,0.0,0.0,0.0,0.0,0.0,0.0,0.0,0.0,0.0,0.0,-4.0385,-4.3373,-4.3382,-4.3837,-4.4619,-4.6788,-4.9605,-5.2864,-5.2485,-5.1571,-5.0291,-4.9907,0.0,-4.3759,-4.0763,0.0,0.0,0.0,0.0,0.0,0.0,0.0,0.0,0.0,0.0,0.0,0.0,0.0,0.0,0.0,0.0,0.0,0.0,0.0,0.0,0.0,0.0,-4.7912,-4.8319,-4.8388,-4.8078,0.0,-4.2368,-3.9249,-4.1851,-3.8036,0.0,0.0,0.0,0.0,0.0,0.0,0.0,-4.1601,-4.5534,-4.8478,-4.943,-5.0285,-5.1183,-5.2189,-5.1651,-5.1203,-5.1147,-5.0291,-4.8649,-4.6139,-4.3871,0.0,0.0,0.0,0.0,0.0,0.0,0.0,0.0,0.0,0.0,0.0,0.0,0.0,0.0,0.0,0.0,0.0,0.0,0.0,0.0,0.0,0.0,0.0,0.0,0.0,0.0,0.0,0.0,0.0,-2.5625,-2.774,-2.8399,-2.8426,-2.8166,0.0,0.0,0.0,0.0,0.0,0.0,0.0,0.0,0.0,-3.6088,-3.9501,-4.3196,-4.705,-4.7063,-4.7073,-4.7107,-4.8348,-5.055,-5.3511,-5.3479,-5.266,-5.1269,-5.2123,-5.1401,-4.9376,-4.6323,-4.3369,-4.05,0.0,0.0,0.0,0.0,-4.6517,-4.7143,-4.366,-4.4997,-4.8069,-4.637,0.0,0.0,0.0,0.0,0.0,0.0,0.0,0.0,0.0,0.0,-4.9423,-5.1145,-5.1543,-5.152,-5.1515,-4.9491,-4.7302,0.0,-4.3098,-3.9478,-3.5497,0.0,0.0,0.0,0.0,-4.1866,-4.4488,-4.7232,-4.9333,-5.0484,-5.1486,-5.2236,-5.276,-5.3068,-5.3072,-5.2692,-5.2326,-5.1348,-4.9537,-4.7416,-4.516,0.0,0.0,0.0,0.0,0.0,0.0,0.0,0.0,0.0,0.0,0.0,0.0,0.0,0.0,0.0,0.0,0.0,0.0,0.0,0.0,0.0,0.0,0.0,0.0,0.0,0.0,0.0,0.0,-2.808,-3.004,-3.0615,-3.1183,-3.0931,0.0,0.0,0.0,0.0,0.0,0.0,-3.629,-3.9917,-3.9707,-3.4798,-4.1,-4.6059,-4.9542,-4.9921,-5.013,-5.0139,-5.0126,-5.1298,-5.3471,-5.3522,-5.2884,-5.1843,-5.2969,-5.3491,-5.3304,-5.107,-4.8839,-4.6595,-4.3973,-4.2959,-4.3762,-5.0424,-5.3182,-5.3369,-5.2192,-5.1812,-5.1407,-4.9205,-4.9722,-5.0927,-4.9428,0.0,0.0,0.0,0.0,-5.0166,-5.0158,-5.0176,-5.0701,-5.2946,-5.3522,-5.3491,-5.3491,-5.3532,-5.2301,0.0,-4.6447,-4.439,-4.0048,0.0,0.0,0.0,0.0,-4.3776,-4.663,-4.8453,-4.996,-5.1221,-5.2381,-5.3108,-5.3209,-5.4108,-5.4454,-5.3927,-5.387,-5.324,-5.1892,-5.0215,-4.8134,-4.5685,0.0,0.0,0.0,0.0,0.0,0.0,0.0,0.0,0.0,0.0,0.0,0.0,0.0,0.0,0.0,0.0,0.0,0.0,0.0,0.0,0.0,0.0,0.0,0.0,0.0,0.0,0.0,0.0,0.0,-3.503,-3.596,0.0,0.0,0.0,0.0,-2.707,-3.3609,-3.9621,-4.3821,-4.6021,-4.6161,-4.397,-4.7939,-5.0435,-5.1082,-5.2524,-5.328,-5.328,-5.3256,-5.3343,-5.3528,-5.3516,-5.345,-5.3399,-5.345,-5.3467,-5.3483,-5.3327,-5.318,-5.2891,-5.1279,-5.0668,-5.0683,-5.1116,-5.227,-5.347,-5.3404,-5.3376,-5.3347,-5.3185,-5.2269,-5.0907,-4.9474,-4.8796,0.0,0.0,-5.082,-5.3287,-5.3306,-5.327,-5.3292,-5.3494,-5.3465,-5.3467,-5.3467,-5.3515,-5.2595,0.0,-4.8836,-4.8065,-4.5662,0.0,-4.5071,-4.4378,-4.5544,-4.6799,-4.7637,-4.9626,-5.1239,-5.1952,-5.3074,-5.3923,-5.4387,-5.4819,-5.5275,-5.5737,-5.564,-5.4891,-5.3353,-5.2277,-5.0182,-4.6876,-4.501,0.0,0.0,0.0,0.0,0.0,0.0,0.0,0.0,0.0,0.0,0.0,0.0,0.0,0.0,0.0,0.0,0.0,0.0,0.0,0.0,0.0,0.0,0.0,0.0,0.0,0.0,0.0,0.0,-3.6941,-3.8753,0.0,-3.9443,-4.1172,-4.1148,-3.8428,-4.2473,-4.5748,-4.7361,-4.9938,-5.1053,-5.0359,-4.9457,-4.8852,-4.8658,-5.0533,-5.1507,-5.1507,-5.1483,-5.223,-5.3439,-5.2119,-5.2258,-5.3534,-5.3528,-5.3478,-5.3484,-5.3481,-5.3474,-5.3464,-5.2904,-5.2677,-5.2666,-5.2665,-5.3024,-5.3468,-5.3525,-5.3528,-5.3394,-5.2889,-5.2244,-5.1613,-5.1074,-5.1383,-5.1913,-5.1898,-5.2673,-5.3502,-5.3513,-5.3482,-5.3533,-5.3533,-5.3517,-5.3501,-5.3501,-5.3517,-5.3161,-5.2097,-5.138,-5.0289,-4.8156,-4.8223,-4.8274,-4.753,-4.8274,-4.9505,-5.1205,-5.2076,-5.2964,-5.386,-5.4615,-5.4985,-5.4905,-5.4778,-5.4806,-5.4991,-5.4434,-5.3837,-5.3299,-5.2395,-5.0837,-4.8548,-4.6836,-4.3874,0.0,0.0,0.0,0.0,0.0,0.0,0.0,0.0,0.0,0.0,0.0,0.0,0.0,0.0,0.0,0.0,0.0,0.0,0.0,0.0,0.0,0.0,0.0,0.0,0.0,0.0,-3.8278,-3.9276,-4.1523,-4.3267,-4.4034,-4.6178,-4.7176,-4.6161,-4.8848,-5.0504,-5.0527,-5.1061,-5.2068,-5.3444,-5.0723,-4.8586,-4.7278,-4.9317,-5.024,-5.0003,-5.0003,-5.0514,-5.1392,-5.1387,-5.1415,-5.1515,-5.3446,-5.4171,-5.4003,-5.4193,-5.4245,-5.4211,-5.3702,-5.3496,-5.3477,-5.353,-5.3515,-5.3532,-5.3517,-5.3501,-5.3416,-5.2892,-5.2619,-5.2516,-5.2516,-5.3003,-5.3494,-5.3481,-5.3515,-5.3465,-5.3467,-5.3501,-5.3501,-5.3501,-5.3501,-5.3501,-5.3501,-5.3501,-5.3501,-5.3501,-5.2958,-5.1976,-5.0388,-5.0524,-5.0591,-4.9864,-5.0168,-5.1199,-5.317,-5.3405,-5.3838,-5.5073,-5.5505,-5.558,-5.5322,-5.48,-5.4583,-5.4756,-5.3648,-5.2947,-5.2875,-5.1744,-5.0377,-4.8795,-4.7106,-4.4959,-4.2317,0.0,0.0,0.0,0.0,0.0,0.0,0.0,0.0,0.0,0.0,0.0,0.0,0.0,0.0,0.0,0.0,0.0,0.0,0.0,0.0,0.0,0.0,0.0,-3.6772,-3.8819,-4.0764,-4.2219,-4.4418,-4.5872,-4.6065,-4.7912,-4.909,-4.9072,-5.177,-5.346,-5.3479,-4.9681,-4.93,-5.3152,-5.2026,-5.0067,-4.7387,-4.9328,-5.0006,-4.9297,-4.9297,-4.8576,-4.7417,-5.1497,-5.1179,-4.7606,-5.3154,-5.5362,-5.4972,-5.5467,-5.5716,-5.5581,-5.411,-5.3534,-5.3534,-5.3518,-5.3501,-5.3501,-5.3501,-5.3501,-5.3501,-5.3501,-5.3501,-5.3501,-5.3501,-5.3501,-5.3501,-5.3501,-5.3501,-5.3501,-5.3501,-5.3501,-5.3501,-5.3501,-5.3501,-5.3501,-5.3501,-5.3501,-5.3501,-5.3501,-5.3501,-5.3264,-5.2469,-5.2334,-5.2097,-5.1403,-5.1285,0.0,-5.3256,-5.3476,-5.4007,-5.5459,-5.5697,-5.5753,-5.5734,-5.4976,-5.4699,-5.5197,-5.3537,-5.2408,-5.2146,-5.0538,-4.8981,-4.7643,-4.594,-4.5385,-4.5999,0.0,0.0,0.0,0.0,0.0,0.0,0.0,0.0,0.0,0.0,0.0,0.0,0.0,0.0,0.0,0.0,0.0,0.0,0.0,0.0,0.0,-3.6458,-3.8937,-3.9174,-4.1119,-4.3064,-4.4587,-4.6735,-4.8105,-4.8156,-4.9656,-5.076,-5.1138,-5.1606,-5.2336,-5.3419,-5.239,-5.0961,-4.9046,-4.9567,-4.9505,-4.8794,-4.9343,-4.9459,-4.9337,-4.9337,-4.8596,-4.7342,-4.9503,-4.9328,-4.7537,-5.1629,-5.4382,-5.5979,-5.5753,-5.5716,-5.5632,-5.4668,-5.4296,-5.4228,-5.3704,-5.3501,-5.3501,-5.3501,-5.3501,-5.3501,-5.3501,-5.3501,-5.3501,-5.3501,-5.3501,-5.3501,-5.3501,-5.3501,-5.3501,-5.3501,-5.3501,-5.3501,-5.3501,-5.3501,-5.3501,-5.3501,-5.3501,-5.3501,-5.3501,-5.3501,-5.3433,-5.3213,-5.3179,-5.3112,-5.2909,-5.2875,0.0,-5.4131,-5.4745,-5.5348,-5.6017,-5.6592,-5.6836,-5.6606,-5.5246,-5.4238,-5.3796,-5.2181,-5.1196,-5.1129,-5.0662,-5.0231,-4.9835,-4.8136,-4.7513,0.0,0.0,0.0,0.0,0.0,0.0,0.0,0.0,0.0,0.0,0.0,0.0,0.0,0.0,0.0,0.0,0.0,0.0,0.0,0.0,0.0,0.0,-3.9766,-4.2185,-4.2828,-4.4012,-4.5399,-4.6904,-4.8494,-4.9695,-5.0321,-5.1166,-5.1944,-5.2555,-5.2319,-5.2555,-5.3413,-5.3494,-5.1625,-4.7413,-4.8027,-4.9022,-5.0125,-4.9776,-4.9464,-4.9269,-4.9269,-4.8865,-4.8162,-4.891,-4.9161,-4.9081,-5.1106,-5.3954,-5.7011,-5.6729,-5.6595,0.0,0.0,0.0,0.0,0.0,-5.4228,-5.3957,-5.3957,-5.3754,-5.3501,-5.3501,-5.3501,-5.3501,-5.3501,-5.3501,-5.3501,-5.3501,-5.3501,-5.3501,-5.3501,-5.3501,-5.3501,-5.3501,-5.3501,-5.3501,-5.3501,-5.3501,-5.3501,-5.3501,-5.3501,0.0,-5.2886,-5.3195,-5.3501,-5.3501,-5.3501,-5.3783,-5.4482,-5.5262,-5.5937,-5.6479,-5.7057,-5.7338,-5.7116,-5.5751,0.0,0.0,0.0,-5.1068,-5.0228,-5.068,0.0,0.0,0.0,0.0,0.0,0.0,0.0,0.0,-4.7594,-4.7594,0.0,0.0,0.0,0.0,0.0,0.0,0.0,0.0,0.0,0.0,0.0,0.0,0.0,0.0,0.0,0.0,-4.2702,-4.5223,-4.6608,-4.6929,-4.7537,-4.8968,-4.9847,-5.0845,-5.2147,-5.2384,-5.2756,-5.3416,-5.3483,-5.3495,-5.3467,0.0,0.0,0.0,0.0,-4.888,-5.1152,-5.0472,-4.9869,-4.9479,-4.9479,-4.9537,-4.9501,-4.9522,-5.017,-5.1195,-5.1214,-5.3439,-5.7217,-5.7707,-5.7934,-5.7746,-5.6376,-5.5784,-5.5716,-5.5716,-5.5294,-5.4718,-5.4718,0.0,0.0,-5.3619,-5.3568,-5.3501,-5.3501,-5.3501,-5.3501,-5.3501,-5.3501,-5.3501,-5.3501,-5.3501,-5.3501,-5.3501,-5.3501,-5.3501,-5.3501,-5.3501,-5.3501,-5.3501,-5.3501,-5.3195,-5.2241,-5.287,-5.3433,-5.3348,-5.3433,-5.3717,-5.4374,-5.5102,-5.5836,-5.6563,0.0,0.0,-5.7334,-5.6369,-5.5542,-5.5097,-5.359,-5.1917,-5.0144,-5.1175,-5.2141,-5.2921,-5.3495,-5.4587,-5.6129,-5.5727,-5.4882,-5.3472,-4.9994,-4.9361,0.0,0.0,0.0,0.0,0.0,0.0,0.0,0.0,0.0,0.0,0.0,0.0,0.0,0.0,0.0,-4.0176,-4.3307,-4.5982,-4.672,-4.7843,-4.8925,-4.9813,-5.1048,-5.1928,-5.2048,-5.2824,-5.3348,-5.3478,-5.3528,-5.3533,-5.3502,-5.029,-4.9103,-5.0429,-5.041,-5.0712,-5.1212,-5.1041,-5.0885,-5.084,0.0,0.0,-5.0837,-5.087,-5.0945,-5.1158,-5.1169,-5.1732,-5.2787,-5.6376,-5.7944,-5.7797,-5.6934,-5.6241,-5.5716,-5.5716,-5.5632,-5.5497,-5.5497,-5.5006,-5.438,-5.438,-5.3974,-5.3501,-5.3501,-5.3501,0.0,-5.3501,-5.3501,-5.3501,-5.3501,-5.3501,-5.3501,-5.3501,-5.3501,-5.3501,-5.3501,-5.3501,-5.3501,-5.3501,-5.3501,-5.3416,-5.3195,-5.3348,-5.3195,-5.2312,-5.2956,-5.3551,-5.3668,-5.4391,-5.4878,-5.5059,-5.6206,-5.6993,-5.6993,-5.6722,-5.6258,-5.5527,-5.4588,-5.3842,-5.3463,-5.4283,-5.4865,-5.5012,-5.4574,-5.4803,-5.5795,-5.5096,-5.4596,-5.4365,-5.3634,-5.2822,0.0,0.0,0.0,0.0,0.0,0.0,0.0,0.0,0.0,0.0,0.0,-3.5628,-3.7529,0.0,-4.2161,-4.3287,-4.5103,-4.6993,-4.8757,-4.9617,-5.027,-5.0632,-5.1307,-5.1999,-5.2673,-5.323,-5.3498,-5.3518,-5.3467,-5.3508,-5.3487,-5.0798,-4.983,-5.1129,-5.1243,-5.1206,-5.1206,-5.1154,-5.1214,-5.1214,-5.1214,-5.1214,-5.1214,-5.1214,-5.1214,-5.1154,-5.1245,-5.2448,-5.4723,-5.6963,-5.7881,-5.7848,-5.7492,-5.712,-5.6799,-5.6799,-5.6579,-5.6258,-5.6258,-5.5767,-5.5091,-5.4718,-5.4346,-5.3974,-5.3619,-5.3501,-5.3501,-5.3501,-5.3501,-5.3501,-5.3501,-5.3501,-5.3501,-5.3501,-5.3501,-5.3501,-5.3501,-5.3501,-5.3501,-5.3501,-5.3501,-5.3348,-5.2784,-5.311,-5.3348,-5.2784,-5.2714,-5.287,-5.3416,-5.4154,-5.4589,-5.4589,-5.5627,-5.6313,-5.6313,-5.6273,-5.6262,-5.6216,-5.5076,-5.4436,-5.4436,-5.484,-5.504,-5.504,-5.5093,-5.5276,-5.5723,-5.4931,-5.4555,-5.4606,-5.4596,-5.4222,0.0,0.0,0.0,0.0,0.0,0.0,0.0,0.0,-3.3138,-3.5235,-3.6339,-3.7728,-4.0491,-4.2169,-4.3863,-4.6057,-4.6824,-4.8279,-5.1251,-5.1628,-5.168,-5.168,-5.168,-5.2101,-5.3399,-5.3483,-5.3492,-5.3493,-5.2719,-5.2552,-5.3033,-5.1853,-5.1165,-5.1163,-5.1203,-5.1244,-5.1195,-5.1244,-5.1244,-5.1195,-5.1244,-5.1214,-5.1214,-5.118,-5.121,-5.1274,-5.2134,-5.4512,-5.7887,-5.7926,-5.7881,-5.7881,-5.7881,-5.7881,-5.7881,-5.7881,-5.7509,-5.7019,-5.7019,-5.6528,-5.5835,-5.5226,-5.4921,-5.4668,-5.394,-5.3721,-5.3687,-5.3551,-5.3501,-5.3501,-5.3501,-5.3501,-5.3501,-5.3501,-5.3501,-5.3501,-5.3501,-5.3501,-5.3501,-5.3501,-5.3501,-5.3195,-5.2383,-5.2784,-5.3195,-5.3195,-5.2627,-5.254,-5.3416,-5.3994,-5.4374,-5.4374,-5.5042,-5.5535,-5.5706,-5.5723,-5.592,-5.6532,-5.5442,-5.4712,-5.4712,-5.4741,-5.473,-5.473,-5.5235,-5.5402,-5.5191,-5.4458,-5.4055,-5.398,-5.3971,-5.4116,-3.0705,-3.21,-3.3854,-3.5737,-3.5309,-3.5696,0.0,0.0,-3.6256,-3.9982,-4.1218,-4.2061,-4.376,-4.532,-4.5963,-4.5007,-4.7038,-4.9774,-5.2787,-5.3212,-5.3213,-5.3213,-5.3213,-5.3331,-5.3484,-5.3472,-5.3526,-5.3522,-5.0068,-4.9005,-5.1349,-5.1273,-5.1226,-5.1169,-5.1199,-5.124,-5.1194,-5.124,-5.124,-5.1179,-5.124,-5.1214,-5.1229,-5.117,-5.1194,-5.1429,-5.5437,-5.7413,-5.7926,-5.7887,-5.7881,-5.7881,-5.7881,-5.7881,-5.7881,-5.7881,-5.7831,-5.7763,-5.7763,-5.7289,-5.6664,-5.6579,-5.6122,-5.5446,-5.4702,-5.4465,-5.4329,-5.3687,-5.3501,-5.3501,-5.3501,-5.3501,-5.3501,-5.3501,-5.3501,-5.3501,-5.3501,-5.3501,-5.3501,-5.3501,-5.3501,-5.3433,-5.3348,-5.2627,-5.2082,-5.2082,-5.2784,-5.3348,-5.3501,-5.3551,-5.3601,-5.3601,-5.4264,-5.4982,-5.5649,-5.5692,-5.575,-5.5806,-5.5679,-5.557,-5.557,-5.5547,-5.5582,-5.5582,-5.4989,-5.4316,-5.3409,-5.26,-5.2056,-5.1759,-5.1794,-5.2227,-3.5332,-3.5955,-3.6476,0.0,-3.8307,-3.8885,-4.1223,-4.06,-3.9999,-4.1648,-4.2898,-4.4339,-4.6748,-4.7656,-4.8471,0.0,-5.0835,-5.2032,-5.3297,-5.3517,-5.3534,-5.3482,-5.3481,-5.3511,-5.3467,-5.3469,-5.2507,-5.0104,-4.9672,-5.0029,-5.1105,-5.1161,-5.1169,-5.1155,-5.117,-5.1194,-5.1172,-5.2732,-5.2732,-5.1172,-5.1165,-5.1202,-5.1202,-5.1224,-5.2017,-5.3815,-5.8513,-5.9496,-5.7874,-5.7893,-5.7881,-5.7881,-5.7881,-5.7881,-5.7881,-5.7881,-5.7881,-5.7881,-5.7881,-5.7695,-5.7357,-5.6934,-5.6596,-5.6122,-5.4938,-5.4583,-5.4448,-5.3704,-5.3501,-5.3501,-5.3501,-5.3501,-5.3501,-5.3501,-5.3501,-5.3501,-5.3501,-5.3501,-5.3501,-5.3501,-5.3501,-5.3501,-5.3501,-5.311,-5.287,-5.287,-5.2714,-5.2784,-5.3433,-5.3501,-5.3501,-5.3501,-5.3783,-5.4281,-5.4982,-5.5042,-5.5262,-5.5649,-5.532,-5.5042,-5.5042,-5.4029,-5.3494,-5.3494,-5.2619,-5.1916,-5.154,-5.1197,-5.115,-5.139,-5.1853,-5.2109,-3.7787,0.0,0.0,-3.903,-4.0123,-4.1076,-4.1462,-4.2244,-4.2935,-4.2918,-4.3826,-4.5463,-4.8455,-4.9023,-5.0004,-5.3011,-5.3477,-5.3465,-5.3484,-5.3517,-5.3517,-5.3467,-5.2744,-5.212,-5.1798,-5.2801,-5.1755,-4.758,-4.9704,-5.1172,-5.1163,-5.1203,-5.116,-5.1223,-5.1942,-5.233,-5.2284,-5.4225,-5.4225,-5.2299,-5.2307,-5.2263,-5.2278,-5.2254,-5.3322,-5.5455,-6.0337,-6.067,-5.7876,-5.7921,-5.7893,-5.7893,-5.7915,-5.7881,-5.7881,-5.7881,-5.7881,-5.7881,-5.7881,-5.7881,-5.7797,-5.7273,-5.7103,-5.6867,-5.5581,-5.5057,-5.4752,-5.4008,-5.367,-5.3501,-5.3501,-5.3501,-5.3501,-5.3501,-5.3501,-5.3501,-5.3501,-5.3501,-5.3501,-5.3501,-5.3501,-5.3501,-5.3501,-5.3501,-5.3501,-5.3501,-5.287,-5.2627,-5.3416,-5.3501,-5.3501,-5.3501,-5.3501,-5.3567,-5.3874,-5.3857,-5.3982,-5.4195,-5.3755,-5.3462,-5.3462,-5.2196,-5.1467,-5.1467,-5.0779,-5.0242,-4.9931,-4.9931,-5.0232,-5.079,-5.136,-5.1577,0.0,0.0,-3.934,-3.8833,-3.9988,-4.1539,-4.2812,-4.3838,-4.4517,-4.4546,-4.4552,-4.5503,-4.8497,-4.9023,-5.0004,-5.3011,-5.353,-5.3501,-5.3501,-5.3465,-5.3518,-5.3506,-5.0944,-4.8691,-4.757,-5.1137,-5.1793,-4.7628,-4.9698,-5.1152,-5.1169,-5.1214,-5.116,-5.1223,-5.3678,-5.5043,-5.5114,-5.5168,-5.5168,-5.5114,-5.5122,-5.5083,-5.5083,-5.5077,-5.5149,-5.5516,-6.0299,-6.0703,-5.7897,-5.7892,-5.7891,-5.7874,-5.7893,-5.7881,-5.7881,-5.7881,-5.7881,-5.7881,-5.7881,-5.7881,-5.7881,-5.7865,-5.7865,-5.7712,-5.6968,-5.6241,-5.553,-5.4769,-5.4042,-5.3501,-5.3501,-5.3501,-5.3501,-5.3501,-5.3501,-5.3501,-5.3501,-5.3501,-5.3501,-5.3501,-5.3501,-5.3501,-5.3501,-5.3501,-5.3501,-5.3501,-5.3501,-5.3433,-5.3518,-5.3501,-5.3501,-5.3501,-5.3501,-5.311,-5.2065,-5.1977,-5.1598,-5.0611,-5.0534,-5.055,-5.055,-5.0474,-5.049,-5.049,-5.0413,-4.9852,-4.8825,-4.8825,-4.9052,-4.9404,-4.9419,-5.0034,-3.8211,0.0,-4.0405,-4.0377,-4.1153,-4.2194,-4.3113,-4.3209,-4.3373,-4.4381,-4.4609,-4.4925,-4.5909,-4.7666,-5.0011,-5.298,-5.3522,-5.3482,-5.3484,-5.3517,-5.3517,-5.3467,-5.017,0.0,-4.7303,0.0,0.0,-4.9897,-5.0674,-5.1182,-5.1184,-5.2857,-5.3834,-5.3818,-5.4737,-5.5183,-5.516,-5.5155,-5.5155,-5.516,-5.5155,-5.521,-5.521,-5.5215,-5.5186,-5.5442,-6.0316,-6.1781,-6.0688,-5.874,-5.7891,-5.7874,-5.7893,-5.7881,-5.7881,-5.7881,-5.7881,-5.7881,-5.7881,-5.7881,-5.7881,-5.7881,-5.7881,-5.7746,-5.7019,-5.6292,-5.5564,-5.4803,-5.4059,-5.3619,-5.4093,-5.3873,-5.3619,-5.411,-5.3856,-5.3501,-5.3501,-5.3501,-5.3501,-5.3501,-5.3501,-5.3501,-5.3501,-5.3501,-5.3501,-5.3501,-5.3501,-5.3501,-5.3501,-5.287,-5.247,-5.247,-5.1865,-5.1336,-5.0946,-5.093,-5.0779,-5.0397,-5.0397,-5.0397,-5.0397,-4.9694,-4.9376,-4.9376,-4.8692,-4.837,-4.8501,-4.8501,-4.8935,-4.9912,-4.9912,-5.0376,-3.9668,-4.0422,-4.0737,-4.1222,-4.1709,-4.2233,-4.2854,-4.2631,-4.2736,-4.4283,-4.4572,-4.4258,-4.3199,-4.5392,-4.8396,-5.1418,-5.2802,-5.3525,-5.3517,-5.3517,-5.3534,-5.35,-5.066,-4.8481,0.0,0.0,0.0,-5.0463,-5.0982,-5.1197,-5.1199,-5.327,-5.4679,-5.5226,-5.5251,-5.5225,-5.5179,-5.5194,-5.5194,-5.5194,-5.5194,-5.5194,-5.5194,-5.5194,-5.6133,-5.7968,-6.1093,-6.2396,-6.2249,-6.0317,-5.8858,-5.79,-5.7921,-5.7876,-5.7881,-5.7881,-5.7881,-5.7881,-5.7881,-5.8065,-5.8246,-5.801,-5.8065,-5.8178,-5.745,-5.6494,-5.5683,-5.5446,-5.4482,-5.3737,-5.4735,-5.4262,-5.3687,-5.4414,-5.4042,-5.3501,-5.3501,-5.3501,-5.3501,-5.3501,-5.3501,-5.3501,-5.3501,-5.3501,-5.3501,-5.3501,-5.3179,-5.2956,-5.2956,-5.2312,-5.176,-5.1394,-5.0779,-5.0242,-4.9852,-4.9852,-4.9694,-4.9311,-4.9327,-4.9327,-4.9327,-4.861,-4.8293,-4.8293,-4.7835,-4.7863,-4.8282,-4.8521,-4.9194,-5.0242,-5.0481,-5.081,-4.0429,-4.0534,-4.0493,-4.1384,-4.1704,-4.189,-4.2303,-4.2432,-4.2814,-4.4303,-4.4483,-4.3503,-4.065,0.0,-4.5274,-4.8068,-5.1356,-5.3528,-5.3483,-5.3482,-5.3551,0.0,0.0,0.0,0.0,0.0,0.0,-4.9673,0.0,-5.1148,-5.1293,-5.2532,-5.3794,-5.5144,-5.5167,-5.524,-5.5194,-5.5194,-5.5194,-5.5194,-5.5194,-5.5194,-5.5194,-5.5325,-5.7843,-6.2232,-6.237,-6.2375,-6.2381,-6.2317,-6.0613,-5.8035,-5.795,-5.7971,-5.7932,-5.7898,-5.7954,-5.7954,-5.7954,-5.8441,-5.8993,-5.8263,-5.8494,-5.8925,-5.8192,-5.6955,-5.5919,-5.6613,-5.526,-5.394,-5.5395,-5.4702,-5.3805,-5.4532,-5.411,-5.3568,-5.3568,-5.3534,-5.3501,-5.3501,-5.3501,-5.3501,-5.3433,-5.3433,-5.3433,-5.3348,-5.259,-5.1954,-5.1921,-5.1832,-5.1394,-5.0397,-5.0242,-4.9852,-4.8825,-4.8743,-4.8293,-4.7381,-4.7309,-4.7309,-4.7309,-4.7309,-4.7324,-4.7354,-4.7967,-4.8312,-4.8386,-4.9015,-4.9643,-5.0301,-5.096,-5.1244,-3.9236,-4.0729,-4.2281,-4.2173,-4.2968,-4.3859,-4.3986,-4.4007,-4.4153,-4.4489,-4.2788,-4.0997,-4.0266,-4.075,0.0,-4.2266,-4.8606,0.0,-5.3517,-5.3501,0.0,-5.4987,0.0,-5.4142,-5.2957,-5.3086,0.0,0.0,-5.1046,-5.0829,-5.2078,-5.3164,-5.4179,-5.5152,-5.5155,-5.522,-5.5194,-5.5194,-5.5194,-5.5194,-5.5194,-5.5194,-5.531,-5.7043,-5.8594,-5.9829,-6.1628,-6.2382,-6.233,-6.1603,-6.0849,-6.0021,-5.9051,-5.8704,-5.866,-5.8101,-5.8263,-5.8806,-5.8806,-5.8925,-5.9178,-5.9656,-5.9443,-5.9044,-5.8875,-5.7738,-5.6562,-5.6748,-5.6004,-5.5361,-5.6292,-5.5835,-5.5344,-5.6055,-5.526,-5.4313,-5.4313,-5.389,-5.3501,-5.3501,-5.3501,-5.3264,-5.247,-5.2956,-5.2956,-5.141,-5.1999,-5.2441,-5.1987,-5.0534,-4.952,-4.9215,-4.8543,-4.8003,-4.7694,-4.7679,-4.7609,-4.7309,-4.7309,-4.7309,-4.7309,-4.7309,-4.7534,-4.8027,-4.8192,-4.8775,-4.9748,-4.9912,-5.0331,-5.099,-5.1648,-5.1693,-4.0458,-4.1822,-4.3124,-4.3255,-4.3961,-4.4584,-4.4616,-4.3571,-4.2617,-4.262,-4.1274,0.0,-3.8338,-4.0301,0.0,0.0,0.0,0.0,-5.3498,-5.4635,-5.5399,0.0,-5.5582,0.0,-5.459,-5.4623,-5.4712,0.0,-5.2816,-5.2113,-5.3021,-5.3698,-5.4269,-5.4735,-5.507,-5.5194,-5.5194,-5.5194,-5.5194,-5.5194,-5.594,-5.6473,-5.6883,-5.8153,-5.942,-6.0424,0.0,-6.1931,-6.2347,-6.1823,-6.1356,-6.0951,-5.9928,-5.9302,-5.8913,-5.8607,-5.8686,-5.9178,-5.9907,-6.0238,-6.0238,-6.0335,-6.0086,-5.9574,-5.9245,-5.805,-5.6867,-5.7188,-5.6528,-5.5953,-5.7002,-5.6511,-5.5902,-5.663,-5.5666,-5.4583,-5.4583,-5.4008,-5.3602,-5.3923,-5.385,-5.3506,-5.2933,-5.2933,-5.2564,-5.1371,-5.1629,-5.1804,-5.1497,-5.0165,-4.8934,-4.8256,-4.7609,-4.7429,-4.7713,-4.7743,-4.7863,-4.8147,-4.8162,-4.8162,-4.8162,-4.8162,-4.8341,-4.8716,-4.9,-4.9508,-5.0242,-5.0526,-5.1005,-5.1663,-5.2321,-5.2441,-4.2554,-4.3124,-4.3517,-4.4367,-4.4618,-4.4511,-4.409,-4.1681,-3.9514,-3.9476,0.0,-3.8804,-3.6582,-4.0459,-4.5022,-4.8065,0.0,-5.326,-5.3496,-5.5894,-5.6987,-5.5297,-5.5626,-5.5885,-5.5484,-5.6172,-5.6586,-5.6586,-5.5352,-5.4485,-5.4228,-5.4409,-5.4518,-5.4775,-5.5264,-5.5466,-5.5466,-5.5466,-5.5466,-5.5466,-5.7047,-5.8106,-5.8798,-5.8951,-6.019,-6.2098,-6.1184,0.0,-6.2381,-6.2381,-6.2009,-6.1349,-6.0587,-5.9841,-5.931,-5.9253,-5.936,-5.9604,-6.1095,-6.1659,-6.1659,-6.0956,-6.0598,-6.0291,-5.9509,-5.8187,-5.707,-5.7712,-5.6985,-5.6292,-5.756,-5.6951,-5.6156,-5.6799,-5.5886,-5.4888,-5.4888,-5.4313,-5.3991,-5.4617,-5.4362,-5.3971,-5.3803,-5.2999,-5.2187,-5.196,-5.1325,-5.0878,-5.0629,-5.0028,-4.9105,-4.7695,-4.7489,-4.7698,-4.8356,-4.8416,-4.8656,-4.9224,-4.9269,-4.9269,-4.9269,-4.9269,-4.9314,-4.9389,-4.9942,-5.0287,-5.0361,-5.0945,-5.1513,-5.2097,-5.283,-5.3129,-4.2486,-4.3394,-4.4367,-4.4536,-4.4618,-4.396,-4.1473,-3.857,0.0,0.0,-3.6373,-3.6987,-3.8954,-4.015,-4.2116,-4.5818,0.0,0.0,0.0,0.0,-5.6111,0.0,0.0,0.0,0.0,0.0,0.0,0.0,0.0,-5.7806,-5.6161,-5.5781,-5.642,-5.7987,-5.7119,-5.6719,-5.6719,-5.6719,-5.6719,-5.6719,-5.7947,-5.8653,-5.8824,-5.9849,-6.0499,-6.0985,-6.1743,0.0,-6.2381,-6.2381,-6.2313,-6.212,-6.1483,-6.1116,-6.0894,-6.0358,-6.0562,-6.1229,-6.153,-6.2023,-6.2567,-6.2446,-6.1492,-6.0353,-6.0211,-5.8992,-5.7729,-5.7848,-5.7712,-5.7577,-5.7814,-5.7695,-5.7543,-5.7679,-5.7053,-5.641,-5.641,-5.5852,-5.5378,-5.5497,-5.4712,-5.3744,-5.2858,-5.2525,-5.1729,-5.0068,-5.0877,-5.1118,-4.9747,-4.901,-4.8696,-4.888,-4.8446,-4.8386,-4.9045,-4.9105,-4.9149,-4.9254,-4.9269,-4.9269,-4.9269,-4.9269,-4.9508,-5.0047,-5.0182,-5.0511,-5.105,-5.1154,-5.1274,-5.1409,-5.2621,-5.289,-4.3369,-4.4041,-4.4587,-4.4587,-4.4589,-4.3795,-4.078,0.0,0.0,0.0,-3.5613,-3.5616,-3.5622,0.0,0.0,0.0,0.0,0.0,0.0,0.0,0.0,0.0,0.0,0.0,0.0,0.0,0.0,0.0,0.0,-5.9085,-5.8105,-5.7634,-5.7829,-5.8796,-5.8268,-5.79,-5.79,-5.79,-5.79,-5.7993,-5.9153,-5.9713,-5.98,-6.0953,-6.1578,-6.1578,-6.2127,0.0,-6.2381,-6.2381,-6.2659,-6.3004,-6.2275,-6.204,-6.2055,-6.1732,-6.1606,-6.1659,-6.2076,-6.2464,-6.2805,-6.2805,-6.1733,-6.0414,-6.0414,-5.9212,-5.7881,-5.7881,-5.7881,-5.7881,-5.7881,-5.7881,-5.7881,-5.7881,-5.734,-5.6697,-5.6325,-5.6258,-5.6275,-5.6275,-5.5197,-5.4131,-5.3662,-5.258,-5.1414,-5.044,-5.097,-5.1228,-5.0408,-4.9703,-4.9284,-4.9269,-4.8985,-4.906,-4.9718,-4.9778,-4.9927,-5.0272,-5.0287,-5.0287,-5.0287,-5.0287,-5.0421,-5.0735,-5.075,-5.09,-5.1214,-5.1214,-5.1573,-5.2261,-5.289,-5.3384,-4.4224,-4.4609,-4.4587,-4.4587,-4.463,-4.3818,-4.0798,-3.7752,0.0,0.0,-3.4702,-3.4054,-3.1889,0.0,-3.7287,0.0,-4.0064,0.0,0.0,0.0,0.0,0.0,0.0,0.0,0.0,0.0,0.0,0.0,0.0,0.0,-5.9729,-5.9404,-5.9346,-5.9522,-5.9346,-5.917,-5.917,-5.937,-5.9425,-5.9512,-6.087,-6.1555,-6.1555,-6.254,-6.299,-6.299,-6.299,0.0,0.0,-6.299,-6.3371,-6.3884,-6.3379,-6.3044,-6.2968,-6.3026,-6.2549,-6.1969,-6.2567,-6.2805,-6.2755,-6.2585,-6.1548,-6.0414,-6.0414,-5.9212,-5.7881,-5.7881,-5.7881,-5.7881,-5.7881,-5.7881,-5.7881,-5.7881,-5.7459,-5.6884,-5.6308,-5.663,-5.7036,-5.7036,-5.5686,-5.4589,-5.4589,-5.2738,-5.1214,-5.1214,-5.1214,-5.1214,-5.1214,-5.0765,-5.0257,-4.9733,-4.9553,-4.9733,-5.0391,-5.0451,-5.0676,-5.1184,-5.1214,-5.1214,-5.1214,-5.1214,-5.1214,-5.1214,-5.1214,-5.1214,-5.1214,-5.1214,-5.1828,-5.298,-5.3114,-5.3832,-4.4343,-4.4618,-4.4587,-4.4587,-4.463,-4.3818,-4.0764,0.0,0.0,-3.2402,-3.1872,-3.1789,-3.1527,-3.3789,-3.615,-3.7499,0.0,-4.2506,0.0,0.0,0.0,0.0,0.0,0.0,0.0,0.0,0.0,0.0,0.0,0.0,-6.0571,-6.0468,-6.0953,-6.203,-6.1036,-6.0417,-6.0417,-6.1196,-6.1576,-6.1655,-6.362,-6.4629,-6.4629,-6.4732,-6.4732,-6.4732,-6.4732,-6.4732,0.0,-6.4732,-6.4799,-6.4862,-6.4849,-6.4441,-6.3802,-6.3927,-6.3419,-6.2705,-6.2755,-6.2805,-6.2686,-6.1969,-6.1131,-6.0414,-6.0414,-5.9212,-5.7881,-5.7881,-5.7881,-5.7881,-5.7881,-5.7881,-5.7881,-5.7881,-5.7831,-5.7763,-5.7695,-5.7746,-5.778,-5.778,-5.6109,-5.4589,-5.4589,-5.2738,-5.1214,-5.1214,-5.1214,-5.1214,-5.1214,-5.1169,-5.1109,-5.105,-5.0511,-5.0421,-5.1065,-5.1124,-5.1154,-5.1214,-5.1214,-5.1214,-5.1214,-5.1214,-5.1214,-5.1214,-5.1214,-5.1214,-5.1214,-5.1214,-5.1588,-5.2306,-5.2905,-5.3578,-4.4014,-4.4618,-4.4587,-4.4587,-4.463,-4.3818,-4.0764,0.0,-3.4832,-3.2067,-3.1513,-3.1492,-3.1498,-3.371,-3.568,-3.6328,-3.8023,-4.0252,-4.3114,0.0,0.0,0.0,0.0,0.0,0.0,0.0,0.0,0.0,0.0,0.0,-6.3238,-6.3238,-6.3508,-6.3954,-6.3508,-6.3238,-6.3238,-6.3549,-6.3745,-6.3745,-6.4594,-6.4999,-6.4999,-6.4999,-6.4999,-6.4999,-6.4999,-6.5201,0.0,-6.5484,-6.5976,-6.6829,-6.6838,-6.6463,-6.5907,-6.5483,-6.4549,-6.3503,-6.2989,-6.2805,-6.2686,-6.1842,-6.1073,-6.0291,-5.9768,-5.8823,-5.7881,-5.7881,-5.7881,-5.7881,-5.7881,-5.7881,-5.7881,-5.7881,-5.7881,-5.7881,-5.7881,-5.7881,-5.7881,-5.7881,-5.6142,-5.4589,-5.4589,-5.2738,-5.1214,-5.1214,-5.1214,-5.1214,-5.1214,-5.1214,-5.1214,-5.1214,-5.099,-5.093,-5.1199,-5.1214,-5.1214,-5.1214,-5.1214,-5.1214,-5.1214,-5.1214,-5.1214,-5.1214,-5.1214,-5.1409,-5.1813,-5.1813,-5.2351,-5.3414,-5.3683,-5.4162,-4.3206,-4.4262,-4.4614,-4.4614,-4.4596,-4.3818,0.0,-3.7744,-3.4824,-3.2049,-3.1472,-3.1715,-3.2555,-3.4949,-3.6843,0.0,-3.7767,-3.9214,-4.1275,-4.3649,0.0,0.0,0.0,0.0,0.0,0.0,0.0,0.0,0.0,0.0,-6.4999,-6.5536,-6.5536,-6.4999,-6.4999,-6.4999,-6.4999,-6.5279,-6.5408,-6.5408,-6.5681,-6.5806,-6.5806,-6.5806,-6.5876,-6.6049,-6.6049,0.0,0.0,-6.6864,-6.7455,-6.8376,-6.8376,-6.804,-6.746,-6.6721,-6.5728,-6.4556,-6.3516,-6.3002,-6.2652,-6.1564,-6.07,-5.9832,-5.8993,-5.8317,-5.7881,-5.7881,-5.7881,-5.7881,-5.7881,-5.7881,-5.7881,-5.7881,-5.7881,-5.7881,-5.7881,-5.7881,-5.7881,-5.7881,-5.6142,-5.4589,-5.4589,-5.2738,-5.1214,-5.1214,-5.1214,-5.1214,-5.1214,-5.1214,-5.1214,-5.1214,-5.1214,-5.1214,-5.1214,-5.1214,-5.1214,-5.1214,-5.1214,-5.1214,-5.1214,-5.1214,-5.1214,-5.1214,-5.1409,-5.1738,-5.2202,-5.2396,-5.3084,-5.4206,-5.4206,-5.4566,-4.1914,-4.3464,-4.461,-4.461,-4.4619,-4.3818,0.0,-3.7752,-3.4834,-3.2076,-3.1472,-3.2329,-3.4984,-3.797,-4.0067,-4.0055,-4.0057,-4.0073,-4.0123,-4.3941,0.0,0.0,0.0,0.0,0.0,0.0,0.0,0.0,0.0,0.0,-6.4999,-6.6682,-6.6874,-6.5065,-6.4999,-6.4999,-6.4999,-6.5904,-6.6404,-6.6404,-6.723,-6.7687,-6.7687,-6.7687,-6.7963,-6.8445,0.0,0.0,0.0,-6.9253,-6.9253,-6.9313,-6.9313,-6.8803,-6.8027,-6.7472,-6.676,-6.5895,-6.4543,-6.3492,-6.2537,-6.0907,-5.9832,-5.8993,-5.8137,-5.7898,-5.7881,-5.7881,-5.7881,-5.7881,-5.7881,-5.7881,-5.7881,-5.7881,-5.7881,-5.7881,-5.7881,-5.7881,-5.7881,-5.7881,-5.6142,-5.4589,-5.4589,-5.2738,-5.1214,-5.1214,-5.1214,-5.1214,-5.1214,-5.1214,-5.1214,-5.1214,-5.1214,-5.1214,-5.1214,-5.1214,-5.1214,-5.1214,-5.1214,-5.1214,-5.1214,-5.1214,-5.1214,-5.1214,-5.1858,-5.2187,-5.2202,-5.286,-5.3533,-5.4206,-5.4206,-5.4566,-4.0679,-4.2655,-4.4629,-4.4613,-4.3066,-4.1274,-4.0322,-3.9345,-3.7864,-3.4931,-3.5963,-3.7633,-3.8475,-3.9466,-4.01,-4.0083,-4.0122,0.0,0.0,0.0,0.0,0.0,0.0,0.0,0.0,0.0,0.0,0.0,0.0,0.0,-6.5886,-6.7099,-6.7415,-6.6874,-6.6874,-6.6874,-6.6874,-6.7156,-6.7304,-6.7304,-6.7561,-6.7687,-6.7687,-6.7687,-6.781,0.0,0.0,0.0,0.0,-6.9701,-7.0061,-7.0381,-7.0381,-7.0009,-6.9355,-6.8235,-6.7436,-6.663,-6.4764,-6.351,-6.2537,-6.0907,-5.9832,-5.8925,-5.8137,-5.7881,-5.7881,-5.7881,-5.7881,-5.7881,-5.7881,-5.7881,-5.7881,-5.7881,-5.7881,-5.7881,-5.7881,-5.7881,-5.7645,-5.687,-5.5571,-5.4337,-5.3569,-5.223,-5.1214,-5.1214,-5.1214,-5.1214,-5.1214,-5.1214,-5.1214,-5.1214,-5.1214,-5.1214,-5.1214,-5.1214,-5.1214,-5.1214,-5.1214,-5.1214,-5.1214,-5.1214,-5.1214,-5.1214,-5.1872,-5.2426,-5.2875,-5.3548,-5.4221,-5.488,-5.488,-5.4999,0.0,-4.0238,-4.1189,-4.1206,-3.98,-3.8707,-3.9849,-4.0121,-3.9547,-3.7702,-3.8783,-4.0127,-4.0101,-4.0081,-4.0093,-4.0091,-4.2929,0.0,0.0,0.0,0.0,0.0,0.0,0.0,0.0,0.0,0.0,0.0,0.0,0.0,-6.5806,-6.67,-6.7359,-6.7687,-6.7687,-6.7687,-6.7687,-6.7687,-6.7687,-6.7687,-6.7687,-6.7522,-6.7247,-6.7247,-6.7369,0.0,0.0,0.0,0.0,-7.0181,-7.0603,-7.0898,-7.0898,-7.0573,-6.9985,-6.8925,-6.8227,-6.743,-6.4901,-6.3689,-6.282,-6.0635,-5.952,-5.8992,-5.8506,-5.8118,-5.7881,-5.7881,-5.7881,-5.7881,-5.7881,-5.7881,-5.7881,-5.7881,-5.7881,-5.7881,-5.7881,-5.7554,-5.7039,-5.636,-5.497,-5.3742,-5.2989,-5.1972,-5.1214,-5.1214,-5.1214,-5.1214,-5.1214,-5.1214,-5.1214,-5.1214,-5.1214,-5.1214,-5.1214,-5.1214,-5.1214,-5.1214,-5.1214,-5.1214,-5.1214,-5.1214,-5.1334,-5.1588,-5.2232,-5.2905,-5.3563,-5.4251,-5.479,-5.5194,-5.5194,-5.5194,0.0,-3.6702,-3.5613,-3.563,-3.5778,-3.6638,-3.9463,-4.0085,0.0,-4.0087,-4.0102,-4.0252,-4.0646,-4.0408,-4.0121,-4.024,-4.7437,0.0,0.0,0.0,0.0,0.0,0.0,0.0,0.0,0.0,0.0,0.0,0.0,0.0,-6.476,-6.5806,-6.6758,-6.7523,-6.765,-6.7687,-6.7687,-6.7687,-6.7687,-6.7687,-6.7632,-6.721,-6.6494,-6.6439,-6.6727,0.0,0.0,0.0,0.0,-7.0573,-7.0777,-7.0777,-7.0777,-7.0494,-6.9973,-6.9414,-6.8891,-6.7993,-6.5113,-6.3954,-6.3299,-6.018,-5.9145,-5.9082,-5.9032,-5.8524,-5.7949,-5.7898,-5.7881,-5.7881,-5.7881,-5.7932,-5.7949,-5.7898,-5.7932,-5.7949,-5.7808,-5.6963,-5.6109,-5.6031,-5.4305,-5.29,-5.2812,-5.1896,-5.1229,-5.1274,-5.1289,-5.1289,-5.1289,-5.1334,-5.1319,-5.1229,-5.1259,-5.1274,-5.1214,-5.1214,-5.1244,-5.1289,-5.1244,-5.1259,-5.1349,-5.1319,-5.1603,-5.2261,-5.292,-5.3593,-5.4281,-5.4895,-5.528,-5.528,-5.528,-5.528,-3.6021,0.0,-3.5579,-3.5572,-3.7326,-3.9221,0.0,-4.0095,0.0,0.0,0.0,-4.1478,-4.6048,-4.3169,-4.0491,-4.1604,0.0,0.0,0.0,0.0,0.0,0.0,0.0,0.0,0.0,0.0,0.0,0.0,0.0,-6.3514,-6.3189,-6.5187,-6.6234,-6.5815,-6.7012,-6.7687,-6.7687,-6.7687,-6.7687,-6.7687,-6.7063,-6.6678,-6.6476,-6.587,-6.6011,0.0,0.0,0.0,-6.8891,-6.9453,-6.9664,-6.9664,-6.9664,-6.9588,-6.9414,-6.891,-6.8171,-6.7277,-6.547,-6.4009,-6.2579,-6.0527,-5.9824,-5.9742,-5.9184,-5.8896,-5.8626,-5.8051,-5.7881,-5.7881,-5.7881,-5.8321,-5.8609,-5.8017,-5.8321,-5.8336,-5.6911,-5.636,-5.5698,-5.3967,-5.3237,-5.2649,-5.1727,-5.1386,-5.1394,-5.1887,-5.1962,-5.1962,-5.1962,-5.2411,-5.2336,-5.1334,-5.1678,-5.1768,-5.1259,-5.1214,-5.1439,-5.1932,-5.1498,-5.1678,-5.268,-5.2232,-5.2276,-5.2935,-5.3623,-5.4296,-5.497,-5.5119,-5.5635,-5.6526,-5.5635,-5.5735,-3.5622,-3.5597,-3.5613,-3.5596,-3.7885,-4.0092,-4.0101,0.0,0.0,0.0,0.0,0.0,-4.4337,0.0,0.0,0.0,0.0,0.0,0.0,0.0,0.0,0.0,0.0,0.0,0.0,0.0,0.0,0.0,0.0,-6.3262,-6.3113,-6.4087,-6.4632,-6.4624,-6.5154,-6.6203,-6.7687,-6.7687,-6.7504,-6.7136,-6.6714,-6.5913,-6.4804,-6.4731,-6.4674,0.0,0.0,0.0,-6.7332,-6.7874,-6.8331,-6.8647,-6.8267,-6.8213,-6.825,-6.7557,-6.6792,-6.5989,-6.4446,-6.2838,-6.1422,-6.1181,-6.0926,-6.052,-5.9742,-5.9776,-5.9759,-5.8304,-5.7881,-5.7881,-5.7881,-5.8457,-5.8913,-5.8507,-5.8556,-5.8386,-5.7371,-5.6368,-5.5277,-5.4025,-5.3422,-5.2806,-5.2192,-5.2112,-5.2232,-5.2591,-5.265,-5.2546,-5.2232,-5.277,-5.2785,-5.1783,-5.1992,-5.2172,-5.2127,-5.1843,-5.1813,-5.2172,-5.1872,-5.2127,-5.3144,-5.283,-5.2965,-5.3638,-5.4326,-5.4835,-5.5194,-5.5194,-5.5551,-5.6183,-5.6085,-5.6085,-3.591,-3.6004,-3.6137,-3.6519,-3.8538,-4.0375,0.0,0.0,0.0,0.0,0.0,0.0,0.0,0.0,0.0,0.0,0.0,0.0,0.0,0.0,0.0,0.0,0.0,0.0,0.0,0.0,0.0,0.0,0.0,-6.2668,-6.3289,-6.2972,-6.3032,-6.3511,-6.3264,-6.4409,-6.7085,-6.6975,-6.6592,-6.5916,-6.5788,-6.4693,-6.2803,-6.3267,-6.3267,-6.2956,0.0,0.0,-6.5743,-6.6222,-6.6896,-6.7469,-6.6718,-6.661,-6.6774,-6.5976,-6.5286,-6.4577,-6.3099,-6.1662,-6.0672,-6.1975,-6.1975,-6.1315,-6.052,-6.0757,-6.0875,-5.8812,-5.8237,-5.8237,-5.8237,-5.8795,-5.9244,-5.8959,-5.8702,-5.8347,-5.7887,-5.6248,-5.49,-5.4715,-5.3899,-5.3174,-5.3174,-5.3174,-5.3219,-5.3324,-5.3339,-5.3129,-5.2576,-5.3084,-5.3189,-5.2441,-5.2441,-5.2695,-5.3144,-5.2665,-5.2396,-5.2501,-5.2411,-5.265,-5.3309,-5.3428,-5.3758,-5.4341,-5.491,-5.5194,-5.5194,-5.5194,-5.528,-5.5466,-5.6541,-5.6588,-3.7195,-3.7848,-3.8654,-4.075,-4.1626,-4.1641,0.0,0.0,0.0,0.0,0.0,0.0,0.0,0.0,0.0,0.0,0.0,0.0,0.0,0.0,0.0,0.0,0.0,0.0,0.0,0.0,0.0,0.0,0.0,-6.2188,-6.1698,-6.2867,-6.3011,-6.1918,-6.3714,-6.4581,-6.4492,-6.3832,-6.3502,-6.3377,-6.2656,-6.2505,-6.2693,-6.216,-6.2496,-6.3607,0.0,-6.4415,-6.5125,-6.5201,-6.5312,-6.5439,-6.5312,-6.5283,-6.5319,-6.519,-6.4562,-6.3757,-6.2778,-6.2266,-6.2076,-6.2313,-6.2313,-6.2076,-6.1349,-6.1197,-6.1095,-6.0047,-5.9759,-5.9759,-5.9759,-6.0351,-6.0526,-5.8797,-5.8872,-5.8638,-5.5963,-5.5145,-5.4622,-5.3627,-5.3368,-5.3174,-5.3174,-5.3174,-5.3369,-5.3967,-5.4057,-5.4012,-5.3922,-5.4476,-5.4401,-5.3159,-5.3548,-5.3698,-5.3219,-5.3084,-5.3279,-5.3862,-5.3354,-5.3339,-5.4027,-5.4581,-5.4925,-5.5044,-5.5149,-5.5194,-5.5194,-5.5194,-5.5735,-5.6719,-5.688,-5.7746,-3.6485,-3.7708,-3.9074,-4.0223,-4.2038,-4.3352,0.0,0.0,0.0,0.0,0.0,0.0,0.0,0.0,0.0,0.0,0.0,0.0,0.0,0.0,0.0,0.0,0.0,0.0,0.0,0.0,0.0,0.0,0.0,0.0,-6.1315,-6.2012,-6.2084,-6.1383,-6.1993,-6.221,-6.1864,-6.1518,-6.1985,-6.3317,-6.2539,-6.2105,-6.2013,-6.1999,-6.2161,-6.2468,0.0,-6.3245,-6.3574,-6.3574,-6.39,-6.4218,-6.3757,-6.39,-6.4218,-6.3774,-6.3297,-6.2914,-6.252,-6.2381,-6.2381,-6.2381,-6.2381,-6.2245,-6.1518,-6.1586,-6.1721,-6.096,-6.0436,-6.0097,-6.0097,-6.0236,-6.0118,-5.9152,-5.8572,-5.7772,-5.6295,-5.554,-5.491,-5.4351,-5.4266,-5.4266,-5.4266,-5.4266,-5.4371,-5.4685,-5.4745,-5.461,-5.4266,-5.479,-5.482,-5.3832,-5.4027,-5.4221,-5.4266,-5.3937,-5.3862,-5.4192,-5.4251,-5.4401,-5.473,-5.5029,-5.5194,-5.5194,-5.5194,-5.5194,-5.5194,-5.5194,-5.5466,-5.5986,-5.6719,-5.7348,-3.6062,-3.755,-3.9073,-3.9428,0.0,0.0,0.0,0.0,0.0,0.0,0.0,0.0,0.0,0.0,0.0,0.0,0.0,0.0,0.0,0.0,0.0,0.0,0.0,0.0,0.0,0.0,0.0,0.0,0.0,0.0,-6.1028,-6.1197,-6.1214,-6.1028,-6.0774,-6.0554,-6.0385,-6.0385,-6.1234,-6.2921,-6.2392,-6.183,-6.1424,-6.1993,-6.1964,-6.1586,-6.2144,-6.2381,-6.2381,-6.2381,-6.2779,-6.3314,-6.2659,-6.2779,-6.3314,-6.2659,-6.2381,-6.2381,-6.2381,-6.2381,-6.2381,-6.2381,-6.2381,-6.2279,-6.1721,-6.1941,-6.2279,-6.1721,-6.0941,-6.0203,-6.0203,-6.0018,-5.9579,-5.904,-5.7931,-5.6896,-5.6623,-5.5819,-5.5194,-5.5194,-5.5194,-5.5194,-5.5194,-5.5194,-5.5194,-5.5194,-5.5194,-5.4999,-5.4506,-5.488,-5.4999,-5.4491,-5.4446,-5.464,-5.5149,-5.473,-5.4446,-5.4446,-5.491,-5.5194,-5.5194,-5.5194,-5.5381,-5.5651,-5.5365,-5.5381,-5.5635,-5.5531,-5.5418,-5.5418,-5.6843,-5.7371,-3.7364,-3.8345,-3.9326,-4.0696,0.0,0.0,0.0,0.0,0.0,0.0,0.0,0.0,0.0,0.0,0.0,0.0,0.0,0.0,0.0,0.0,0.0,0.0,0.0,0.0,0.0,0.0,0.0,0.0,0.0,0.0,-6.0182,-6.0892,-6.096,-6.0216,-6.1518,-6.1907,-6.1214,-6.1214,-6.0935,-6.0374,-6.0323,-6.0621,-6.1291,-6.1341,-6.1731,-6.2313,-6.2364,-6.2381,-6.2381,-6.2381,-6.2459,-6.2459,-6.2381,-6.2459,-6.2459,-6.2381,-6.2381,-6.2381,-6.2381,-6.2381,-6.2381,-6.2381,-6.2381,-6.2381,-6.233,-6.2347,-6.2381,-6.233,-6.1461,-6.0521,-6.0521,-6.0554,-5.9977,-5.7713,-5.7135,-5.6719,-5.5551,-5.528,-5.5194,-5.5194,-5.5194,-5.5194,-5.5194,-5.5194,-5.5194,-5.5194,-5.5194,-5.5179,-5.5119,-5.5164,-5.5179,-5.5119,-5.5119,-5.5149,-5.5194,-5.5149,-5.5119,-5.5119,-5.5164,-5.5194,-5.5194,-5.5194,-5.5735,-5.68,-5.5735,-5.572,-5.6896,-5.634,-5.6107,-5.6209,-5.7909,-5.9139,-3.6332,-3.8058,0.0,0.0,0.0,0.0,0.0,0.0,0.0,0.0,0.0,0.0,0.0,0.0,0.0,0.0,0.0,0.0,0.0,0.0,0.0,0.0,0.0,0.0,0.0,0.0,0.0,0.0,0.0,0.0,-5.9438,-6.0148,-6.0419,-6.0114,-6.1146,-6.1586,-6.1298,-6.1755,-6.1823,-6.1518,-6.1061,-6.1247,-6.1975,-6.1975,-6.2127,-6.2381,-6.2381,-6.2381,-6.2381,-6.2381,-6.2381,-6.2381,-6.2381,-6.2381,-6.2381,-6.2381,-6.2381,-6.2381,-6.2381,-6.2381,-6.2381,-6.2381,-6.2381,-6.2381,-6.2381,-6.2381,-6.2206,-6.1497,-6.0953,-6.0602,-6.0602,-5.9522,-5.8161,-5.7261,-5.6445,-5.5735,-5.528,-5.5194,-5.5194,-5.5194,-5.5194,-5.5194,-5.5194,-5.5194,-5.5194,-5.5194,-5.5194,-5.5194,-5.5194,-5.5194,-5.5194,-5.5194,-5.5194,-5.5194,-5.5194,-5.5194,-5.5194,-5.5194,-5.5194,-5.5194,-5.5194,-5.5903,-5.6526,-5.6976,-5.6541,-5.6526,-5.6991,-5.6486,-5.6166,-5.6196,-5.7281,-5.8137,-3.5994,-3.7838,-3.9749,0.0,0.0,0.0,0.0,0.0,0.0,0.0,0.0,0.0,0.0,0.0,0.0,0.0,0.0,0.0,0.0,0.0,0.0,0.0,0.0,0.0,0.0,0.0,0.0,0.0,0.0,0.0,0.0,-5.9353,-5.9759,-5.9759,-6.052,-6.0926,-6.0926,-6.167,-6.2042,-6.2042,-6.1772,-6.1907,-6.2381,-6.2381,-6.2381,-6.2381,-6.2381,-6.2381,-6.2381,-6.2381,-6.2381,-6.2381,-6.2381,-6.2381,-6.2381,-6.2381,-6.2381,-6.2381,-6.2381,-6.2381,-6.2381,-6.2381,-6.2381,-6.2381,-6.2381,-6.211,-6.1676,-6.0854,-6.0059,-5.9418,-5.9418,-5.8252,-5.6896,-5.6541,-5.5819,-5.5194,-5.5194,-5.5194,-5.5194,-5.5194,-5.5194,-5.5194,-5.5194,-5.5194,-5.5194,-5.5194,-5.5194,-5.5194,-5.5194,-5.5194,-5.5194,-5.5194,-5.5194,-5.5194,-5.5194,-5.5194,-5.5194,-5.5194,-5.5551,-5.5735,-5.5735,-5.6526,-5.7339,-5.8161,-5.7339,-5.7166,-5.7543,-5.6686,-5.6271,-5.6481,-5.7109,-5.7782,-3.6772,-3.7872,0.0,0.0,0.0,0.0,0.0,0.0,0.0,0.0,0.0,0.0,0.0,0.0,0.0,0.0,0.0,0.0,0.0,0.0,0.0,0.0,0.0,0.0,0.0,0.0,0.0,0.0,0.0,0.0,0.0,-5.8592,-5.8998,-5.8998,-5.9708,-6.008,-6.008,-6.0892,-6.1298,-6.1315,-6.2042,-6.2381,-6.2381,-6.2381,-6.2381,-6.2381,-6.2381,-6.2381,-6.2381,-6.2381,-6.2381,-6.2381,-6.2381,-6.2381,-6.2381,-6.2381,-6.2381,-6.2381,-6.2381,-6.2381,-6.2381,-6.2381,-6.2381,-6.2381,-6.2398,-6.1578,-6.0602,-6.0586,-5.887,-5.6976,-5.6991,-5.6976,-5.6719,-5.5451,-5.5194,-5.5194,-5.5194,-5.5194,-5.5194,-5.5194,-5.5194,-5.5194,-5.5194,-5.5194,-5.5194,-5.5194,-5.5194,-5.5194,-5.5194,-5.5194,-5.5194,-5.5194,-5.5194,-5.5194,-5.5194,-5.5194,-5.5194,-5.5194,-5.6363,-5.6976,-5.6976,-5.6976,-5.8161,-6.0501,-5.8252,-5.7621,-5.8812,-5.7052,-5.6481,-5.7109,-5.7797,-5.8471,-3.6924,-3.8988,0.0,0.0,0.0,0.0,0.0,0.0,0.0,0.0,0.0,0.0,0.0,0.0,0.0,0.0,0.0,0.0,0.0,0.0,0.0,0.0,0.0,0.0,0.0,0.0,0.0,0.0,0.0,0.0,0.0,-5.8101,-5.822,-5.822,-5.8947,-5.9336,-5.9336,-6.0639,-6.1298,-6.1315,-6.2042,-6.2381,-6.2381,-6.2381,-6.2381,-6.2381,-6.2381,-6.2381,-6.2381,-6.2381,-6.2381,-6.2381,-6.2381,-6.2381,-6.2381,-6.2381,-6.2381,-6.2381,-6.2381,-6.2381,-6.2381,-6.2381,-6.2381,-6.2206,-6.1399,-6.087,-6.023,-5.8526,-5.7527,-5.68,-5.5903,-5.5735,-5.5635,-5.528,-5.5194,-5.5194,-5.5194,-5.5194,-5.5194,-5.5194,-5.5194,-5.5194,-5.5194,-5.5194,-5.5194,-5.5194,-5.5194,-5.5194,-5.5194,-5.5194,-5.5194,-5.5194,-5.5194,-5.5194,-5.5194,-5.6001,-5.6445,-5.6445,-5.7637,-5.79,-5.7071,-5.8616,-5.987,-6.0602,-5.987,-5.9242,-5.8812,-5.7881,-5.7111,-5.6466,-5.7603,-5.8231,-3.8345,0.0,0.0,0.0,0.0,0.0,0.0,0.0,0.0,0.0,0.0,0.0,0.0,0.0,0.0,0.0,0.0,0.0,0.0,0.0,0.0,0.0,0.0,0.0,0.0,0.0,0.0,0.0,0.0,0.0,0.0,-5.7881,-5.7881,-5.7881,-5.8321,-5.8558,-5.8558,-5.9793,-6.0537,-6.0842,-6.1603,-6.211,-6.2381,-6.2381,-6.2381,-6.2381,-6.2381,-6.2381,-6.2381,-6.2381,-6.2381,-6.2381,-6.1854,-6.1659,-6.1659,-6.1659,-6.1659,-6.1756,-6.2206,-6.2381,-6.2381,-6.2381,-6.211,-6.1578,-6.0854,-5.9957,-5.8886,-5.7434,-5.6623,-5.6085,-5.5365,-5.5194,-5.5194,-5.5194,-5.5194,-5.5194,-5.5194,-5.5194,-5.5194,-5.5194,-5.5194,-5.5194,-5.5194,-5.5194,-5.5194,-5.5194,-5.5194,-5.5194,-5.5194,-5.5194,-5.5194,-5.5194,-5.5635,-5.5918,-5.5918,-5.6991,-5.7714,-5.7714,-5.8886,-5.917,-5.8435,-5.987,-6.087,-6.1317,-6.0854,-5.9973,-5.8812,-5.7966,-5.7113,-5.6196,-5.6974,-5.7633,0.0,0.0,0.0,0.0,0.0,0.0,0.0,0.0,0.0,0.0,0.0,0.0,0.0,0.0,0.0,0.0,0.0,0.0,0.0,0.0,0.0,0.0,0.0,0.0,0.0,0.0,0.0,0.0,0.0,0.0,0.0,-5.7881,-5.7881,-5.7881,-5.7881,-5.7881,-5.7881,-5.8643,-5.9353,-6.0013,-6.0808,-6.1535,-6.2195,-6.233,-6.2381,-6.2381,-6.2381,-6.2381,-6.2381,-6.2285,-6.2172,-6.2026,-6.0837,-6.0384,-6.0318,-6.04,-6.0417,-6.0602,-6.1676,-6.211,-6.211,-6.211,-6.1317,-6.0417,-6.0332,-5.8706,-5.6991,-5.6896,-5.61,-5.5194,-5.5194,-5.5194,-5.5194,-5.5194,-5.5194,-5.5194,-5.5194,-5.5194,-5.5194,-5.5194,-5.5194,-5.5194,-5.5194,-5.5194,-5.5194,-5.5194,-5.5194,-5.5194,-5.5194,-5.5194,-5.528,-5.5365,-5.6363,-5.7071,-5.7166,-5.8177,-5.8812,-5.8812,-5.9973,-6.0501,-6.0417,-6.0686,-6.1218,-6.2206,-6.1136,-5.9973,-5.8632,-5.7527,-5.6669,-5.6092,-5.6152,-5.684,0.0,0.0,0.0,0.0,0.0,0.0,0.0,0.0,0.0,0.0,0.0,0.0,0.0,0.0,0.0,0.0,0.0,0.0,0.0,0.0,0.0,0.0,0.0,0.0,0.0,0.0,0.0,0.0,0.0,0.0,-5.7881,-5.7881,-5.7881,-5.7881,-5.7881,-5.7881,-5.7881,-5.8643,-5.9099,0.0,-5.9996,-6.0436,-6.0639,-6.1839,-6.2381,-6.2381,-6.2381,-6.2381,-6.2302,-6.1399,-6.0705,-6.0158,-5.9486,-5.8903,-5.8468,-5.896,-5.917,-5.9258,-5.9522,-5.961,-5.961,-5.961,-5.9434,-5.8992,-5.8069,-5.7434,-5.68,-5.5819,-5.5365,-5.5194,-5.5194,-5.5194,-5.5194,-5.5194,-5.5194,-5.5194,-5.5194,-5.5194,-5.5194,-5.5194,-5.5194,-5.5194,-5.5194,-5.5194,-5.5194,-5.5194,-5.5194,-5.5194,-5.5194,-5.5194,-5.5551,-5.6541,-5.68,-5.7339,-5.836,-5.8632,-5.8812,-5.8812,-5.9973,-6.0161,-5.9258,-6.1036,-6.1676,-6.1036,-6.077,-5.9522,-5.7355,-5.7166,-5.6424,-5.5418,-5.5927,-5.6585,0.0,0.0,0.0,0.0,0.0,0.0,0.0,0.0,0.0,0.0,0.0,0.0,0.0,0.0,0.0,0.0,0.0,0.0,0.0,0.0,0.0,0.0,0.0,0.0,0.0,0.0,0.0,0.0,0.0,-5.7881,-5.7881,-5.7881,-5.7881,-5.7881,-5.7881,-5.7881,-5.7881,-5.8271,-5.866,-5.9015,-5.9404,-5.9759,-6.0131,-6.0926,-6.1501,-6.1839,-6.1467,-6.1518,-6.1761,-6.0755,-5.984,-5.9037,-5.8097,-5.7417,-5.6983,-5.7362,-5.7709,-5.7993,-5.8632,-5.8812,-5.8812,-5.8812,-5.8451,-5.7807,-5.7166,-5.6623,-5.6001,-5.5365,-5.5194,-5.5194,-5.5194,-5.5194,-5.5194,-5.5194,-5.5194,-5.5194,-5.5194,-5.5194,-5.5194,-5.5194,-5.5194,-5.5194,-5.5194,-5.5194,-5.5194,-5.5194,-5.5194,-5.5194,-5.5194,-5.5194,-5.5466,-5.6085,-5.7166,-5.79,-5.79,-5.8992,-5.9434,-5.8812,-5.9346,-5.9434,-5.8812,-5.9973,-6.0417,-5.9713,-5.9697,-5.8796,-5.6976,-5.6976,-5.6363,-5.5209,-5.5538,-5.6196,0.0,0.0,0.0,0.0,0.0,0.0,0.0,0.0,0.0,0.0,0.0,0.0,0.0,0.0,0.0,0.0,0.0,0.0,0.0,0.0,0.0,0.0,0.0,0.0,0.0,0.0,0.0,0.0,0.0,-5.7881,-5.7881,-5.7881,-5.7881,-5.7881,-5.7881,-5.7881,-5.7881,-5.7881,-5.8203,-5.8829,-5.8829,-5.9133,-5.9725,-5.9725,-6.0216,-6.1061,-6.0385,-6.0486,-6.1044,-5.9951,-5.8923,-5.7904,-5.6637,-5.5743,-5.5378,-5.5625,-5.6056,-5.6645,-5.7776,-5.8177,-5.8177,-5.8177,-5.7543,-5.6719,-5.6719,-5.6001,-5.5194,-5.5194,-5.5194,-5.5194,-5.5194,-5.5194,-5.5194,-5.5194,-5.5194,-5.5194,-5.5194,-5.5194,-5.5194,-5.5194,-5.5194,-5.5194,-5.5194,-5.5194,-5.5194,-5.5194,-5.5194,-5.5194,-5.5194,-5.5194,-5.528,-5.5451,-5.7276,-5.8177,-5.7355,-5.8975,-5.9522,-5.8542,-5.8451,-5.836,-5.8177,-5.836,-5.836,-5.8177,-5.836,-5.79,-5.6719,-5.6719,-5.6183,-5.5194,-5.5194,-5.5822,0.0,0.0,0.0,0.0,0.0,0.0,0.0,0.0,0.0,0.0,0.0,0.0,0.0,0.0,0.0,0.0,0.0,0.0,0.0,0.0,0.0,0.0,0.0,0.0,0.0,0.0,0.0,0.0,-5.7881,-5.7881,-5.7881,-5.7881,-5.7881,-5.7881,-5.7881,-5.7881,-5.7881,-5.7881,-5.7932,-5.8034,-5.8034,-5.8084,-5.8186,-5.8186,-5.8947,-6.025,-6.0148,-6.0165,-6.008,-5.8018,-5.6776,-5.5938,-5.4268,-5.323,-5.2863,-5.4037,-5.4533,-5.4684,-5.5454,-5.5635,-5.5635,-5.5635,-5.5551,-5.5466,-5.5466,-5.528,-5.5194,-5.5194,-5.5194,-5.5194,-5.5194,-5.5194,-5.5194,-5.5194,-5.5194,-5.5194,-5.5194,-5.5194,-5.5194,-5.5194,-5.5194,-5.5194,-5.5194,-5.5194,-5.5194,-5.5194,-5.5194,-5.5194,-5.5194,-5.5194,-5.5651,-5.6623,-5.7086,-5.7621,-5.8451,-5.79,-5.7434,-5.7261,-5.7261,-5.6815,-5.5735,-5.6719,-5.6719,-5.5735,-5.6719,-5.6638,-5.5466,-5.5466,-5.5381,-5.5194,-5.5194,-5.5583,0.0,0.0,0.0,0.0,0.0,0.0,0.0,0.0,0.0,0.0,0.0,0.0,0.0,0.0,0.0,0.0,0.0,0.0,0.0,0.0,0.0,0.0,0.0,0.0,0.0,0.0,0.0,0.0,-5.7881,-5.7881,-5.7881,-5.7881,-5.7881,-5.7881,-5.7881,-5.7881,-5.7881,-5.7881,-5.7881,-5.7881,-5.7881,-5.7881,-5.7881,-5.7881,-5.8473,-5.9471,-5.9049,-5.9099,-5.9287,-5.7261,-5.591,-5.4916,-5.3601,-5.2728,-5.2321,-5.3279,-5.3877,-5.4311,-5.497,-5.5194,-5.5194,-5.5194,-5.5194,-5.5194,-5.5194,-5.5194,-5.5194,-5.5194,-5.5194,-5.5194,-5.5194,-5.5194,-5.5194,-5.5194,-5.5194,-5.5194,-5.5194,-5.5194,-5.5194,-5.5194,-5.5194,-5.5194,-5.5194,-5.5194,-5.5194,-5.5194,-5.5194,-5.5194,-5.5194,-5.5194,-5.5365,-5.5903,-5.6623,-5.6896,-5.6831,-5.6911,-5.6719,-5.6001,-5.6001,-5.572,-5.5194,-5.5735,-5.5735,-5.5194,-5.5735,-5.5735,-5.5194,-5.5194,-5.5194,-5.5194,-5.5194,-5.5538,0.0,0.0,0.0,0.0,0.0,0.0,0.0,0.0,0.0,0.0,0.0,0.0,0.0,0.0,0.0,0.0,0.0,0.0,0.0,0.0,0.0,0.0,0.0,0.0,0.0,0.0,0.0,0.0,-5.7881,-5.7881,-5.7881,-5.7881,-5.7881,-5.7881,-5.7881,-5.7881,-5.7881,-5.7881,-5.7881,-5.7881,-5.7881,-5.7881,-5.7881,-5.7881,-5.8203,-5.8693,-5.8135,-5.8203,-5.8602,-5.6607,-5.5312,-5.4421,-5.2989,-5.2383,-5.2276,-5.2935,-5.3608,-5.4311,-5.497,-5.5194,-5.5194,-5.5194,-5.5194,-5.5194,-5.5194,-5.5194,-5.5194,-5.5194,-5.5194,-5.5194,-5.5194,-5.5194,-5.5194,-5.5194,-5.5194,-5.5194,-5.5194,-5.5194,-5.5194,-5.5194,-5.5194,-5.5194,-5.5194,-5.5194,-5.5194,-5.5194,-5.5466,-5.5635,-5.5635,-5.5635,-5.5635,-5.5635,-5.6183,-5.6183,-5.528,-5.6001,-5.6183,-5.5295,-5.5194,-5.5194,-5.5194,-5.5194,-5.5194,-5.5194,-5.5194,-5.5194,-5.5194,-5.5194,-5.5194,-5.5194,-5.5194,-5.5448,0.0,0.0,0.0,0.0,0.0,0.0,0.0,0.0,0.0,0.0,0.0,0.0,0.0,0.0,0.0,0.0,0.0,0.0,0.0,0.0,0.0,0.0,0.0,0.0,0.0,0.0,0.0,0.0,-5.7881,-5.7881,-5.7881,-5.7881,-5.7881,-5.7881,-5.7881,-5.7881,-5.7881,-5.7881,-5.7881,-5.7881,-5.7881,-5.7881,-5.7881,-5.7881,-5.7898,-5.7949,-5.7898,-5.7898,-5.7786,-5.5587,-5.4672,-5.4421,-5.2154,-5.1712,-5.2276,-5.2935,-5.3608,-5.4311,-5.497,-5.5194,-5.5194,-5.5194,-5.5194,-5.5194,-5.5194,-5.5194,-5.5194,-5.5194,-5.5194,-5.5194,-5.5194,-5.5194,-5.5194,-5.5194,-5.5194,-5.5194,-5.5194,-5.5194,-5.5194,-5.5194,-5.5194,-5.5194,-5.5194,-5.5194,-5.5194,-5.5194,-5.6167,-5.6896,-5.6896,-5.6896,-5.6896,-5.6896,-5.5903,-5.528,-5.5194,-5.5295,-5.528,-5.5179,-5.5194,-5.5194,-5.5194,-5.5194,-5.5194,-5.5194,-5.5194,-5.5194,-5.5194,-5.5194,-5.5194,-5.5194,-5.5194,-5.5209,0.0,0.0,0.0,0.0,0.0,0.0,0.0,0.0,0.0,0.0,0.0,0.0,0.0,0.0,0.0,0.0,0.0,0.0,0.0,0.0,0.0,0.0,0.0,0.0,0.0,0.0,0.0,0.0,0.0,-5.7881,-5.7881,-5.7881,-5.7881,-5.7881,-5.7881,-5.7881,-5.7881,-5.7881,-5.7881,-5.7881,-5.7881,-5.7881,-5.7881,-5.7881,-5.7881,-5.7881,-5.7881,-5.7881,-5.7792,-5.622,-5.5231,-5.4421,-5.2916,-5.1955,-5.1693,-5.2785,-5.3339,-5.3713,-5.4805,-5.5194,-5.528,-5.6085,-5.6363,-5.6363,-5.6363,-5.6363,-5.6167,-5.5466,-5.5194,-5.5194,-5.5194,-5.5194,-5.5194,-5.5194,-5.5194,-5.5194,-5.5194,-5.5194,-5.5194,-5.5194,-5.5194,-5.5194,-5.5194,-5.5194,-5.5466,-5.6265,-5.6719,-5.7261,-5.8085,-5.8177,-5.79,-5.7071,-5.6623,-5.5986,-5.528,-5.5194,-5.5194,-5.5194,-5.5194,-5.5194,-5.5194,-5.5194,-5.5194,-5.5194,-5.5194,-5.5194,-5.5194,-5.5194,-5.5194,-5.5194,-5.5194,-5.5194,0.0,0.0,0.0,0.0,0.0,0.0,0.0,0.0,0.0,0.0,0.0,0.0,0.0,0.0,0.0,0.0,0.0,0.0,0.0,0.0,0.0,0.0,0.0,0.0,0.0,0.0,0.0,0.0,0.0,0.0,-5.7881,-5.7881,-5.7881,-5.7881,-5.7881,-5.7881,-5.7881,-5.7881,-5.7881,-5.7881,-5.7881,-5.7881,-5.7881,-5.7881,-5.7881,-5.7881,-5.7881,-5.7881,-5.7792,-5.6298,-5.5231,-5.4421,-5.29,-5.2032,-5.1678,-5.277,-5.3324,-5.3766,-5.5258,-5.5819,-5.6001,-5.7166,-5.7621,-5.7621,-5.7621,-5.7621,-5.7355,-5.6183,-5.5819,-5.5735,-5.528,-5.5194,-5.5194,-5.5194,-5.5194,-5.5194,-5.5194,-5.5194,-5.5194,-5.5194,-5.5194,-5.5194,-5.5194,-5.5551,-5.6085,-5.6896,-5.7699,-5.8526,-5.9346,-5.9434,-5.9065,-5.8252,-5.7527,-5.6719,-5.5918,-5.5466,-5.5194,-5.5194,-5.5194,-5.5194,-5.5194,-5.5194,-5.5194,-5.5194,-5.5194,-5.5194,-5.5194,-5.5194,-5.5194,-5.5194,-5.5194,-5.5194,0.0,0.0,0.0,0.0,0.0,0.0,0.0,0.0,0.0,0.0,0.0,0.0,0.0,0.0,0.0,0.0,0.0,0.0,0.0,0.0,0.0,0.0,0.0,0.0,0.0,0.0,0.0,0.0,-5.7881,-5.7881,-5.7865,-5.7865,-5.7865,-5.7865,-5.7881,-5.7881,-5.7881,-5.7881,-5.7881,-5.7881,-5.7881,-5.7881,-5.7881,-5.7881,-5.7881,-5.7881,-5.7881,-5.7881,-5.7718,-5.5571,-5.4589,-5.4337,-5.2139,-5.1603,-5.2247,-5.2905,-5.3578,-5.4419,-5.6361,-5.696,-5.7135,-5.8435,-5.8812,-5.8812,-5.8812,-5.8812,-5.8542,-5.7355,-5.6976,-5.6719,-5.5451,-5.5194,-5.5194,-5.5194,-5.5194,-5.5194,-5.528,-5.528,-5.528,-5.5194,-5.5194,-5.528,-5.528,-5.6265,-5.7071,-5.7071,-5.9065,-6.0602,-6.0686,-6.0686,-6.0602,-6.0586,-5.851,-5.7071,-5.6976,-5.5918,-5.5325,-5.5224,-5.5239,-5.5254,-5.5254,-5.5224,-5.5224,-5.5224,-5.5209,-5.5194,-5.5194,-5.5194,-5.5194,-5.5194,-5.5194,-5.5194,-3.4336,0.0,0.0,0.0,0.0,0.0,0.0,0.0,0.0,0.0,0.0,0.0,0.0,0.0,0.0,0.0,0.0,0.0,0.0,0.0,0.0,0.0,0.0,0.0,0.0,0.0,0.0,0.0,-5.7881,-5.7662,-5.712,-5.7103,-5.7103,-5.7103,-5.7611,-5.7881,-5.7881,-5.7881,-5.7881,-5.7881,-5.7881,-5.7881,-5.7881,-5.7881,-5.7881,-5.7881,-5.7039,-5.6701,-5.6624,-5.6047,-5.4806,-5.3324,-5.2649,-5.2002,-5.1573,-5.2232,-5.2591,-5.3098,-5.5484,-5.6247,-5.6684,-5.9257,-6.0059,-6.0059,-6.0059,-5.9522,-5.8542,-5.7355,-5.6363,-5.5635,-5.528,-5.5194,-5.5194,-5.5194,-5.5194,-5.5466,-5.6363,-5.6541,-5.6265,-5.5381,-5.5903,-5.6541,-5.6541,-5.7527,-5.8616,-5.9506,-6.0145,-6.0953,-6.1756,-6.1934,-6.1578,-6.0686,-5.9973,-5.8886,-5.7166,-5.7182,-5.6831,-5.5999,-5.6316,-5.657,-5.657,-5.6137,-5.5897,-5.5897,-5.5433,-5.5194,-5.5194,-5.5194,-5.5194,-5.5194,-5.5194,-5.5194,-3.5656,-3.6332,-3.7466,0.0,0.0,0.0,0.0,0.0,0.0,0.0,0.0,0.0,0.0,0.0,0.0,0.0,0.0,0.0,0.0,0.0,0.0,0.0,0.0,0.0,0.0,-5.7188,-5.7442,-5.7442,-5.7442,-5.712,-5.6393,-5.6342,-5.6342,-5.6342,-5.7053,-5.7442,-5.7442,-5.7746,-5.7881,-5.7881,-5.7881,-5.7881,-5.7881,-5.7881,-5.7628,-5.7131,-5.6454,-5.5698,-5.4789,-5.4789,-5.4052,-5.2812,-5.2395,-5.1804,-5.1289,-5.1947,-5.2457,-5.3206,-5.5514,-5.6599,-5.7405,-5.9993,-6.0867,-6.0934,-6.1217,-6.0501,-5.9346,-5.8085,-5.6557,-5.5194,-5.5194,-5.5194,-5.528,-5.5819,-5.5903,-5.6265,-5.7449,-5.7714,-5.7543,-5.6831,-5.7276,-5.7714,-5.7714,-5.8706,-5.98,-6.0501,-6.1036,-6.1595,-6.2302,-6.2381,-6.2127,-6.1415,-6.087,-6.0059,-5.86,-5.8717,-5.8304,-5.7005,-5.7613,-5.7671,-5.7094,-5.6496,-5.6166,-5.6166,-5.5523,-5.5194,-5.5194,-5.5194,-5.5194,-5.5194,-5.5194,-5.5194,-3.7381,-3.7702,-3.87,-4.051,-4.0155,0.0,-4.2388,-4.2591,0.0,0.0,0.0,0.0,0.0,0.0,0.0,0.0,0.0,0.0,0.0,0.0,0.0,0.0,0.0,0.0,-5.6494,-5.663,-5.6681,-5.6681,-5.6613,-5.6275,-5.5632,-5.5598,-5.5598,-5.5598,-5.6292,-5.6681,-5.6681,-5.7323,-5.7695,-5.7763,-5.7763,-5.7814,-5.7881,-5.7881,-5.7297,-5.6204,-5.6031,-5.4789,-5.29,-5.2723,-5.2738,-5.2649,-5.165,-5.1214,-5.1289,-5.1872,-5.2776,-5.4088,-5.5899,-5.7255,-5.8573,-6.065,-6.1298,-6.1434,-6.1987,-6.1317,-6.0145,-5.8812,-5.6815,-5.5194,-5.5194,-5.528,-5.5635,-5.6704,-5.7071,-5.7527,-5.8722,-5.8992,-5.9081,-5.917,-5.9081,-5.8992,-5.8992,-5.9973,-6.077,-6.077,-6.1676,-6.2381,-6.2381,-6.2381,-6.2381,-6.2381,-6.1399,-6.077,-6.0602,-6.0323,-5.9672,-5.8382,-5.8918,-5.8739,-5.7497,-5.6704,-5.6241,-5.6166,-5.5523,-5.5194,-5.5194,-5.5194,-5.5194,-5.5194,-5.5194,-5.5194,-3.9834,-4.0003,-4.0375,-3.9614,-4.0544,0.0,-4.0121,-4.1119,0.0,0.0,0.0,0.0,0.0,0.0,0.0,0.0,0.0,0.0,0.0,0.0,0.0,0.0,0.0,0.0,-5.5006,-5.5581,-5.5919,-5.5919,-5.5361,-5.4955,-5.482,-5.4803,-5.4803,-5.4803,-5.553,-5.5919,-5.5919,-5.6072,-5.6444,-5.7019,-5.7019,-5.7323,-5.7881,-5.7881,-5.7297,-5.6109,-5.5312,-5.4153,-5.2827,-5.1896,-5.1557,-5.1464,-5.1308,-5.1214,-5.1229,-5.1364,-5.2093,-5.3372,-5.5255,-5.6626,-5.7962,-6.0499,-6.1298,-6.1261,-6.1002,-6.0145,-5.8722,-5.6557,-5.5551,-5.5194,-5.5194,-5.5903,-5.6719,-5.6976,-5.7714,-5.8796,-5.9973,-6.0247,-6.0518,-6.1497,-6.0953,-6.0247,-6.0247,-6.1218,-6.203,-6.203,-6.2206,-6.2381,-6.2381,-6.2381,-6.2381,-6.2381,-6.2206,-6.1676,-6.0686,-6.1529,-6.1613,-6.0389,-6.0516,-6.0283,-5.9571,-5.7837,-5.6675,-5.6181,-5.5523,-5.5194,-5.5194,-5.5194,-5.5194,-5.5194,-5.5194,-5.5194,-4.1711,-4.1474,-4.166,-4.1288,-4.1474,0.0,0.0,-4.0916,-4.1508,0.0,0.0,0.0,0.0,0.0,0.0,0.0,0.0,0.0,0.0,0.0,0.0,0.0,0.0,0.0,-5.4549,-5.4921,-5.5158,-5.5158,-5.4465,-5.4042,-5.4042,-5.4042,-5.4042,-5.4042,-5.4769,-5.5158,-5.5158,-5.553,-5.5902,-5.6258,-5.6258,-5.6647,-5.734,-5.734,-5.6945,-5.6126,-5.5068,-5.4253,-5.3656,-5.2485,-5.2063,-5.1972,-5.1386,-5.1214,-5.1308,-5.1804,-5.2738,-5.3961,-5.5472,-5.6701,-5.7823,-5.8959,-5.956,-5.9705,-5.9291,-5.8598,-5.7621,-5.646,-5.6085,-5.628,-5.6815,-5.7449,-5.8069,-5.86,-5.9242,-6.0059,-6.1218,-6.1497,-6.1676,-6.2285,-6.1934,-6.1497,-6.1497,-6.203,-6.2381,-6.2381,-6.2381,-6.2381,-6.2381,-6.2381,-6.2381,-6.2381,-6.2381,-6.2127,-6.1578,-6.2515,-6.2593,-6.1288,-6.162,-6.1377,-6.0467,-5.9129,-5.7906,-5.6602,-5.5732,-5.5194,-5.5194,-5.5194,-5.5194,-5.5194,-5.5194,-5.5194,-4.3741,-4.3267,-4.3386,-4.342,-4.2844,-4.2202,0.0,0.0,0.0,-4.2455,0.0,0.0,0.0,0.0,0.0,0.0,0.0,0.0,0.0,0.0,0.0,0.0,0.0,0.0,0.0,-5.389,-5.3907,-5.4346,-5.3433,-5.3044,-5.3484,-5.3501,-5.3501,-5.3501,-5.4076,-5.438,-5.438,-5.4989,-5.5361,-5.5497,-5.5497,-5.5886,-5.6596,-5.6748,-5.6543,-5.5928,-5.5248,-5.4822,-5.4505,-5.3569,-5.3237,-5.3061,-5.1972,-5.1557,-5.1635,-5.2575,-5.3742,-5.5068,-5.5873,-5.6794,-5.7581,-5.7458,-5.7577,-5.7829,-5.7549,-5.7057,-5.6719,-5.688,-5.6976,-5.7261,-5.8451,-5.8992,-5.9434,-6.0332,-6.077,-6.1218,-6.2206,-6.2381,-6.2381,-6.2381,-6.2381,-6.2381,-6.2381,-6.2381,-6.2381,-6.2381,-6.2381,-6.2381,-6.2381,-6.2381,-6.2381,-6.2381,-6.2381,-6.2381,-6.2381,-6.3091,-6.306,-6.2047,-6.2468,-6.2133,-6.0929,-6.0104,-5.8931,-5.7355,-5.6183,-5.5551,-5.5551,-5.528,-5.5194,-5.5194,-5.5194,-5.5194,-4.6701,-4.6769,-4.665,-4.4062,-4.479,-4.5128,-4.1221,0.0,-4.1745,-4.0679,0.0,0.0,0.0,0.0,0.0,0.0,0.0,0.0,0.0,0.0,0.0,0.0,0.0,0.0,0.0,-5.1369,-5.1437,-5.3467,-5.1674,-5.1369,-5.3399,-5.3501,-5.3501,-5.3501,-5.3585,-5.3619,-5.3619,-5.3721,-5.4076,-5.4718,-5.4718,-5.5108,-5.5869,-5.6511,-5.6185,-5.5221,-5.5768,-5.5474,-5.4589,-5.4421,-5.4421,-5.4337,-5.3149,-5.2738,-5.2738,-5.2812,-5.4221,-5.6047,-5.6204,-5.6282,-5.6492,-5.7189,-5.6884,-5.6216,-5.6217,-5.5827,-5.5635,-5.6719,-5.6976,-5.7261,-5.8451,-5.961,-6.0417,-6.0602,-6.1399,-6.2206,-6.2381,-6.2381,-6.2381,-6.2381,-6.2381,-6.2381,-6.2381,-6.2381,-6.2381,-6.2381,-6.2381,-6.2381,-6.2381,-6.2381,-6.2381,-6.2381,-6.2381,-6.2381,-6.2381,-6.3091,-6.3434,-6.332,-6.2929,-6.2377,-6.1616,-5.9831,-5.8802,-5.8632,-5.7449,-5.6815,-5.68,-5.5735,-5.5194,-5.5194,-5.5194,-5.5194,-4.7192,-4.7344,-4.7411,-4.528,-4.5128,-4.479,-4.1999,-4.117,-4.1068,0.0,0.0,0.0,0.0,0.0,0.0,0.0,0.0,0.0,0.0,0.0,0.0,0.0,0.0,0.0,0.0,0.0,0.0,0.0,-5.0879,-5.0879,-5.2706,-5.3247,-5.3501,-5.3501,-5.3501,-5.3501,-5.3501,-5.3501,-5.3653,-5.3957,-5.3957,-5.4346,-5.5091,-5.5835,-5.6145,-5.6094,-5.6139,-5.6298,-5.647,-5.581,-5.5554,-5.5474,-5.497,-5.4389,-5.3999,-5.4557,-5.5377,-5.6282,-5.6963,-5.6778,-5.6083,-5.5573,-5.4922,-5.4481,-5.4876,-5.5567,-5.6541,-5.7714,-5.8526,-5.933,-6.0602,-6.1218,-6.1659,-6.1659,-6.203,-6.2381,-6.2381,-6.2381,-6.2381,-6.2381,-6.2381,-6.2381,-6.2381,-6.2381,-6.2381,-6.2381,-6.2381,-6.2381,-6.2381,-6.2381,-6.2381,-6.2381,-6.2381,-6.2381,-6.2381,-6.2668,-6.2854,-6.2854,-6.2609,-6.2364,-6.2128,-6.0666,-5.987,-5.987,-5.8616,-5.7714,-5.6976,-5.6541,-5.5903,-5.5194,-5.5194,-5.5194,-4.8105,0.0,0.0,0.0,0.0,0.0,0.0,0.0,-4.1187,0.0,0.0,0.0,0.0,0.0,-4.1441,-4.1238,0.0,-4.2591,0.0,0.0,0.0,0.0,0.0,0.0,0.0,0.0,0.0,0.0,0.0,-4.9881,-5.2181,-5.2858,-5.3281,-5.3501,-5.3501,-5.3501,-5.3501,-5.3501,-5.3501,-5.3501,-5.3501,-5.3788,-5.4313,-5.5057,-5.5818,-5.6457,-5.6437,-5.6947,-5.7808,-5.7039,-5.6701,-5.6701,-5.6701,-5.622,-5.5571,-5.6047,-5.6376,-5.6794,-5.7628,-5.6963,-5.5458,-5.3726,-5.3186,-5.3279,-5.3773,-5.5137,-5.6719,-5.7993,-5.917,-6.0417,-6.1578,-6.2127,-6.2302,-6.203,-6.1934,-6.1854,-6.148,-6.1399,-6.1399,-6.1399,-6.1399,-6.1399,-6.1399,-6.1934,-6.2381,-6.2381,-6.2381,-6.2381,-6.2381,-6.2381,-6.2381,-6.2381,-6.2381,-6.2381,-6.2381,-6.2381,-6.2482,-6.2685,-6.2888,-6.2905,-6.2702,-6.1879,-6.1335,-6.1136,-5.961,-5.836,-5.7527,-5.6815,-5.61,-5.5194,-5.5194,-5.5194,0.0,0.0,0.0,-4.5703,0.0,0.0,0.0,0.0,-4.2912,0.0,-4.2946,-4.3995,-4.2557,-4.2269,-4.2016,-4.1322,-4.183,0.0,0.0,0.0,0.0,0.0,0.0,0.0,0.0,0.0,0.0,0.0,0.0,0.0,-5.208,-5.2317,-5.2706,-5.3484,-5.3501,-5.3501,-5.3501,-5.3501,-5.3501,-5.3501,-5.3501,-5.3518,-5.3568,-5.4296,-5.504,-5.5784,-5.644,-5.7239,-5.7881,-5.7881,-5.7881,-5.7881,-5.7881,-5.7808,-5.7628,-5.6608,-5.687,-5.7881,-5.7881,-5.647,-5.4253,-5.2002,-5.2127,-5.3174,-5.3204,-5.4132,-5.5551,-5.6719,-5.79,-5.917,-6.0332,-6.148,-6.2127,-6.0953,-6.0686,-6.0332,-5.917,-5.8902,-5.8902,-5.8902,-5.8902,-5.8902,-5.8902,-6.0854,-6.2381,-6.2381,-6.2381,-6.2381,-6.2381,-6.2381,-6.2381,-6.2381,-6.2381,-6.2381,-6.2381,-6.2381,-6.2702,-6.3429,-6.414,-6.4208,-6.3497,-6.34,-6.3045,-6.2398,-5.9973,-5.8812,-5.8722,-5.6363,-5.5194,-5.5194,-5.5194,-5.5194,0.0,0.0,-5.1116,-4.7648,0.0,0.0,0.0,0.0,0.0,0.0,0.0,-4.4113,-4.2574,-4.2286,-4.2049,-4.1322,-4.1407,-4.1221,0.0,0.0,0.0,0.0,0.0,0.0,0.0,0.0,0.0,0.0,-4.6853,0.0,0.0,-5.2046,-5.2672,-5.3484,-5.3501,-5.3501,-5.3501,-5.3501,-5.3501,-5.3501,-5.3501,-5.3501,-5.3534,-5.4262,-5.5006,-5.575,-5.6494,-5.7222,-5.7881,-5.7881,-5.7881,-5.7881,-5.7881,-5.7881,-5.7881,-5.7463,-5.7554,-5.7718,-5.6237,-5.5247,-5.4333,-5.2504,-5.2471,-5.3264,-5.3728,-5.5024,-5.6445,-5.6896,-5.79,-5.8902,-5.9346,-5.9697,-5.9887,-5.9522,-5.9434,-5.9258,-5.8902,-5.8812,-5.8812,-5.8812,-5.8812,-5.8812,-5.8812,-5.9434,-6.0059,-6.0059,-6.0059,-6.0332,-6.1136,-6.1218,-6.1497,-6.2302,-6.2381,-6.2381,-6.2381,-6.2854,-6.3243,-6.3497,-6.4191,-6.4495,-6.4241,-6.3768,-6.3023,-6.1933,-6.0663,-5.9242,-5.7621,-5.6815,-5.6001,-5.5194,-5.5194,-5.5194,-5.1674,-5.1944,0.0,-4.8968,-4.7936,0.0,-4.3792,0.0,-4.4604,0.0,0.0,0.0,-4.4756,-4.3589,-4.2625,-4.2439,-4.1728,-4.0933,0.0,-4.007,0.0,0.0,0.0,0.0,0.0,0.0,-4.3284,-4.5821,0.0,0.0,0.0,0.0,-5.2283,-5.3061,-5.3348,-5.3501,-5.3501,-5.3501,-5.3501,-5.3501,-5.3501,-5.3501,-5.3518,-5.3991,-5.4752,-5.575,-5.6207,-5.6985,-5.7881,-5.7881,-5.7881,-5.7881,-5.7881,-5.7881,-5.7881,-5.7881,-5.7881,-5.7554,-5.541,-5.4749,-5.4698,-5.2839,-5.2815,-5.3623,-5.4072,-5.5206,-5.6347,-5.6347,-5.7261,-5.8177,-5.8177,-5.8451,-5.8722,-5.8268,-5.8177,-5.8085,-5.7637,-5.7543,-5.7543,-5.7543,-5.7543,-5.7543,-5.7543,-5.7543,-5.7823,-5.8632,-5.8812,-5.9081,-5.9887,-6.0332,-6.087,-6.1676,-6.211,-6.2381,-6.2381,-6.3091,-6.3632,-6.3886,-6.458,-6.4867,-6.4613,-6.3951,-6.3016,-6.1673,-6.0541,-5.9258,-5.7704,-5.7233,-5.6579,-5.5538,-5.5538,-5.5418]}]]